GFSGL_con_mlcape_003.txt.gz
CAPE
0 0 0 1 1 3 75 169 37 89 36 264 231 234 206 353 481 531 525 347 128 4 0 9 3 0 4 3 0 19 17 16 28 11 2 0 0 4 0 0 0 0 0
0 0 0 0 0 0 87 330 218 131 6 12 84 196 187 281 364 409 344 245 86 13 4 30 18 1 0 0 1 7 28 15 0 0 0 0 0 0 0 0 0 0 0
0 0 0 0 0 0 0 0 349 350 98 11 21 17 194 304 331 422 310 231 161 177 30 19 8 0 0 2 3 0 14 15 0 0 0 0 0 0 0 0 4 18 0
0 0 0 0 0 3 0 0 35 201 318 221 32 45 17 93 418 472 395 428 237 148 87 49 47 3 10 33 21 0 0 0 0 0 0 0 0 0 0 0 0 0 0
0 0 0 0 0 18 0 0 0 0 8 63 174 85 4 4 234 361 411 394 283 221 162 140 161 66 31 19 0 0 0 0 0 0 0 0 0 0 0 0 0 0 0
0 0 0 0 0 1 1 0 0 0 0 0 0 0 0 0 0 0 0 21 58 29 0 0 0 0 0 0 0 0 0 0 0 0 0 0 0 0 0 0 0 0 0
0 0 0 0 0 0 0 0 0 0 0 0 0 0 0 0 0 0 0 0 0 0 0 0 0 0 0 0 0 0 0 0 0 0 7 0 0 0 0 0 0 0 0
0 0 0 0 0 0 0 0 0 0 0 0 0 0 0 0 0 0 0 0 0 0 0 0 0 0 0 0 0 0 0 0 0 0 0 0 0 0 19 6 32 4 2
0 0 0 0 0 0 0 0 0 0 0 0 0 0 0 0 0 0 0 0 0 0 0 0 0 0 0 0 0 0 0 0 0 0 0 0 0 0 0 0 0 0 0
0 0 0 0 0 0 0 0 0 0 0 0 0 0 0 0 0 0 0 0 0 0 0 0 0 0 0 0 0 0 0 0 0 0 0 0 0 0 0 0 0 0 0
0 0 0 0 0 0 0 0 0 0 0 0 0 0 0 0 0 0 0 0 0 0 0 0 0 0 0 0 0 0 0 0 0 0 0 0 0 0 0 0 0 0 0
0 0 0 0 0 0 0 0 0 0 0 0 0 0 0 0 0 0 0 0 0 0 0 0 0 0 0 0 0 0 0 0 0 0 0 0 0 0 0 0 0 0 0
0 0 0 0 0 0 0 0 0 0 0 0 0 0 0 0 0 0 0 0 0 0 0 0 0 0 0 0 0 0 0 0 0 0 0 0 0 0 0 0 0 0 0
0 0 0 0 0 0 0 0 0 0 0 0 0 0 0 0 0 0 0 0 0 0 0 0 0 0 0 0 0 0 0 0 0 0 0 0 0 0 0 0 0 0 0
0 0 0 0 0 0 0 0 0 0 0 0 0 0 0 0 0 0 0 0 0 0 0 0 0 0 0 0 0 0 0 0 0 0 0 0 0 0 0 0 0 0 0
1 0 0 0 0 0 0 0 0 0 0 0 0 0 0 0 0 0 0 0 0 0 0 0 0 0 0 0 0 0 0 0 0 0 0 0 0 0 0 0 0 0 0
27 0 0 0 0 0 0 0 0 0 0 0 0 0 0 0 0 0 0 0 0 0 0 0 0 0 0 0 17 57 0 0 0 0 0 0 0 0 0 0 0 0 0
114 0 0 0 0 0 0 0 0 0 0 0 0 0 0 0 0 0 0 0 0 0 0 0 0 0 12 29 9 0 0 0 0 0 0 0 0 0 0 0 0 0 0
297 7 0 0 0 0 0 0 0 0 0 0 0 0 0 0 0 0 0 0 0 0 0 0 1 21 1 0 0 0 0 0 0 0 0 0 0 0 0 0 0 0 0
254 179 20 0 0 0 0 0 0 0 0 0 0 0 0 0 0 0 0 0 0 0 0 0 1 0 0 0 0 0 0 0 0 0 0 0 0 0 0 0 0 0 0
248 200 82 17 0 0 0 0 0 0 0 0 0 0 0 0 0 0 0 0 0 0 0 0 0 0 0 0 0 0 0 0 0 0 0 0 0 0 0 0 0 0 0
326 283 191 108 101 29 4 0 0 0 0 0 0 0 0 0 0 0 0 0 0 0 0 0 0 0 0 0 0 0 0 0 0 0 0 0 0 0 0 0 0 0 0
315 283 276 168 147 121 46 9 0 1 0 0 0 0 0 1 0 0 0 0 0 0 0 0 0 0 0 0 0 0 0 0 0 0 0 0 0 0 0 0 0 0 0
313 265 215 182 118 81 59 52 0 0 4 0 0 0 0 0 0 0 0 0 0 0 0 0 0 0 0 0 0 0 0 0 0 0 0 0 0 0 0 0 0 0 0
328 270 240 167 106 44 37 36 21 11 0 0 0 0 0 0 0 0 0 0 0 0 0 0 0 0 0 0 0 0 0 0 0 0 0 0 0 0 0 0 0 0 0
196 178 200 180 96 39 34 16 16 0 0 0 0 0 0 0 0 0 0 0 0 0 0 0 0 0 0 0 0 0 0 0 0 0 0 0 0 0 0 0 0 0 0

GFSGL_con_mlcape_006.txt.gz
CAPE
0 0 2 83 67 139 164 108 2 53 194 152 80 317 243 315 213 361 314 222 124 1 0 0 0 1 0 2 7 12 29 21 15 25 29 61 57 55 0 0 0 0 0
0 0 0 12 75 139 101 112 14 6 158 233 259 212 250 370 404 107 39 22 9 5 0 0 0 0 0 5 22 21 22 33 26 16 2 13 0 0 0 0 0 0 0
0 0 0 5 24 61 155 153 10 0 36 229 240 281 200 171 164 93 267 113 53 12 11 3 0 0 3 15 18 9 24 25 4 0 0 0 0 0 0 0 0 0 0
0 0 0 3 0 0 20 175 73 32 4 12 120 208 133 121 213 264 167 37 26 13 18 18 9 0 3 7 3 5 11 22 0 0 0 0 0 0 0 0 0 0 0
0 0 0 0 81 0 0 18 143 76 6 150 33 63 159 234 219 155 130 63 93 15 16 13 8 1 8 22 12 0 0 10 0 0 0 0 0 0 0 0 0 0 0
0 0 0 0 11 5 0 0 0 0 31 12 0 0 0 0 46 177 188 116 59 36 48 11 0 0 0 2 0 0 0 0 0 0 0 0 0 0 0 0 0 0 0
0 0 0 0 0 1 0 0 0 0 2 0 0 0 0 0 0 4 85 23 7 24 5 0 0 0 0 0 0 0 0 0 10 10 0 0 0 0 0 0 0 0 0
0 0 0 0 0 0 0 0 0 0 0 0 0 0 0 0 0 0 5 0 0 0 0 0 0 0 0 0 0 0 0 0 0 0 10 3 0 7 60 37 13 67 59
0 0 0 0 0 0 0 0 0 0 0 0 0 0 0 0 0 0 0 0 0 0 0 0 0 0 0 0 0 0 0 0 0 0 0 0 0 0 0 0 0 0 0
0 0 0 0 0 0 0 0 10 26 0 0 0 0 0 0 0 0 0 0 0 0 0 0 0 0 0 0 0 0 0 0 0 0 0 0 0 0 0 0 0 0 0
0 0 0 0 0 0 0 0 33 22 3 0 0 0 0 0 0 0 0 0 0 0 0 0 0 0 0 0 0 0 0 0 0 0 0 0 0 0 0 0 0 0 0
0 0 0 0 0 0 0 0 2 0 55 0 0 0 0 0 0 0 0 0 0 0 0 0 0 0 0 0 0 0 0 0 0 0 0 0 0 0 0 0 0 0 0
0 0 0 0 0 0 0 0 0 0 0 0 0 0 0 0 0 0 0 0 0 0 0 0 0 0 0 0 0 0 0 0 0 0 0 0 0 0 0 0 0 0 0
0 0 0 0 0 0 0 0 0 0 0 0 0 0 0 0 0 0 0 0 0 0 0 0 0 0 0 0 0 0 0 0 0 0 0 0 0 0 0 0 0 0 0
0 0 0 0 0 0 0 15 0 0 0 0 0 0 0 0 0 0 0 0 0 0 0 0 0 0 0 0 0 0 0 0 0 0 0 0 0 0 0 0 0 0 0
0 0 0 0 0 0 0 0 0 0 0 0 0 0 0 0 0 0 0 0 0 0 0 0 0 0 0 0 0 0 0 0 0 0 0 0 0 0 0 0 0 0 0
15 0 0 0 0 0 0 0 0 0 0 0 0 0 0 0 0 0 0 0 0 0 0 0 0 0 0 0 0 0 0 0 0 0 0 0 0 0 0 0 0 0 0
38 5 0 0 0 0 0 0 0 0 0 0 0 0 0 0 0 0 0 0 0 0 0 0 0 0 0 0 0 0 0 0 0 0 0 0 0 0 0 0 0 0 0
67 33 1 0 0 0 0 0 0 0 0 0 0 0 0 0 0 0 0 0 0 0 0 0 0 0 0 0 0 0 0 0 0 0 0 0 0 0 0 0 0 0 0
177 73 4 1 0 0 0 0 0 0 0 0 0 0 0 0 0 0 0 0 0 0 0 0 0 0 0 0 0 0 0 0 0 0 0 0 0 0 0 0 0 0 0
434 193 2 9 13 3 0 0 0 0 0 0 0 0 0 0 0 0 0 0 0 0 0 0 0 0 0 0 0 0 0 0 0 0 0 0 0 0 0 0 0 0 0
618 497 105 21 35 0 15 0 10 0 0 0 0 0 0 0 0 0 0 0 0 0 0 0 0 0 0 0 0 0 0 0 0 0 0 0 0 0 0 0 0 0 0
518 631 490 246 193 81 1 0 0 34 10 0 0 0 0 0 0 0 0 0 0 0 0 0 0 0 0 0 0 0 0 0 0 0 0 0 0 0 0 0 0 0 0
595 580 628 657 355 279 244 84 56 14 17 0 0 0 0 0 0 0 0 0 0 0 0 0 0 0 0 0 0 0 0 0 0 0 0 0 0 0 0 0 0 0 0
347 574 579 566 554 347 318 262 199 61 0 0 0 0 0 0 0 0 0 0 0 0 0 0 0 0 0 0 0 0 0 0 0 0 0 0 0 0 0 0 0 0 0
506 367 483 604 525 333 304 247 149 96 15 0 0 0 0 0 0 0 0 0 0 0 0 0 0 0 0 0 0 0 0 0 0 0 0 0 0 0 0 0 0 0 0

GFSGL_con_mlcape_009.txt.gz
CAPE
0 0 4 31 63 88 27 0 18 65 53 121 185 238 206 278 166 118 101 60 14 0 0 0 0 1 2 0 0 0 11 0 3 15 14 34 42 13 4 0 0 0 0
0 0 2 10 52 29 31 0 26 44 103 119 145 173 202 185 133 117 50 28 10 0 0 0 6 1 0 0 3 1 0 11 31 32 49 55 45 3 0 0 0 0 0
0 0 0 0 19 42 10 0 0 45 135 202 137 111 129 138 61 69 63 19 2 1 2 0 4 0 0 9 4 5 2 17 18 34 38 22 0 0 0 0 0 0 0
0 0 0 0 0 29 42 15 5 31 63 81 164 89 126 162 80 71 35 20 1 0 1 0 1 5 15 5 14 10 19 17 10 3 3 1 0 0 0 0 0 0 0
0 0 0 0 0 3 69 7 0 27 38 51 85 87 118 161 109 95 61 18 2 11 6 6 6 23 24 21 26 21 9 10 1 0 0 0 0 0 0 0 0 0 0
0 0 0 0 6 6 0 0 0 0 42 0 0 12 40 27 20 42 51 45 13 24 17 1 7 10 13 15 5 5 5 6 0 0 0 0 0 0 0 0 0 0 0
0 0 0 0 7 0 0 0 0 0 0 0 0 0 0 6 23 33 28 20 18 4 1 0 0 0 1 2 0 0 0 0 0 0 0 0 0 0 0 0 0 0 0
0 0 0 0 0 0 0 0 0 0 0 0 0 0 0 0 9 13 4 0 1 6 0 0 1 0 0 0 0 0 0 0 0 0 0 0 0 0 0 0 10 0 0
0 0 0 0 0 0 0 0 0 0 0 0 0 0 0 0 0 0 0 2 2 0 0 0 0 0 0 0 0 0 0 0 0 0 0 0 0 0 0 0 0 0 0
0 0 0 0 0 0 0 0 0 0 0 0 0 0 0 0 0 0 0 0 0 0 0 0 0 0 0 0 0 0 0 0 0 0 0 0 0 0 0 0 0 0 0
0 0 0 0 0 0 0 0 0 0 0 0 0 0 0 0 0 0 0 0 0 0 0 0 0 0 0 0 0 0 0 0 0 0 0 0 0 0 0 0 0 0 0
0 0 0 0 0 0 0 0 0 0 0 0 0 0 0 0 0 0 0 0 0 0 0 0 0 0 0 0 0 0 0 0 0 0 0 0 0 0 0 0 0 0 0
0 0 0 0 0 0 0 0 0 0 28 0 0 0 0 0 0 0 0 0 0 0 0 0 0 0 0 0 0 0 0 0 0 0 0 0 0 0 0 0 0 0 0
0 0 0 0 0 0 0 0 0 0 0 0 0 0 0 0 0 0 0 0 0 0 0 0 0 0 0 0 0 0 0 0 0 0 0 0 0 0 0 0 0 0 0
0 0 0 0 0 0 0 0 0 0 0 0 0 0 0 0 0 0 0 0 0 0 0 0 0 0 0 0 0 0 0 0 0 0 0 0 0 0 0 0 0 0 0
0 0 0 0 0 0 0 0 0 0 0 0 0 0 0 0 0 0 0 0 0 0 0 0 0 0 0 0 0 0 0 0 0 0 0 0 0 0 0 0 0 0 0
0 0 0 0 0 0 0 0 0 0 0 0 0 0 0 0 0 0 0 0 0 0 0 0 0 0 0 0 0 0 0 0 0 0 0 0 0 0 0 0 0 0 0
0 0 0 0 0 0 0 0 0 0 0 0 0 0 0 0 0 0 0 0 0 0 0 0 0 0 0 0 0 0 0 0 0 0 0 0 0 0 0 0 0 0 0
0 0 0 0 0 0 0 0 0 0 0 0 0 0 0 0 0 0 0 0 0 0 0 0 0 0 0 0 0 0 0 0 0 0 0 0 0 0 0 0 0 0 0
0 0 0 0 0 0 0 0 0 0 0 0 0 0 0 0 0 0 0 0 0 0 0 0 0 0 0 0 0 0 0 0 0 0 0 0 0 0 0 0 0 0 0
14 0 0 0 0 0 0 0 0 0 0 0 0 0 0 0 0 0 0 0 0 0 0 0 0 0 0 0 0 0 0 0 0 0 0 0 0 0 0 0 0 0 0
86 13 0 0 0 0 0 0 0 0 0 0 0 0 0 0 0 0 0 0 0 0 0 0 0 0 0 0 0 0 0 0 0 0 0 0 0 0 0 0 0 0 0
208 132 14 0 0 0 0 0 0 0 0 0 0 0 0 0 0 0 0 0 0 0 0 0 0 0 0 0 0 0 0 0 0 0 0 0 0 0 0 0 0 0 0
266 244 171 19 0 0 0 0 0 0 0 0 0 0 0 0 0 0 0 0 0 0 0 0 0 0 0 0 0 0 0 0 0 0 0 0 0 0 0 0 0 0 0
308 314 233 198 80 10 1 0 0 0 0 0 0 0 0 0 0 0 0 0 0 0 0 0 0 0 0 0 0 0 0 0 0 0 0 0 0 0 0 0 0 0 0
115 55 80 165 271 232 182 80 104 59 3 0 0 0 0 0 0 0 0 0 0 0 0 0 0 0 0 0 0 0 0 0 0 0 0 0 0 0 0 0 0 0 0

GFSGL_con_mlcape_012.txt.gz
CAPE
0 0 0 0 34 0 0 1 32 34 85 70 98 97 125 118 105 43 19 54 39 8 1 1 1 0 0 0 0 0 0 5 12 21 20 24 21 2 4 0 0 0 0
0 0 0 0 0 0 0 0 11 21 73 71 120 95 102 68 57 64 45 8 1 1 2 2 3 0 0 0 0 0 0 20 2 9 35 26 22 14 4 0 0 0 0
0 0 0 0 0 0 0 0 2 42 68 79 79 45 75 40 25 13 5 0 0 0 1 1 1 1 1 0 4 0 9 4 7 6 24 31 23 5 0 0 0 0 0
0 0 0 0 0 0 0 0 1 32 57 58 56 80 77 54 22 0 0 0 0 2 1 8 8 2 2 0 1 3 1 10 31 21 19 5 5 0 0 0 0 0 0
0 0 0 0 0 0 0 1 10 14 43 68 87 135 102 25 48 37 6 9 0 0 2 2 4 5 7 7 12 6 2 15 21 10 0 0 0 0 0 0 0 0 0
0 0 0 0 0 0 0 3 1 0 0 38 28 54 62 46 11 12 14 8 10 1 3 1 0 4 0 4 20 19 16 9 6 0 0 0 0 0 0 0 0 0 0
0 0 0 0 0 0 0 0 0 0 0 0 0 19 30 26 20 18 12 14 23 3 7 22 36 29 26 19 2 3 2 4 0 0 0 0 0 0 0 0 0 0 0
0 0 0 0 0 0 0 0 0 0 0 0 0 0 7 4 22 31 30 24 12 1 1 2 16 4 9 2 0 1 0 0 0 0 0 0 0 0 0 0 0 0 0
0 0 0 0 0 0 0 0 0 0 0 0 0 0 0 0 0 0 15 7 2 1 0 0 1 0 0 0 0 0 0 0 0 0 0 0 0 0 0 0 0 0 0
0 0 0 0 0 0 0 0 0 0 0 0 0 0 0 0 0 0 0 0 0 0 0 0 0 0 0 0 0 0 0 0 0 0 0 0 0 0 0 0 0 0 0
0 0 0 0 0 0 0 0 0 0 0 0 0 0 0 0 0 0 0 0 0 0 0 0 0 0 0 0 0 0 0 0 0 0 0 0 0 0 0 0 0 0 0
0 0 0 0 0 0 0 0 0 0 0 0 0 0 0 0 0 0 0 0 0 0 0 0 0 0 0 0 0 0 0 0 0 0 0 0 0 0 0 0 0 0 0
0 0 0 0 0 0 0 0 0 0 0 0 0 0 0 0 0 0 0 0 0 0 0 0 0 0 0 0 0 0 0 0 0 0 0 0 0 0 0 0 0 0 0
0 0 0 0 0 0 0 0 0 0 0 0 0 0 0 0 0 0 0 0 0 0 0 0 0 0 0 0 0 0 0 0 0 0 0 0 0 0 0 0 0 0 0
0 0 0 0 0 0 0 0 0 0 0 0 0 0 0 0 0 0 0 0 0 0 0 0 0 0 0 0 0 0 0 0 0 0 0 0 0 0 0 0 0 0 0
0 0 0 0 0 0 0 0 0 0 0 0 0 0 0 0 0 0 0 0 0 0 0 0 0 0 0 0 0 0 0 0 0 0 0 0 0 0 0 0 0 0 0
0 0 0 0 0 0 0 0 0 0 0 0 0 0 0 0 0 0 0 0 0 0 0 0 0 0 0 0 0 0 0 0 0 0 0 0 0 0 0 0 0 0 0
0 0 0 0 0 0 0 0 0 0 0 0 0 0 0 0 0 0 0 0 0 0 0 0 0 0 0 0 0 0 0 0 0 0 0 0 0 0 0 0 0 0 0
0 0 0 0 0 0 0 0 0 0 0 0 0 0 0 0 0 0 0 0 0 0 0 0 0 0 0 0 0 0 0 0 0 0 0 0 0 0 0 0 0 0 0
0 0 0 0 0 0 0 0 0 0 0 0 0 0 0 0 0 0 0 0 0 0 0 0 0 0 0 0 0 0 0 0 0 0 0 0 0 0 0 0 0 0 0
0 0 0 0 0 0 0 0 0 0 0 0 0 0 0 0 0 0 0 0 0 0 0 0 0 0 0 0 0 0 0 0 0 0 0 0 0 0 0 0 0 0 0
0 0 0 0 0 0 0 0 0 0 0 0 0 0 0 0 0 0 0 0 0 0 0 0 0 0 0 0 0 0 0 0 0 0 0 0 0 0 0 0 0 0 0
0 0 0 0 0 0 0 0 0 0 0 0 0 0 0 0 0 0 0 0 0 0 0 0 0 0 0 0 0 0 0 0 0 0 0 0 0 0 0 0 0 0 0
0 0 0 0 0 0 0 0 0 0 0 0 0 0 0 0 0 0 0 0 0 0 0 0 0 0 0 0 0 0 0 0 0 0 0 0 0 0 0 0 0 0 0
37 13 1 0 0 0 0 0 0 0 0 0 0 0 0 0 0 0 0 0 0 0 0 0 0 0 0 0 0 0 0 0 0 0 0 0 0 0 0 0 0 0 0
34 77 62 28 9 0 0 0 0 0 0 0 0 0 0 0 0 0 0 0 0 0 0 0 0 0 0 0 0 0 0 0 0 0 0 0 0 0 0 0 0 0 0

GFSGL_con_mlcape_015.txt.gz
CAPE
0 0 0 0 0 0 0 0 0 1 11 0 0 0 0 28 31 9 17 35 17 12 1 1 0 2 0 0 0 3 4 22 23 35 32 40 44 23 28 1 0 0 0
0 0 0 0 0 0 0 0 0 8 14 8 12 16 24 26 7 12 9 10 15 6 0 0 0 0 0 0 0 0 12 10 21 24 49 34 2 1 17 0 0 0 0
0 0 0 0 0 0 0 0 1 0 23 36 34 30 26 11 22 0 0 0 2 1 1 3 1 0 0 2 6 0 9 9 16 37 25 0 9 0 1 0 0 0 0
0 0 0 0 0 0 0 0 8 4 9 22 13 17 11 3 0 0 0 1 1 0 1 2 1 1 6 3 14 3 6 19 19 23 13 10 4 0 1 0 0 0 0
0 0 0 0 0 0 0 0 0 6 13 21 46 25 17 4 0 0 0 0 0 1 7 9 1 0 0 1 0 1 0 2 16 2 16 8 0 1 0 0 0 0 0
0 0 0 0 0 0 0 0 0 1 29 37 37 37 17 26 0 0 0 3 4 1 7 9 0 0 0 1 1 3 22 9 15 8 0 16 1 0 0 0 0 0 0
0 0 0 0 0 0 0 0 0 0 1 17 7 33 31 4 3 2 1 4 1 1 1 4 4 0 0 1 0 7 12 6 7 2 0 0 0 0 0 0 0 0 0
0 0 0 0 0 0 0 0 0 0 0 1 6 18 6 8 5 1 0 6 5 3 9 3 3 0 6 13 8 6 1 0 0 0 0 0 0 0 0 0 0 0 0
0 0 0 0 0 0 0 0 0 0 0 0 0 0 2 0 0 1 3 7 5 13 21 8 3 2 0 3 2 0 0 0 0 0 0 0 0 0 0 0 0 0 0
0 0 0 0 0 0 0 0 0 0 0 0 0 0 0 0 0 0 0 3 1 1 1 1 0 2 0 0 0 0 0 0 0 0 0 0 0 0 0 0 0 0 0
0 0 0 0 0 0 0 0 0 0 0 0 0 0 0 0 0 0 0 0 0 0 0 0 0 0 0 0 0 0 0 0 0 0 0 0 0 0 0 0 0 0 0
0 0 0 0 0 0 0 0 0 0 0 0 0 0 0 0 0 0 0 0 0 0 0 0 0 0 0 0 0 0 0 0 0 0 0 0 0 0 0 0 0 0 0
0 0 0 0 0 0 0 0 0 0 0 0 0 0 0 0 0 0 0 0 0 0 0 0 0 0 0 0 0 0 0 0 0 0 0 0 0 0 0 0 0 0 0
0 0 0 0 0 0 0 0 0 0 0 0 0 0 0 0 0 0 0 0 0 0 0 0 0 0 0 0 0 0 0 0 0 0 0 0 0 0 0 0 0 0 0
0 0 0 0 0 0 0 0 0 0 0 0 0 0 0 0 0 0 0 0 0 0 0 0 0 0 0 0 0 0 0 0 0 0 0 0 0 0 0 0 0 0 0
0 0 0 0 0 0 0 0 0 0 0 0 0 0 0 0 0 0 0 0 0 0 0 0 0 0 0 0 0 0 0 0 0 0 0 0 0 0 0 0 0 0 0
0 0 0 0 0 0 0 0 0 0 0 0 0 0 0 0 0 0 0 0 0 0 0 0 0 0 0 0 0 0 0 0 0 0 0 0 0 0 0 0 0 0 0
0 0 0 0 0 0 0 0 0 0 0 0 0 0 0 0 0 0 0 0 0 0 0 0 0 0 0 0 0 0 0 0 0 0 0 0 0 0 0 0 0 0 0
0 0 0 0 0 0 0 0 0 0 0 0 0 0 0 0 0 0 0 0 0 0 0 0 0 0 0 0 0 0 0 0 0 0 0 0 0 0 0 0 0 0 0
0 0 0 0 0 0 0 0 0 0 0 0 0 0 0 0 0 0 0 0 0 0 0 0 0 0 0 0 0 0 0 0 0 0 0 0 0 0 0 0 0 0 0
0 0 0 0 0 0 0 0 0 0 0 0 0 0 0 0 0 0 0 0 0 0 0 0 0 0 0 0 0 0 0 0 0 0 0 0 0 0 0 0 0 0 0
0 0 0 0 0 0 0 0 0 0 0 0 0 0 0 0 0 0 0 0 0 0 0 0 0 0 0 0 0 0 0 0 0 0 0 0 0 0 0 0 0 0 0
0 0 0 0 0 0 0 0 0 0 0 0 0 0 0 0 0 0 0 0 0 0 0 0 0 0 0 0 0 0 0 0 0 0 0 0 0 0 0 0 0 0 0
0 0 0 0 0 0 0 0 0 0 0 0 0 0 0 0 0 0 0 0 0 0 0 0 0 0 0 0 0 0 0 0 0 0 0 0 0 0 0 0 0 0 0
0 0 0 0 0 0 0 0 0 0 0 0 0 0 0 0 0 0 0 0 0 0 0 0 0 0 0 0 0 0 0 0 0 0 0 0 0 0 0 0 0 0 0
3 0 0 0 0 0 0 0 0 0 0 0 0 0 0 0 0 0 0 0 0 0 0 0 0 0 0 0 0 0 0 0 0 0 0 0 0 0 0 0 0 0 0

GFSGL_con_mlcape_021.txt.gz
CAPE
0 0 10 60 0 2 29 85 143 113 76 60 67 129 168 22 12 51 44 16 26 33 68 66 63 65 22 80 73 10 39 32 21 19 16 14 39 20 37 7 14 0 0
0 0 31 4 0 0 32 37 125 135 123 63 44 74 0 0 0 8 3 2 5 6 36 18 31 53 4 2 8 49 24 52 16 20 12 30 22 25 0 2 3 0 0
0 0 38 0 0 0 28 89 128 126 95 59 46 14 0 0 1 2 2 2 4 4 4 13 31 21 11 3 44 63 25 16 6 7 26 14 7 7 1 4 2 0 0
0 0 15 0 0 1 48 115 164 168 132 117 104 44 0 1 1 1 2 3 3 2 8 92 60 28 58 46 15 26 20 18 7 14 26 4 1 2 1 0 0 0 0
0 0 0 0 0 3 50 75 92 104 101 120 106 64 1 2 1 1 1 3 4 1 3 2 13 60 11 8 34 22 9 7 12 5 8 1 2 2 3 0 0 0 1
0 0 0 0 0 4 41 51 124 88 77 79 93 89 29 0 0 0 1 1 4 3 0 1 1 0 0 0 2 2 9 0 2 4 4 1 3 1 1 0 0 0 1
0 0 0 0 0 18 12 24 92 98 114 107 81 70 1 0 0 0 0 1 5 3 0 2 1 1 4 1 0 0 0 0 0 2 0 1 4 8 13 1 0 0 0
0 0 5 0 0 0 0 0 25 75 87 48 26 11 1 0 0 0 0 6 3 6 5 3 1 18 0 6 0 3 5 0 0 3 6 9 49 7 38 0 1 0 0
0 0 0 0 0 0 0 0 0 9 30 8 2 2 0 0 0 0 3 4 3 10 9 9 8 7 0 0 0 0 0 0 0 0 1 6 0 0 0 0 0 0 0
0 0 0 0 0 0 0 0 0 0 1 31 11 7 0 1 0 0 1 2 2 3 3 3 0 0 0 1 25 15 9 0 0 0 0 0 0 0 0 34 5 33 0
0 0 0 0 2 0 0 0 0 0 0 0 1 2 2 0 0 0 3 13 10 2 7 3 0 1 0 0 0 32 1 0 0 0 0 0 0 0 0 0 0 0 0
0 0 0 0 0 0 0 0 0 0 0 0 0 0 1 1 0 0 0 11 14 10 16 32 7 0 0 0 0 0 0 0 0 0 0 0 0 0 0 0 0 0 0
0 0 0 0 0 0 0 0 0 0 0 0 0 0 0 0 0 0 0 0 0 9 4 1 0 0 0 0 0 0 0 0 0 0 0 0 0 0 0 0 0 0 0
0 0 0 0 0 0 0 0 0 0 0 0 0 0 0 0 0 0 0 0 0 0 0 0 0 0 0 0 0 0 0 0 0 0 0 0 0 0 0 0 0 0 0
0 0 0 0 0 0 0 0 0 0 0 0 0 0 0 0 0 0 0 0 0 0 0 0 0 0 0 0 0 0 0 0 0 0 0 0 0 0 0 0 0 0 0
0 0 0 0 0 0 0 0 0 0 0 0 0 0 0 0 0 0 0 0 0 0 0 0 0 0 0 0 0 0 0 0 0 0 0 0 0 0 0 0 0 0 0
0 0 0 0 0 0 0 0 0 0 0 0 0 0 0 0 0 0 0 0 0 0 0 0 0 0 0 0 0 0 0 0 0 0 0 0 0 0 0 0 0 0 0
0 0 0 0 0 0 0 0 0 0 0 0 0 0 0 0 0 0 0 0 0 0 0 0 0 0 0 0 0 0 0 0 0 0 0 0 0 0 0 0 0 0 0
0 0 0 0 0 0 0 0 0 0 0 0 0 0 0 0 0 0 0 0 0 0 0 0 0 0 0 0 0 0 0 0 0 0 0 0 0 0 0 0 0 0 0
0 0 0 0 0 0 0 0 0 0 0 0 0 0 0 0 0 0 0 0 0 0 0 0 0 0 0 0 0 0 0 0 0 0 0 0 0 0 0 0 0 0 0
0 0 0 0 0 0 0 0 0 0 0 0 0 0 0 0 0 0 0 0 0 0 0 0 0 0 0 0 0 0 0 0 0 0 0 0 0 0 0 0 0 0 0
0 0 0 0 0 0 0 0 0 0 0 0 0 0 0 0 0 0 0 0 0 0 0 0 0 0 0 0 0 0 0 0 0 0 0 0 0 0 0 0 0 0 0
0 0 0 0 0 0 0 0 0 0 0 0 0 0 0 0 0 0 0 0 0 0 0 0 0 0 0 0 0 0 0 0 0 0 0 0 0 0 0 0 0 0 0
0 0 0 0 0 0 0 0 0 0 0 0 0 0 0 0 0 0 0 0 0 0 0 0 0 0 0 0 0 0 0 0 0 0 0 0 0 0 0 0 0 0 0
0 0 0 0 0 0 0 0 0 0 0 0 0 0 0 0 0 0 0 0 0 0 0 0 0 0 0 0 0 0 0 0 0 0 0 0 0 0 0 0 0 0 0
0 0 0 0 0 0 0 0 0 0 0 0 0 0 0 0 0 0 0 0 0 0 0 0 0 0 0 0 0 0 0 0 0 0 0 0 0 0 0 0 0 0 0

GFSGL_con_mlcape_024.txt.gz
CAPE
64 140 327 350 148 237 214 197 164 156 85 141 221 290 363 415 457 485 366 334 286 311 361 342 341 394 288 327 218 67 0 16 14 29 19 13 4 4 44 19 18 6 10
31 34 291 275 105 237 207 269 235 177 69 50 106 229 156 194 300 258 183 237 213 172 199 186 301 249 192 115 136 69 40 19 3 5 9 6 20 18 23 7 4 0 0
0 2 343 228 173 199 232 303 249 71 42 43 90 220 48 162 206 105 89 50 102 155 153 101 200 236 34 1 6 164 45 11 9 7 11 9 6 19 3 6 4 11 2
0 37 270 193 123 173 235 297 252 177 73 39 42 47 50 25 40 26 40 44 52 241 93 170 155 63 0 12 44 62 38 26 21 11 5 6 5 5 3 1 3 0 0
0 9 178 157 97 154 123 214 214 234 201 137 166 46 29 24 11 25 23 22 1 149 252 181 157 101 57 40 61 70 23 15 13 7 5 2 2 2 2 3 0 2 0
0 7 47 128 62 160 123 148 163 179 178 177 237 101 43 2 0 0 2 48 52 86 127 134 21 5 0 0 14 18 15 2 6 4 3 1 4 2 1 0 3 19 14
0 2 58 47 86 155 92 87 168 204 221 147 138 95 16 2 0 0 0 58 94 103 39 3 1 6 9 0 0 0 0 0 0 2 0 2 1 1 0 4 4 4 6
0 0 76 35 123 124 200 224 214 236 318 141 85 72 12 1 0 0 0 50 42 191 3 110 51 40 2 13 4 1 0 0 2 10 3 6 16 5 5 43 78 96 10
0 0 64 43 121 79 54 357 307 206 2 13 32 8 7 1 0 0 1 80 76 97 165 64 37 18 0 1 0 0 0 0 0 2 4 23 29 81 100 43 16 4 0
0 0 47 18 35 5 0 292 386 280 124 42 5 0 0 0 0 0 10 3 7 4 45 26 1 0 0 0 4 11 0 0 0 4 1 0 0 3 0 6 17 23 37
0 0 5 80 7 22 0 228 387 213 222 64 11 14 9 1 0 0 0 4 8 3 7 3 0 0 0 0 26 32 0 0 2 29 19 10 0 0 14 166 139 110 0
0 0 0 71 64 120 24 68 318 352 307 192 92 37 2 5 1 0 0 0 16 5 1 2 0 0 0 0 5 0 0 0 0 0 0 0 0 0 0 1 0 0 0
0 0 0 19 29 109 82 0 144 386 241 204 176 130 70 45 3 0 0 0 1 38 37 6 0 0 0 0 0 0 0 0 0 0 0 0 0 0 0 0 0 0 0
0 0 0 0 88 1 0 0 0 54 77 4 6 113 115 73 10 0 0 0 1 1 1 0 0 0 0 0 0 0 0 4 3 0 0 0 0 0 0 0 0 0 0
0 0 0 0 2 53 0 0 0 0 0 0 0 0 35 101 95 37 12 15 35 17 0 0 0 0 0 0 0 0 0 0 0 0 0 0 0 0 0 0 0 0 0
0 0 0 0 0 2 60 7 0 0 0 0 0 0 0 0 0 0 0 0 0 0 0 0 0 0 0 0 0 0 0 0 0 0 0 0 0 0 0 0 0 0 0
0 0 0 0 0 0 0 55 0 0 0 0 0 0 0 0 0 0 0 0 0 0 0 0 0 0 0 0 0 0 0 0 0 0 0 0 0 0 0 0 0 0 0
0 0 0 0 0 0 0 0 0 0 0 0 0 0 0 0 0 0 0 0 0 0 0 0 0 0 0 0 0 0 0 0 0 0 0 0 0 0 0 0 0 0 0
0 0 0 0 0 0 0 0 0 0 0 0 0 0 0 0 0 0 0 0 0 0 0 0 0 0 0 0 0 0 0 0 0 0 0 0 0 0 0 0 0 0 0
6 0 0 0 0 0 0 0 0 0 0 0 0 0 0 0 0 0 0 0 0 0 0 0 0 0 0 0 0 0 0 0 0 0 0 0 0 0 0 0 0 0 0
29 0 0 0 0 0 0 0 0 0 0 0 0 0 0 0 0 0 0 0 0 0 0 0 0 0 0 0 0 0 0 0 0 0 0 0 0 0 0 0 0 0 0
20 0 0 0 0 0 0 0 0 0 0 0 0 0 0 0 0 0 0 0 0 0 0 0 0 0 0 0 0 0 0 0 0 0 0 0 0 0 0 0 0 0 0
12 0 0 0 0 0 0 0 0 0 0 0 0 0 0 0 0 0 0 0 0 0 0 0 0 0 0 0 0 0 0 0 0 0 0 0 0 0 0 0 0 0 0
0 0 0 0 0 0 0 0 0 0 0 0 0 0 0 0 0 0 0 0 0 0 0 0 0 0 0 0 0 0 0 0 0 0 0 0 0 0 0 0 0 0 0
0 0 0 0 0 0 0 0 0 0 0 0 0 0 0 0 0 0 0 0 0 0 0 0 0 0 0 0 0 0 0 0 0 0 0 0 0 0 0 0 0 0 0
0 0 0 1 0 0 0 0 0 0 0 0 0 0 0 0 0 0 0 0 0 0 0 0 0 0 0 0 0 0 0 0 0 0 0 0 0 0 0 0 0 0 0

GFSGL_con_mlcape_027.txt.gz
CAPE
114 150 286 334 231 351 480 367 182 57 85 81 275 368 380 472 516 645 432 114 315 81 16 13 464 109 276 409 177 149 152 69 73 26 13 17 15 15 23 10 19 1 0
70 106 346 247 218 427 334 302 112 49 15 18 116 246 194 221 405 346 310 391 307 296 308 197 329 326 444 276 158 24 30 24 13 9 17 6 6 25 6 16 10 18 8
45 35 293 263 366 261 223 294 98 14 11 11 77 123 56 193 186 215 154 162 105 199 214 221 229 319 193 74 92 115 43 20 10 1 8 9 27 8 2 2 2 3 4
9 98 292 309 195 173 214 347 204 23 23 43 71 80 168 61 40 43 73 104 131 349 132 277 188 22 0 7 25 48 11 9 8 6 4 14 26 13 2 2 3 0 0
1 170 233 315 111 101 110 240 123 57 24 49 191 203 39 19 15 43 88 131 273 230 238 161 126 6 4 17 63 37 27 6 5 5 15 11 6 3 2 1 1 9 1
21 110 201 87 138 100 128 223 204 123 52 60 142 221 44 16 0 0 6 30 243 188 191 69 72 15 0 0 7 17 12 1 4 4 6 2 4 2 2 0 0 0 0
28 126 147 105 162 140 64 89 224 184 245 101 175 116 103 2 0 0 0 50 241 147 155 94 51 13 17 1 0 0 0 0 0 0 1 2 1 1 0 2 1 8 3
15 105 174 114 187 164 120 140 238 238 246 390 196 175 59 0 0 0 0 213 156 144 143 97 61 9 12 17 2 0 1 0 0 0 0 0 0 0 16 17 20 11 3
0 164 171 173 211 150 213 322 459 171 58 84 94 73 42 0 0 0 0 135 110 158 68 44 46 12 0 0 0 0 0 0 0 0 0 0 0 0 5 27 57 0 0
0 121 198 216 158 148 372 448 593 375 98 37 52 11 2 2 0 0 0 103 89 42 37 0 0 0 0 0 0 0 0 0 0 0 0 0 0 0 1 82 55 0 1
0 37 228 307 220 128 458 329 503 294 193 46 29 12 11 1 0 0 0 78 93 100 1 4 0 0 0 3 0 0 0 0 0 2 8 29 40 42 19 27 47 63 61
0 1 176 272 222 149 376 541 316 427 291 146 63 67 34 4 0 0 0 11 26 47 13 0 0 0 0 0 2 0 0 8 32 20 22 18 4 0 17 111 0 3 2
0 0 114 274 150 317 121 411 485 412 185 244 156 55 61 27 1 0 0 0 4 37 29 1 0 0 0 0 0 0 0 42 37 6 0 0 0 2 1 0 0 0 0
0 0 11 212 186 248 133 136 211 311 65 87 145 167 98 38 12 7 0 0 0 0 0 0 0 0 0 0 0 0 3 1 0 0 0 3 0 0 0 0 0 0 0
0 0 0 150 126 219 72 0 1 58 21 9 14 179 130 59 19 17 9 35 36 14 4 0 0 0 0 0 0 0 17 5 0 0 0 0 0 0 0 0 0 0 0
0 0 3 16 184 101 5 0 0 0 0 0 0 0 11 78 0 0 0 2 4 0 9 6 12 12 7 0 0 0 4 1 5 0 0 0 0 0 0 0 0 0 0
0 0 0 0 23 234 63 5 0 0 0 0 0 0 0 9 0 0 0 0 0 0 16 11 14 19 15 0 0 0 0 0 0 0 0 0 0 0 0 0 0 0 0
0 0 0 0 0 0 117 205 126 0 0 0 0 0 0 0 0 0 0 0 0 0 7 10 3 3 2 1 0 0 0 0 0 0 0 0 0 0 0 0 0 0 0
3 0 0 0 0 0 0 11 127 88 6 0 0 0 0 0 0 0 0 0 0 0 0 0 0 0 0 0 0 0 0 0 0 0 0 0 0 0 0 0 0 0 0
11 0 0 0 0 0 0 0 0 1 12 0 0 0 0 0 0 0 0 0 0 0 0 0 0 0 0 0 0 0 0 0 0 0 0 0 0 0 0 0 0 0 0
30 1 0 0 0 0 0 0 0 0 0 0 0 0 0 0 0 0 0 0 0 0 0 0 0 0 0 0 0 0 0 0 0 0 0 0 0 0 0 0 0 0 0
268 219 0 0 0 0 0 0 0 0 0 0 0 0 0 0 0 0 0 0 0 0 0 0 0 0 0 0 0 0 0 0 0 0 0 0 0 0 0 0 0 0 0
273 319 136 0 0 0 0 0 0 0 0 0 0 0 0 0 0 0 0 0 0 0 0 0 0 0 0 0 0 0 0 0 0 0 0 0 0 0 0 0 0 0 0
306 341 331 103 0 0 0 0 0 0 0 0 0 0 0 0 0 0 0 0 0 0 0 0 0 0 0 0 0 0 0 0 0 0 0 0 0 0 0 0 0 0 0
272 365 400 282 51 0 0 0 0 0 0 0 0 0 0 0 0 0 0 0 0 0 0 0 0 0 0 0 0 0 0 0 0 0 0 0 0 0 0 0 0 0 0
115 243 332 344 190 79 31 59 32 3 0 0 0 0 0 0 0 0 0 0 0 0 0 0 0 0 0 0 0 0 0 0 0 0 0 0 0 0 0 0 0 0 0

GFSGL_con_mlcape_030.txt.gz
CAPE
263 359 263 264 250 246 347 268 100 63 66 101 251 441 329 371 268 76 130 40 14 28 4 3 85 64 105 129 194 142 180 101 36 3 2 2 2 3 7 14 9 4 0
188 376 397 199 248 184 251 318 5 6 24 24 150 157 152 320 393 306 208 223 251 44 27 52 11 78 91 121 136 117 99 47 2 2 2 2 2 10 9 1 4 14 4
148 367 155 309 176 337 213 173 29 14 12 31 28 43 84 274 106 142 226 147 68 78 68 71 53 110 114 52 14 28 51 21 3 2 5 3 9 12 2 3 2 1 0
91 336 313 297 161 128 241 239 93 9 12 44 57 83 103 35 18 56 73 88 161 132 87 186 46 11 2 16 41 35 31 16 4 5 6 11 2 2 1 1 1 2 3
184 429 345 213 110 116 241 170 201 9 11 66 113 86 9 1 11 64 29 169 119 151 129 103 2 5 7 22 20 16 11 5 4 8 10 4 2 2 1 1 1 0 0
462 399 344 274 68 90 151 145 0 14 20 72 98 0 2 0 0 0 12 124 82 125 96 16 0 0 0 0 1 0 0 0 3 4 3 2 2 0 0 0 0 0 0
241 367 194 297 145 101 179 181 89 29 18 52 90 28 0 0 0 0 0 134 100 64 40 42 14 2 1 0 0 0 0 0 0 0 1 1 0 0 0 1 0 0 0
188 335 196 282 176 169 28 237 154 43 31 32 73 27 0 0 0 0 0 83 56 46 37 29 3 18 3 0 1 0 1 0 0 0 0 0 0 0 0 0 0 0 0
139 328 292 277 248 178 217 269 242 167 100 76 100 32 0 0 0 0 48 89 39 51 41 8 3 0 0 0 0 1 0 0 0 0 0 0 0 0 1 0 1 0 0
88 334 328 327 217 434 267 329 357 96 44 35 29 19 0 0 0 0 0 64 3 2 4 0 0 0 0 0 1 1 1 0 0 0 0 0 0 0 0 12 0 0 0
57 325 412 292 356 503 344 253 313 220 9 6 14 7 11 1 0 0 0 29 14 0 0 0 0 0 0 0 0 0 0 0 0 0 0 0 0 0 3 27 36 0 0
29 230 524 525 367 684 460 287 424 258 85 26 25 23 7 2 0 0 0 6 1 4 0 0 0 0 0 0 0 0 0 3 7 9 5 0 0 0 37 10 3 1 6
6 281 492 375 331 456 702 459 479 341 136 93 37 38 9 1 0 0 0 3 5 1 0 0 0 0 0 0 0 0 0 9 2 6 4 0 0 0 0 0 0 0 0
30 327 461 379 474 297 494 616 500 436 427 365 144 23 1 5 0 0 0 1 0 0 0 0 0 0 0 0 0 0 15 7 0 0 0 0 0 0 0 0 0 0 0
67 229 457 425 528 403 220 234 468 101 336 495 374 175 24 1 0 0 0 0 0 0 0 0 0 0 0 0 0 0 6 19 0 0 0 0 0 0 0 0 0 0 0
92 142 303 382 426 349 109 0 0 0 0 0 107 259 92 27 0 0 0 0 0 0 0 0 0 0 0 0 0 0 3 0 0 1 3 0 0 0 0 0 0 0 0
53 124 103 324 235 340 227 0 0 0 0 0 0 22 25 0 0 0 0 0 0 0 36 11 0 0 0 0 0 0 4 3 10 1 0 0 0 0 0 0 0 0 0
0 27 90 49 291 346 79 101 0 0 0 0 0 0 0 0 0 0 0 0 0 0 35 37 36 54 16 0 0 0 0 0 0 2 0 0 0 0 0 0 0 0 0
6 5 5 0 85 80 314 186 104 0 0 0 0 0 0 0 0 0 0 7 3 1 0 47 99 71 6 3 0 0 0 0 0 0 0 0 0 0 0 0 0 0 0
95 7 0 6 0 1 6 181 268 165 1 0 0 0 0 0 0 0 0 3 44 33 26 4 20 0 0 0 0 0 0 0 0 0 0 0 0 0 0 0 0 0 0
155 0 0 0 0 0 0 0 9 146 187 10 0 0 0 0 0 0 0 0 0 0 0 0 0 0 0 0 0 0 0 0 0 0 0 0 0 0 0 0 0 0 0
95 106 0 0 6 0 0 0 0 0 0 94 5 0 0 0 0 0 0 0 0 0 0 0 0 0 0 0 0 0 0 0 0 0 0 0 0 0 0 0 0 0 0
254 199 155 0 0 1 0 0 0 0 0 0 0 0 0 0 0 0 0 0 0 0 0 0 0 0 0 0 0 0 0 0 0 0 0 0 0 0 0 0 0 0 0
377 534 488 125 0 3 0 0 0 0 0 0 0 0 0 0 0 0 0 0 0 0 0 0 0 0 0 0 0 0 0 0 0 0 0 0 0 0 0 0 0 0 0
566 488 651 582 205 8 81 0 0 0 0 0 0 0 0 0 0 0 0 0 0 0 0 0 0 0 0 0 0 0 0 0 0 0 0 0 0 0 0 0 0 0 0
316 631 537 818 603 296 44 146 5 0 0 0 0 0 0 0 0 0 0 0 0 0 0 0 0 0 0 0 0 0 0 0 0 0 0 0 0 0 0 0 0 0 0

GFSGL_con_mlcape_033.txt.gz
CAPE
201 151 171 170 167 168 133 95 82 64 43 134 236 222 113 157 157 14 44 48 12 15 11 16 46 79 120 42 61 0 88 19 30 27 46 6 1 3 4 4 14 14 3
149 231 126 197 202 51 87 52 0 13 1 1 90 138 117 100 44 23 1 8 40 10 4 21 14 74 91 107 53 92 73 18 14 38 3 3 2 3 8 11 2 4 2
197 194 162 93 80 81 127 3 0 2 10 34 89 51 40 37 28 72 63 51 22 24 21 20 24 64 46 54 67 38 18 2 1 3 3 3 8 9 4 3 3 1 1
171 173 115 91 66 84 67 10 9 16 10 26 76 67 16 0 0 0 6 57 93 29 19 31 22 28 10 24 35 24 5 2 2 2 3 5 1 2 1 1 3 3 1
121 227 105 77 42 47 41 60 145 17 23 76 15 0 0 0 1 0 4 48 71 44 19 0 2 8 21 11 16 24 24 7 2 3 2 2 2 2 1 2 1 1 1
231 235 101 26 43 97 108 48 29 10 37 34 0 0 0 0 0 0 3 42 65 18 3 0 0 0 6 7 8 3 0 0 2 2 2 1 2 1 3 2 1 0 1
277 274 120 29 19 33 65 0 6 21 28 11 0 0 0 0 0 0 0 41 30 0 0 0 2 0 0 0 0 0 0 0 0 0 0 1 0 1 1 1 0 0 0
286 276 205 244 97 107 110 8 14 0 3 29 6 0 0 0 0 0 0 0 0 4 0 0 0 1 1 1 1 1 1 0 0 0 0 0 0 0 0 0 0 0 0
321 265 303 215 170 51 92 40 20 15 2 41 0 0 0 0 0 0 0 0 0 1 0 0 0 0 0 0 1 1 0 0 0 0 0 0 0 0 0 0 0 0 0
273 298 277 178 125 145 51 7 24 15 9 22 6 0 0 0 0 0 0 0 0 0 0 0 0 0 0 0 0 0 1 0 0 0 0 0 0 0 0 0 0 0 0
213 288 324 220 367 257 102 125 3 0 4 4 4 0 0 0 0 0 1 2 0 0 0 0 0 0 0 0 0 0 0 0 0 0 0 0 0 0 0 0 0 0 0
241 325 293 239 436 276 177 156 79 0 1 8 11 0 0 0 0 0 6 0 0 0 0 0 0 0 0 0 0 0 0 0 2 1 0 0 0 0 0 4 0 0 0
272 298 361 412 426 261 174 338 47 0 0 0 3 0 0 0 0 0 0 2 0 0 0 0 0 0 0 0 0 0 1 1 1 1 0 0 0 0 2 0 0 0 0
337 397 387 416 448 366 250 204 224 90 1 0 4 0 0 0 0 0 0 0 0 0 0 0 0 0 0 0 0 0 2 0 0 0 0 0 0 0 0 0 0 0 0
326 321 307 241 324 522 340 240 262 266 164 46 2 0 0 0 0 0 0 0 0 0 0 0 0 0 0 0 0 1 4 0 0 0 0 0 0 0 0 0 0 0 0
280 296 346 329 245 157 44 0 0 0 5 200 40 0 0 0 0 0 0 0 0 0 0 0 0 0 0 1 0 0 0 0 0 0 0 0 0 0 0 0 0 0 0
112 295 254 397 348 179 2 0 0 0 0 173 103 20 0 0 0 0 0 0 0 0 0 0 0 0 0 0 0 0 0 0 0 0 0 0 0 0 0 0 0 0 0
13 119 146 218 349 258 109 0 0 0 0 18 0 0 0 0 0 0 0 0 0 0 0 0 0 0 0 0 0 0 0 0 0 0 0 0 0 0 0 0 0 0 0
6 18 21 110 178 222 162 13 0 0 0 0 0 0 0 0 0 0 0 0 0 0 0 2 0 0 0 0 0 0 0 0 0 0 0 0 0 0 0 0 0 0 0
0 0 2 0 123 118 118 42 1 0 0 0 0 0 0 0 0 0 0 0 0 0 0 1 0 6 0 0 0 0 0 0 0 0 0 0 0 0 0 0 0 0 0
0 0 0 0 0 56 31 109 40 0 0 0 0 0 0 0 0 0 0 0 0 0 0 0 0 0 0 0 0 0 0 0 0 0 0 0 0 0 0 0 0 0 0
9 0 0 0 0 0 0 0 109 82 0 0 0 0 0 0 0 0 0 0 0 0 0 0 0 0 0 0 0 0 0 0 0 0 0 0 0 0 0 0 0 0 0
45 0 0 0 0 0 0 0 0 0 8 0 0 0 0 0 0 0 0 0 0 0 0 0 0 0 0 0 0 0 0 0 0 0 0 0 0 0 0 0 0 0 0
32 62 0 0 0 0 0 0 0 0 0 0 2 0 0 0 0 0 0 0 0 0 0 0 0 0 0 0 0 0 0 0 0 0 0 0 0 0 0 0 0 0 0
175 88 84 16 0 0 0 0 0 0 0 0 0 0 0 0 0 0 0 0 0 0 0 0 0 0 0 0 0 0 0 0 0 0 0 0 0 0 0 0 0 0 0
146 148 227 205 69 20 4 0 0 0 0 0 0 0 0 0 0 0 0 0 0 0 0 0 0 0 0 0 0 0 0 0 0 0 0 0 0 0 0 0 0 0 0

GFSGL_con_mlcape_036.txt.gz
CAPE
88 55 61 168 130 81 7 11 0 0 0 0 85 97 26 22 65 39 23 19 0 0 8 23 19 34 13 11 16 23 12 14 26 56 80 30 6 2 3 2 2 1 0
35 72 63 81 103 13 14 0 0 0 0 8 120 77 69 23 0 0 1 1 1 0 0 11 9 38 58 44 10 15 18 20 18 36 13 2 2 3 3 3 14 16 11
48 116 79 84 51 4 1 0 0 0 1 8 80 120 30 0 12 37 24 33 25 4 13 10 53 33 40 12 0 5 0 0 20 0 1 2 2 4 8 4 1 1 1
89 34 45 24 8 0 0 0 0 5 16 26 50 25 0 0 0 0 0 26 23 12 8 15 21 18 16 8 9 3 2 2 2 1 3 3 4 4 1 1 2 2 1
82 56 8 6 6 0 0 0 3 27 20 34 13 0 0 0 0 0 15 39 22 2 10 7 16 3 23 24 27 11 2 7 3 3 3 3 2 2 1 1 2 2 0
77 112 61 17 3 0 0 0 23 19 23 22 3 0 0 0 0 0 7 59 9 8 3 0 2 5 1 6 14 5 4 0 2 2 2 2 2 1 2 1 1 1 0
120 99 45 6 7 1 0 0 11 15 23 1 0 0 0 0 0 0 3 29 0 0 0 2 1 0 0 0 0 0 0 0 0 0 1 1 1 2 1 3 2 0 0
167 102 15 0 0 0 0 0 3 26 14 0 0 0 0 0 0 0 5 7 0 0 0 1 0 1 0 1 1 1 1 1 0 0 0 0 0 1 0 0 0 0 0
191 117 41 30 12 4 1 0 0 3 4 0 0 0 0 0 0 0 0 0 0 0 1 2 0 1 0 0 1 0 1 0 0 0 0 0 0 0 0 0 0 0 0
141 99 88 51 44 23 0 0 0 0 15 3 0 0 0 0 0 0 0 0 0 0 0 0 0 0 0 0 1 0 1 0 0 0 0 0 0 0 0 0 0 0 0
147 141 114 69 35 33 0 0 0 0 1 0 0 0 0 0 0 0 0 0 0 0 0 0 0 0 0 0 0 0 0 0 0 0 1 0 0 0 0 0 0 0 0
165 151 127 99 122 83 15 0 0 0 7 4 0 0 0 0 0 0 1 0 0 0 0 0 0 0 0 0 0 0 0 0 0 0 0 0 0 0 0 0 0 0 0
152 131 149 220 232 76 29 0 0 0 0 7 3 0 0 0 0 0 0 0 0 0 0 0 0 0 0 0 0 0 0 0 0 0 0 0 0 0 0 0 0 0 0
119 180 187 205 208 114 72 49 0 0 0 0 0 0 0 0 0 0 0 0 0 0 0 0 0 0 0 0 0 0 1 1 0 0 0 0 0 0 0 0 0 0 0
145 165 151 224 167 113 118 78 10 0 0 0 0 0 0 0 0 0 0 0 0 0 0 0 0 0 0 1 1 1 0 0 0 0 0 0 0 0 0 0 0 0 0
172 181 238 269 205 106 44 16 0 6 0 0 0 0 0 0 0 0 0 0 0 0 0 0 0 2 2 2 1 0 0 0 0 0 0 0 0 0 0 0 0 0 0
136 176 177 224 205 63 46 128 166 0 0 0 0 0 0 0 0 0 0 0 0 0 0 0 0 0 1 1 0 1 1 0 0 0 0 0 0 0 0 0 0 0 0
77 103 124 131 140 38 0 42 52 0 45 110 0 0 0 0 0 0 0 0 0 0 0 0 0 0 0 0 0 0 0 0 0 0 0 0 0 0 0 0 0 0 0
44 49 111 137 97 35 0 0 0 0 59 91 12 0 0 0 0 0 0 0 0 0 0 0 0 0 0 0 0 0 0 0 0 0 0 0 0 0 0 0 0 0 0
3 10 22 64 78 75 17 0 0 0 0 23 46 40 0 0 0 0 0 0 0 0 0 0 0 0 0 0 0 0 0 0 0 0 0 0 0 0 0 0 0 0 0
0 0 0 4 8 66 79 25 0 0 0 0 0 0 0 0 0 0 0 0 0 0 0 0 0 0 0 0 0 0 0 0 0 0 0 0 0 0 0 0 0 0 0
0 0 0 0 0 0 30 27 3 0 0 0 0 0 0 0 0 0 0 0 0 0 0 0 0 0 0 0 0 0 0 0 0 0 0 0 0 0 0 0 0 0 0
0 0 0 0 0 0 0 0 5 0 0 0 0 0 0 0 0 0 0 0 0 0 0 0 0 0 0 0 0 0 0 0 0 0 0 0 0 0 0 0 0 0 0
0 0 0 0 0 0 0 0 0 0 0 0 0 0 0 0 0 0 0 0 0 0 0 0 0 0 0 0 0 0 0 0 0 0 0 0 0 0 0 0 0 0 0
132 13 0 0 0 0 0 0 0 0 0 0 0 0 0 0 0 0 0 0 0 0 0 0 0 0 0 0 0 0 0 0 0 0 0 0 0 0 0 0 0 0 0
9 196 71 4 0 0 0 0 0 0 0 0 0 0 0 0 0 0 0 0 0 0 0 0 0 0 0 0 0 0 0 0 0 0 0 0 0 0 0 0 0 0 0

GFSGL_con_mlcape_039.txt.gz
CAPE
13 18 27 60 70 29 8 0 0 0 0 0 0 0 10 3 0 0 1 6 9 1 17 21 17 13 13 3 3 0 0 0 14 70 35 23 2 0 1 0 1 2 1
0 0 25 28 34 12 0 0 0 0 0 0 20 45 2 18 0 0 0 7 5 0 0 1 15 23 18 18 19 24 7 6 13 22 23 14 2 1 1 1 2 2 0
0 4 8 38 38 1 0 0 0 0 0 0 13 11 21 3 2 0 0 2 9 11 0 7 11 42 59 49 8 20 18 15 0 5 4 3 3 2 3 3 3 1 1
5 42 38 38 7 0 0 0 0 0 0 1 4 27 1 0 0 0 0 8 6 2 22 23 19 22 23 16 0 1 4 3 3 2 2 3 2 7 4 1 1 0 0
25 25 43 21 0 0 0 0 0 2 3 15 13 2 0 0 0 0 5 20 5 0 5 11 16 10 9 1 0 2 1 1 3 2 3 4 3 2 1 2 1 1 1
35 5 15 7 0 0 0 0 0 13 16 20 5 0 0 0 0 0 3 31 10 0 0 1 6 4 2 8 4 1 1 0 1 3 3 1 2 1 2 1 0 0 0
46 38 38 25 0 0 0 1 12 14 6 3 0 0 0 0 0 0 0 7 0 0 0 0 0 0 0 1 3 3 0 0 0 0 0 1 1 2 1 3 1 0 0
86 75 50 12 0 0 0 0 1 0 0 0 0 0 0 0 0 0 0 0 0 0 1 1 1 0 0 0 0 0 1 0 0 0 0 1 1 1 0 0 0 0 0
95 72 31 8 0 0 0 0 0 0 0 0 0 0 0 0 0 0 0 0 1 1 2 0 0 0 0 1 1 0 0 0 0 0 0 0 0 0 0 0 0 0 0
116 56 28 9 0 0 0 0 0 0 0 0 0 0 0 0 0 0 0 0 0 0 0 0 0 0 0 0 0 0 0 0 0 0 0 0 0 0 0 0 0 0 0
94 54 28 47 21 1 0 0 0 0 0 0 0 0 0 0 0 0 0 0 0 0 0 0 0 0 0 0 0 0 0 1 1 1 2 1 0 0 0 0 0 0 0
89 57 59 54 44 2 0 0 0 0 0 0 0 0 0 0 0 0 0 0 0 0 0 0 0 0 0 0 0 0 0 0 1 1 2 1 2 0 0 0 0 0 0
80 60 92 57 49 7 0 0 0 5 8 2 0 0 0 0 0 0 0 0 0 0 0 0 0 0 0 0 0 0 0 0 0 0 1 0 0 0 0 0 0 0 0
61 97 127 115 88 25 0 0 0 0 1 1 0 0 0 0 0 0 0 0 0 0 0 0 0 0 0 0 0 0 0 0 0 0 0 0 0 0 0 0 0 0 0
41 141 156 122 103 25 0 0 0 0 0 0 0 0 0 0 0 0 0 0 0 0 0 1 1 0 0 1 2 0 0 0 0 0 0 0 0 0 0 0 0 0 0
27 151 184 124 93 24 0 0 0 0 0 0 0 0 0 0 0 0 0 0 0 0 0 0 0 0 2 2 2 1 0 0 0 0 0 0 0 0 0 0 0 0 0
43 149 173 128 121 16 0 7 4 0 0 0 0 0 0 0 0 0 0 0 0 0 0 0 0 0 0 1 2 0 0 0 0 0 0 0 0 0 0 0 0 0 0
22 109 174 176 168 34 0 0 19 8 23 0 0 0 0 0 0 0 0 0 0 0 0 0 1 0 0 0 0 2 0 0 0 0 0 0 0 0 0 0 0 0 0
0 39 153 183 167 77 9 0 35 64 14 0 0 0 0 0 0 0 0 0 0 0 0 0 0 0 1 0 0 0 0 0 0 0 0 0 0 0 0 0 0 0 0
0 0 59 141 111 59 4 0 0 0 0 0 34 4 0 0 0 0 0 0 0 0 0 0 0 0 0 0 0 0 0 0 0 0 0 0 0 0 0 0 0 0 0
0 0 3 56 53 49 5 0 0 0 0 0 28 0 0 0 0 0 0 0 0 0 0 0 0 0 0 0 0 0 0 0 0 0 0 0 0 0 0 0 0 0 0
0 0 0 7 23 28 16 0 0 0 0 0 0 0 0 0 0 0 0 0 0 0 0 0 0 0 0 0 0 0 0 0 0 0 0 0 0 0 0 0 0 0 0
2 0 0 0 0 1 0 2 0 0 0 0 0 0 0 0 0 0 0 0 0 0 0 0 0 0 0 0 0 0 0 0 0 0 0 0 0 0 0 0 0 0 0
0 0 0 0 0 0 0 0 0 0 0 0 0 0 0 0 0 0 0 0 0 0 0 0 0 0 0 0 0 0 0 0 0 0 0 0 0 0 0 0 0 0 0
0 0 0 0 0 0 0 0 0 0 0 0 0 0 0 0 0 0 0 0 0 0 0 0 0 0 0 0 0 0 0 0 0 0 0 0 0 0 0 0 0 0 0
0 9 3 0 0 0 0 0 0 0 0 0 0 0 0 0 0 0 0 0 0 0 0 0 0 0 0 0 0 0 0 0 0 0 0 0 0 0 0 0 0 0 0

GFSGL_con_mlcape_045.txt.gz
CAPE
382 187 127 140 166 211 245 219 256 223 188 159 111 62 99 198 375 348 258 189 116 50 15 93 126 122 155 133 43 136 123 138 17 39 20 5 1 0 18 12 5 1 0
198 175 147 122 130 148 160 157 79 4 5 2 26 87 184 300 343 301 235 139 62 13 3 4 17 90 160 39 36 134 80 170 149 29 1 1 2 2 3 2 4 4 4
129 128 111 77 76 96 99 40 0 2 12 40 182 229 176 258 186 209 117 80 45 16 1 3 0 39 96 29 62 64 186 185 109 0 0 3 3 2 3 3 3 3 3
86 75 28 36 72 88 100 7 24 28 62 234 260 270 225 121 130 198 180 56 18 5 4 1 4 32 50 4 61 121 317 195 6 0 2 4 3 2 3 3 2 2 1
1 0 31 76 88 84 64 14 46 33 71 162 212 208 80 12 0 12 62 17 8 0 16 22 30 103 97 152 152 138 241 30 5 1 2 3 3 3 2 3 1 2 1
0 8 48 71 83 111 49 5 0 3 41 121 68 9 0 0 0 0 0 171 49 4 1 27 1 1 0 2 45 81 130 23 2 1 3 2 4 2 4 4 2 0 0
6 29 59 86 93 80 27 0 10 30 53 54 16 0 0 0 0 0 0 63 28 6 3 7 1 0 1 1 0 1 8 0 17 4 1 3 3 3 3 3 2 1 0
15 46 71 88 81 68 0 0 22 22 38 34 12 0 0 0 0 0 0 14 7 26 1 3 3 2 0 0 1 2 5 2 0 13 6 2 1 3 2 1 2 1 2
23 42 66 96 96 49 1 12 7 35 34 18 1 0 3 0 0 0 1 3 3 4 3 0 1 0 0 0 2 2 2 0 0 0 1 0 0 0 0 0 0 1 1
47 81 100 78 112 103 53 6 11 18 31 6 0 1 0 0 0 0 1 0 2 0 1 0 0 0 0 0 0 1 0 0 0 0 0 0 0 0 0 0 0 0 0
124 136 120 121 169 122 29 30 31 46 39 12 0 3 1 1 0 0 0 4 2 1 0 0 0 0 0 0 0 0 0 1 1 2 2 1 0 0 0 0 0 0 0
126 132 108 175 93 39 31 37 61 57 23 4 0 1 1 1 0 0 0 0 0 2 0 0 0 0 0 0 1 0 0 2 3 3 3 2 2 2 0 0 0 0 0
175 161 140 211 206 144 79 51 87 86 73 0 0 0 0 1 0 0 0 0 0 0 0 0 0 0 0 0 0 0 1 2 3 3 3 4 1 1 0 1 0 0 0
235 189 173 308 256 229 167 71 48 72 57 5 0 0 0 3 1 0 0 0 0 0 0 0 0 0 1 0 0 1 2 2 1 2 3 3 4 3 1 0 0 0 0
227 227 273 315 324 260 136 36 77 62 53 2 8 0 0 1 1 0 0 1 1 0 0 1 1 2 1 2 3 3 3 2 3 3 3 3 3 0 0 0 0 0 0
163 280 317 325 322 149 0 0 0 1 0 0 0 1 0 0 0 0 0 0 0 0 2 2 1 3 3 1 2 3 3 3 4 3 5 5 5 4 5 0 0 0 0
131 297 280 401 399 207 59 57 19 0 0 0 0 0 0 0 0 0 0 0 0 1 1 1 0 2 2 3 2 3 1 3 3 4 8 9 7 5 1 0 0 0 0
157 85 257 426 459 349 222 194 132 108 65 7 0 0 0 0 0 0 0 0 1 1 2 1 1 2 9 3 1 6 6 4 3 4 5 3 2 2 0 0 0 0 0
109 74 254 452 491 374 255 188 150 126 179 75 0 0 0 0 0 0 0 3 0 2 1 2 3 2 6 14 7 4 4 4 3 2 4 2 1 0 0 0 0 0 0
28 29 133 382 424 350 316 147 157 168 180 11 9 2 0 0 0 0 0 5 5 6 6 4 0 2 2 3 4 3 2 1 1 3 1 1 0 0 0 0 0 0 0
21 8 53 316 381 403 396 290 98 118 169 36 141 0 0 0 1 0 0 1 2 1 1 2 2 6 5 2 0 0 0 3 2 0 2 0 0 0 0 0 0 0 0
33 8 11 166 290 328 371 368 283 91 90 100 98 0 0 0 0 0 0 0 0 0 0 0 0 0 0 0 0 1 1 1 2 1 0 0 0 0 0 0 0 1 0
50 28 26 109 194 180 174 308 284 216 81 43 55 0 0 0 30 1 0 0 0 8 6 0 0 0 0 0 0 0 0 0 0 0 0 0 0 0 0 0 0 0 0
52 49 46 80 108 125 165 242 235 119 144 68 21 10 0 0 24 73 60 17 4 0 3 3 0 3 0 0 0 0 0 0 0 0 0 0 0 0 0 0 0 0 0
0 2 22 17 17 53 81 143 174 163 84 64 33 6 4 0 0 0 34 48 40 14 6 3 3 2 1 0 0 0 0 0 0 0 0 0 0 0 0 0 0 0 0
4 1 2 1 0 0 0 0 0 0 0 0 1 1 0 0 0 0 0 0 0 2 3 2 1 0 2 4 3 0 0 0 0 0 0 0 0 0 0 0 0 0 0

GFSGL_con_mlcape_048.txt.gz
CAPE
1429 1322 1251 1010 808 730 769 863 960 948 899 768 684 550 402 339 237 239 230 275 326 346 120 9 248 335 361 357 341 252 51 104 13 268 95 16 23 53 153 322 309 53 17
1228 1024 778 700 734 828 782 768 773 626 458 345 213 169 176 102 303 430 332 116 224 288 12 19 65 204 309 433 189 50 371 377 56 36 2 1 1 2 1 1 3 3 3
659 660 679 679 691 684 611 477 312 216 140 80 91 103 130 208 329 363 288 221 239 127 12 1 5 44 219 265 34 364 381 468 156 22 0 3 2 3 3 3 3 3 2
565 582 575 487 388 284 299 197 163 159 90 117 167 212 300 321 261 231 220 202 52 38 18 0 0 1 172 109 389 346 331 289 109 5 0 2 3 4 4 4 4 3 2
339 234 104 84 177 295 246 219 223 89 100 162 266 297 345 288 107 190 157 171 133 0 19 17 3 14 100 71 213 384 471 240 15 2 1 2 4 3 2 3 2 2 1
0 0 52 174 272 351 313 267 103 92 197 207 244 288 303 1 0 0 0 294 67 3 7 12 28 26 49 10 51 325 371 87 30 2 2 2 4 4 3 3 0 0 1
0 23 173 250 307 302 245 153 63 131 251 241 242 269 83 18 0 0 0 301 163 12 1 8 2 13 39 107 24 66 47 22 57 50 3 3 3 5 2 3 3 2 0
2 76 163 221 203 186 184 150 102 157 131 168 290 166 121 0 0 0 0 156 94 53 1 5 1 1 8 82 129 122 82 67 69 65 2 2 2 4 4 2 2 2 2
37 112 141 144 195 124 137 117 144 81 189 309 198 123 179 0 0 0 0 106 109 47 2 1 4 1 0 0 63 56 62 12 0 13 4 0 0 1 0 1 2 1 3
56 106 139 107 181 114 139 166 104 129 228 158 104 51 0 0 0 0 2 11 57 4 1 0 0 5 0 0 23 4 3 0 0 0 0 0 0 0 0 0 0 1 2
93 142 159 146 243 265 255 173 147 39 156 134 88 2 3 5 0 0 0 50 21 1 3 0 0 0 0 0 18 20 4 3 1 3 2 2 1 1 0 0 0 0 7
164 171 201 415 307 328 346 211 148 205 279 143 58 2 3 3 0 0 0 1 0 1 2 0 0 0 0 0 1 0 0 1 3 4 4 2 2 3 0 0 0 0 17
188 202 316 399 364 362 315 266 308 251 200 152 28 11 3 2 1 0 0 0 0 2 1 0 0 0 0 0 0 0 0 3 4 4 2 3 2 2 0 0 0 18 0
282 316 379 440 409 401 309 315 286 245 163 56 30 15 7 2 5 5 0 0 0 0 0 0 0 1 0 0 0 0 7 3 3 3 3 3 3 11 7 10 5 12 8
355 417 355 469 448 420 272 142 192 264 130 55 39 18 3 7 6 10 9 5 2 0 0 3 3 3 2 3 3 2 3 2 2 2 2 1 3 7 3 4 18 2 0
408 446 463 387 465 393 256 78 0 0 0 0 0 9 1 1 0 0 0 0 0 0 3 3 4 3 3 5 3 3 2 2 2 2 6 6 6 9 12 4 4 0 0
239 295 200 165 166 244 219 230 36 0 0 0 0 0 0 0 0 0 0 0 0 1 2 3 4 3 2 1 1 1 0 0 3 6 7 12 12 6 4 7 6 2 0
258 322 214 175 99 80 229 333 350 159 44 1 0 0 0 0 0 0 0 0 1 2 0 7 12 10 5 4 8 9 13 15 16 13 15 17 8 5 9 12 0 0 0
274 216 148 232 246 56 42 151 203 347 296 134 0 0 0 0 0 0 0 5 3 2 1 1 17 12 7 8 9 17 13 14 12 9 15 20 9 16 17 4 0 0 0
110 90 209 248 424 281 15 62 149 379 338 238 25 2 0 0 0 0 0 12 6 4 3 2 2 23 8 11 15 5 7 6 3 10 10 12 16 17 18 2 1 2 0
34 172 225 251 297 266 141 2 70 120 261 118 195 2 0 2 3 1 8 6 6 10 0 0 4 14 16 6 2 4 5 4 15 7 20 20 25 16 5 2 0 1 0
11 91 98 158 199 221 217 150 28 9 59 74 221 0 0 2 17 1 1 8 19 29 28 25 17 8 10 8 8 6 3 5 7 1 8 11 7 3 0 0 1 4 6
22 76 54 64 122 152 344 317 193 63 10 6 73 0 0 20 17 12 12 27 50 126 79 16 9 5 5 4 12 15 3 0 0 3 0 13 21 13 3 2 3 9 27
170 89 96 181 227 265 360 451 412 234 72 60 74 42 69 125 213 198 232 227 176 151 144 154 151 127 42 19 21 5 0 8 34 37 41 48 86 84 45 81 85 73 45
362 365 296 338 333 435 458 571 558 513 359 206 205 268 264 307 407 453 537 542 534 457 398 361 336 249 162 153 123 86 50 0 0 0 23 52 45 34 49 55 36 18 3
2 2 1 0 92 194 265 280 240 306 428 390 325 290 219 203 121 109 102 117 218 331 329 325 286 175 112 0 0 0 0 0 0 0 0 0 10 27 27 17 8 2 0

GFSGL_con_mlcape_054.txt.gz
CAPE
2052 2189 2531 2368 2906 2794 2586 2106 2023 2052 1887 1535 1449 1099 945 888 798 375 387 550 89 213 153 60 260 332 259 141 306 53 86 42 27 38 69 165 106 147 316 135 72 14 48
2413 2527 2688 2431 2276 2237 1637 1386 1139 1151 1043 936 933 619 636 819 435 344 192 370 171 86 187 71 12 31 105 73 200 78 111 70 1 50 15 26 31 113 154 114 12 0 0
2295 2123 1879 1665 1810 1508 1311 1178 1004 774 598 461 702 428 595 339 155 111 128 168 205 202 162 111 1 9 11 5 109 121 86 58 30 11 0 1 1 0 0 0 0 0 1
1752 1620 1614 1485 1306 1244 1131 891 756 439 345 366 293 215 163 179 177 110 215 268 211 175 120 7 1 0 18 32 81 197 68 46 30 0 2 1 1 2 0 0 0 2 3
1319 1246 1336 1280 1150 1004 797 607 280 334 249 204 228 177 133 84 161 205 193 267 257 72 2 1 0 0 7 5 68 138 48 107 0 0 4 0 0 1 0 3 0 2 2
1073 1242 1232 1010 840 605 390 298 263 239 229 223 88 61 20 0 0 2 137 233 208 28 0 0 1 4 0 1 19 64 106 40 0 2 3 0 2 1 3 1 1 1 1
1078 992 731 485 379 409 372 225 103 179 211 86 136 185 109 0 0 0 0 208 145 37 0 1 3 12 19 14 0 25 98 18 0 1 1 0 0 3 2 3 1 0 0
620 402 270 295 239 348 203 80 150 92 153 176 174 193 67 0 0 0 0 184 96 16 0 11 7 60 80 64 9 83 42 0 0 2 0 1 0 1 1 0 0 1 2
308 237 291 375 429 226 162 101 146 147 174 94 287 146 22 0 0 0 0 73 47 0 0 3 3 27 29 31 145 96 10 0 1 0 0 0 0 0 0 0 0 0 3
255 174 446 591 383 145 238 269 194 190 319 381 221 269 14 0 0 0 2 43 6 0 1 0 0 3 0 5 142 48 5 0 0 0 0 0 0 0 0 0 0 2 1
166 195 456 426 308 235 288 181 155 208 325 232 195 14 15 1 0 0 0 18 6 2 0 0 0 0 0 13 95 10 0 0 0 1 1 0 0 0 0 0 0 0 0
166 539 475 209 190 266 343 239 245 214 237 194 0 26 14 0 0 0 0 1 2 0 1 0 0 0 0 3 4 0 0 0 2 2 1 1 1 0 0 0 0 0 0
589 578 459 280 253 343 276 265 224 132 253 217 0 1 3 2 0 0 0 0 1 0 0 0 0 0 0 0 0 0 0 1 1 1 1 1 1 0 0 0 0 0 0
620 507 515 462 302 253 364 258 304 239 153 198 98 13 1 6 0 0 0 0 0 0 0 0 0 0 0 0 0 0 5 0 0 1 1 0 0 0 0 0 0 5 0
480 342 344 208 315 191 39 131 326 5 120 193 113 22 0 2 5 2 0 1 0 0 1 2 0 0 0 0 0 2 1 0 0 0 2 0 0 0 0 0 0 0 8
345 314 350 378 296 201 169 2 0 0 0 0 0 5 0 0 0 0 0 0 0 0 2 0 0 0 0 1 1 4 0 1 1 1 2 0 0 0 0 0 0 0 0
413 427 246 280 395 249 345 172 0 0 0 0 0 0 0 0 0 0 0 0 0 0 0 2 1 1 2 2 3 2 3 1 0 0 1 1 0 0 0 0 0 0 0
362 386 291 453 326 367 231 173 8 0 0 0 0 0 0 0 0 0 0 0 0 1 0 0 2 2 2 1 0 0 2 0 0 1 1 0 0 0 0 0 0 3 0
297 260 427 547 313 258 337 236 80 67 9 0 0 0 0 0 0 0 0 0 1 12 13 0 0 0 0 0 0 0 0 0 0 4 2 0 2 6 6 8 7 3 2
358 81 43 71 176 364 388 365 438 353 96 0 0 0 0 0 0 0 1 1 1 0 20 5 0 0 0 0 0 0 0 0 0 4 17 0 5 1 2 0 4 4 3
82 13 43 74 44 325 460 396 626 482 236 43 0 0 0 0 0 0 6 2 0 1 1 15 11 3 0 2 1 0 10 4 5 10 11 25 15 0 0 0 4 15 20
17 24 128 218 29 391 367 326 529 569 384 219 0 0 0 0 0 0 6 8 23 14 16 10 28 18 14 25 23 30 18 15 27 26 19 29 29 7 1 4 7 29 4
15 26 205 111 148 26 233 371 410 444 405 45 0 0 0 0 10 10 22 32 29 48 42 33 31 27 34 38 25 19 25 25 17 7 7 19 53 38 56 35 17 104 21
67 13 14 72 67 35 44 30 345 339 114 13 4 8 18 63 91 99 27 47 26 5 6 4 0 0 0 0 0 0 0 0 0 40 87 87 99 101 66 157 176 84 23
323 39 63 46 120 18 120 86 143 330 115 55 188 188 36 0 1 0 0 0 0 0 0 0 0 0 0 0 0 0 0 0 0 0 0 47 116 132 67 59 62 71 117
61 154 51 1 0 0 0 0 0 0 0 0 0 0 0 0 0 0 0 0 0 0 0 0 0 0 0 0 0 0 0 0 0 0 0 2 15 7 4 2 19 36 47

GFSGL_con_mlcape_057.txt.gz
CAPE
318 634 865 1406 1569 2411 2207 1854 1472 1279 1222 1308 1307 1482 1117 833 705 494 284 288 312 190 145 64 42 108 121 46 50 17 20 3 4 8 11 6 4 66 67 22 1 32 27
488 1330 1669 1698 2479 2394 2133 2088 1850 1477 1521 1416 1333 942 814 645 491 175 238 299 204 50 29 0 28 74 6 34 33 32 36 2 7 1 1 10 11 52 95 31 0 0 11
1815 1903 2013 2244 2324 1880 1721 1734 1882 1786 1516 1216 926 672 343 413 272 240 95 197 180 29 10 0 0 0 0 12 29 29 65 18 0 0 0 0 2 28 13 2 2 0 1
1776 1857 2023 2040 1731 1143 930 888 857 814 736 658 474 183 360 406 128 4 40 139 122 73 92 25 1 7 7 19 22 11 33 14 0 0 0 0 0 1 0 0 0 1 2
1666 1671 1610 1514 1253 924 690 649 364 305 258 237 132 142 185 164 47 20 204 167 105 8 5 0 0 4 3 18 12 29 17 7 0 0 0 0 0 0 0 1 1 0 0
1605 1570 1329 1227 1032 820 568 411 251 210 113 67 62 29 2 3 2 94 121 115 15 0 0 0 1 6 2 0 6 14 37 3 0 0 1 0 1 0 0 0 0 0 0
1333 1275 1125 971 793 545 318 176 153 147 165 74 39 1 0 1 0 1 15 79 36 2 0 0 9 8 4 0 0 4 6 0 0 0 0 0 0 0 0 0 0 0 0
1184 1029 832 650 459 309 203 91 67 130 57 62 91 13 0 0 0 0 10 74 26 0 0 0 7 17 14 15 4 9 0 0 0 0 0 0 0 1 0 0 0 0 2
788 646 427 385 289 246 75 42 92 62 60 114 92 2 0 0 0 0 0 38 6 0 0 1 1 12 0 0 8 0 0 0 0 0 0 0 0 0 0 0 0 1 3
357 300 372 255 145 159 13 89 58 37 61 113 105 3 0 0 0 0 1 8 0 0 0 0 0 0 0 0 3 0 0 0 0 0 0 0 0 0 0 0 0 0 0
173 351 427 303 107 33 139 100 76 79 93 136 60 0 0 0 0 0 6 11 0 0 0 0 0 0 0 0 0 0 0 0 0 0 1 0 0 1 0 0 0 0 0
359 473 467 276 250 189 141 76 62 97 122 46 1 1 0 0 0 0 0 7 0 0 0 0 0 0 0 0 0 0 0 0 0 2 1 1 1 0 0 0 0 0 0
346 349 284 228 257 165 114 85 97 110 62 0 0 2 0 0 0 0 0 0 0 0 0 0 0 0 0 0 0 0 0 1 1 1 1 2 0 0 0 0 0 0 0
234 165 281 264 241 131 149 135 100 111 55 0 0 0 1 0 0 0 0 0 0 0 0 0 0 0 0 0 0 0 0 0 0 0 0 0 0 0 0 0 0 0 0
212 226 132 120 156 12 0 9 33 0 6 20 8 0 0 1 0 0 0 0 0 0 0 0 0 0 0 0 2 1 0 0 0 0 0 0 0 0 0 0 0 0 0
232 158 164 70 15 6 0 0 0 0 0 0 15 3 1 0 0 0 0 0 0 1 1 0 0 0 2 1 5 2 0 0 0 0 0 0 0 0 0 0 0 0 3
162 119 96 84 130 95 22 0 0 0 0 0 0 0 0 0 0 0 0 0 0 0 0 1 0 1 0 0 0 0 0 0 0 0 0 0 0 0 0 0 0 0 0
170 110 178 181 209 149 66 0 0 0 0 0 0 0 0 0 0 0 0 0 0 0 0 0 1 1 1 0 1 0 0 1 0 0 0 0 0 0 0 0 0 0 0
135 138 155 342 260 217 138 3 0 0 0 0 0 0 0 0 0 0 0 0 0 0 0 0 0 0 0 0 0 0 0 0 0 0 0 0 0 0 0 0 0 0 0
72 246 178 307 177 184 162 22 0 0 0 0 0 0 0 0 0 0 0 0 3 13 0 0 0 0 0 0 0 1 0 0 0 1 0 0 0 0 0 0 0 0 0
88 73 116 257 305 210 225 135 60 0 0 0 0 0 0 0 0 0 0 0 2 7 12 0 0 0 0 0 0 0 0 0 0 0 3 1 0 0 0 0 0 0 3
19 25 55 141 218 276 299 428 251 53 0 0 0 0 0 0 0 0 0 0 4 1 7 8 6 2 0 0 0 1 1 1 0 0 13 27 15 9 1 0 0 0 0
0 27 50 84 273 219 330 480 419 154 4 0 0 0 0 0 0 0 21 14 9 4 3 0 0 0 0 0 0 3 10 16 15 25 32 33 34 28 16 16 6 7 12
15 79 73 21 170 256 261 455 444 132 3 0 0 0 0 0 10 19 0 0 0 0 0 0 0 0 0 0 0 0 0 0 0 1 38 37 42 42 79 73 77 85 83
48 30 14 14 20 89 272 275 185 29 7 5 0 0 0 0 0 0 0 0 0 0 0 0 0 0 0 0 0 0 0 0 0 0 1 2 1 4 7 7 11 0 0
0 0 0 0 0 0 12 3 0 2 0 0 0 0 0 0 0 0 0 0 0 0 0 0 0 0 0 0 0 0 0 0 0 0 0 0 0 0 0 0 0 0 0

GFSGL_con_mlcape_060.txt.gz
CAPE
0 0 3 57 254 711 798 731 898 1423 1361 1209 987 939 1124 982 756 683 562 353 234 81 117 39 5 0 0 16 2 0 0 0 0 3 0 4 16 0 5 38 0 22 13
86 100 179 516 856 978 899 778 1427 1464 1205 1040 1015 1008 1099 926 678 510 256 119 123 78 40 12 3 8 38 22 0 1 0 0 0 0 0 0 7 20 21 5 0 16 7
290 446 742 773 961 1152 1452 1641 1491 1182 1031 1000 976 1075 893 678 485 228 66 119 131 72 0 0 0 11 0 1 15 36 13 1 0 0 0 0 2 11 3 0 2 0 0
565 599 697 1204 1522 1521 1779 1752 1365 1052 1059 1027 1071 809 661 475 224 71 59 11 111 34 0 0 0 0 0 6 16 43 23 3 0 0 0 1 0 2 0 6 0 0 0
851 1303 1574 1552 1610 1586 1608 1476 1105 1154 1164 1052 696 375 247 228 89 20 1 6 12 2 4 0 0 0 6 12 28 33 1 4 0 0 0 0 0 0 0 0 0 0 1
1471 1363 1389 1178 1394 1273 1042 952 986 862 716 497 206 43 56 133 51 9 20 27 23 11 0 0 0 0 2 3 16 6 7 1 0 0 0 0 0 1 0 0 0 0 5
1178 1262 1162 989 991 760 403 261 141 144 145 36 0 0 5 2 0 9 15 14 12 3 0 0 0 0 1 3 0 5 12 0 3 0 0 0 0 0 0 0 0 0 0
914 1061 905 776 585 423 239 130 72 30 12 0 0 0 0 0 0 3 1 5 0 0 0 0 0 0 1 1 0 4 0 0 0 0 0 0 0 0 0 0 0 1 2
819 809 695 477 320 138 91 49 23 12 2 4 0 0 0 0 0 0 0 0 0 0 0 0 1 5 0 6 1 0 0 0 0 0 0 0 0 0 0 0 1 1 1
656 633 453 310 203 79 24 3 8 8 13 1 2 0 0 0 0 0 0 0 0 0 0 0 0 2 0 0 0 0 0 0 0 0 0 0 0 0 0 0 0 3 0
433 384 291 177 78 13 3 6 2 6 10 3 0 0 0 0 0 0 0 1 2 0 0 0 0 0 0 0 0 0 0 0 0 0 0 1 0 0 0 0 0 0 0
279 233 164 30 2 0 0 3 3 0 0 0 0 0 0 0 0 0 0 2 0 0 0 0 0 0 0 0 0 0 0 0 0 1 1 1 1 1 0 0 0 0 0
255 234 85 25 1 0 0 0 0 0 0 0 0 0 0 0 0 0 0 0 0 0 0 0 0 0 0 0 0 0 0 0 0 1 1 1 1 0 0 0 0 0 0
211 181 129 7 0 0 0 0 0 0 0 0 0 1 0 0 0 0 0 0 0 0 0 0 0 0 0 0 0 1 0 0 0 0 1 0 0 0 0 0 0 0 0
228 143 93 11 0 0 0 0 0 0 0 0 0 0 0 0 0 0 0 0 0 0 0 0 0 1 0 2 1 1 1 0 0 0 0 0 0 0 0 0 0 0 0
166 99 22 0 0 0 0 0 0 0 0 0 0 0 0 0 0 0 0 0 0 0 1 0 0 2 2 1 1 0 0 0 0 0 0 0 0 0 0 0 0 0 0
148 48 0 0 0 0 0 0 0 0 0 0 0 0 2 0 0 0 0 0 0 1 0 0 0 0 3 3 1 1 0 0 0 0 0 0 0 0 0 0 0 0 0
56 8 0 0 0 0 0 0 0 0 0 0 0 0 0 0 0 0 0 0 1 1 0 0 0 0 1 1 0 2 0 0 0 0 0 0 0 0 0 0 0 0 0
23 9 17 2 0 0 0 0 0 0 0 0 0 0 0 0 0 0 0 0 0 0 0 1 1 1 0 0 1 3 1 0 0 0 0 0 0 0 0 0 0 0 0
18 14 24 17 9 8 0 0 0 0 0 0 0 0 0 0 0 0 0 0 0 0 0 0 1 0 0 0 1 0 3 1 0 0 0 0 0 0 0 0 0 0 0
32 31 41 35 75 20 0 0 0 0 0 0 0 0 0 0 0 0 0 0 1 0 0 0 0 0 0 0 0 0 1 0 0 0 0 0 0 0 0 0 0 0 0
68 73 71 168 85 49 3 0 0 0 0 0 0 0 0 0 0 0 0 0 1 0 0 0 0 0 0 0 0 0 0 0 0 0 1 2 1 0 0 0 0 0 0
43 105 131 124 86 49 49 0 0 0 0 0 0 0 0 0 0 0 0 0 0 0 0 0 0 0 0 0 0 0 0 0 0 0 1 2 26 25 13 1 0 0 0
42 36 54 121 145 217 96 38 0 0 0 0 0 0 0 0 0 0 0 1 1 0 0 0 0 0 0 0 0 0 0 0 0 0 1 22 41 43 48 49 28 19 10
10 34 44 112 163 225 47 23 4 0 0 0 0 0 0 0 0 0 1 0 0 0 0 0 0 0 0 0 0 0 0 0 0 0 0 0 0 0 0 0 0 0 0
0 0 0 23 94 106 41 14 0 0 0 0 0 0 0 0 0 0 0 0 0 0 0 0 0 0 0 0 0 0 0 0 0 0 0 0 0 0 0 0 0 0 0

GFSGL_con_mlcape_063.txt.gz
CAPE
0 0 0 0 0 0 4 93 265 539 911 1172 1241 1152 882 899 901 756 711 542 493 358 171 74 13 2 0 0 0 0 0 0 0 0 0 0 9 10 12 21 8 4 0
0 0 0 0 1 25 61 280 510 644 1088 1200 1195 963 853 802 794 663 614 449 362 110 22 8 0 0 0 0 0 0 0 0 0 0 0 1 18 7 10 14 2 2 0
5 0 0 2 109 249 326 726 815 771 967 1188 1080 887 835 801 601 536 435 191 45 7 6 0 0 0 0 0 0 0 1 1 0 0 0 3 3 1 1 2 0 0 2
533 350 304 429 621 577 839 819 693 812 1274 1187 1017 871 878 783 599 373 158 17 11 13 0 0 0 0 0 0 0 15 20 12 2 0 0 1 4 3 0 0 0 2 0
780 706 591 799 968 1044 982 933 1026 1357 1170 807 860 852 890 683 458 184 1 0 0 7 0 0 0 0 0 0 1 8 8 4 5 0 1 1 0 0 1 0 0 0 0
1113 922 923 875 978 1246 1420 1241 1388 1122 843 820 887 744 536 431 145 3 8 0 3 2 0 0 0 0 0 0 5 14 9 0 1 0 0 0 0 0 0 0 0 0 0
1383 1127 1112 1298 1298 1155 1120 1259 1216 902 805 805 521 277 163 21 0 10 10 12 8 2 0 0 0 0 0 0 0 3 2 0 0 0 0 0 0 0 0 1 0 0 0
1171 1122 980 1010 917 854 882 884 788 723 737 382 88 0 0 0 2 1 5 10 2 0 0 0 0 0 0 0 0 2 1 0 0 0 0 0 0 0 1 0 0 0 0
110 965 875 736 641 605 627 621 490 371 207 11 0 0 0 0 0 0 2 0 0 0 0 0 0 0 0 0 0 0 0 0 0 0 0 0 0 0 0 0 0 0 0
0 669 658 389 372 231 133 85 31 13 0 0 0 0 0 0 0 0 0 0 0 0 0 0 0 0 0 1 0 3 0 0 0 0 0 0 0 0 0 0 0 0 1
14 556 249 155 180 134 52 23 0 0 0 0 0 0 0 0 0 0 0 0 0 0 1 0 0 0 0 0 0 0 0 0 0 0 0 0 0 0 0 0 0 0 0
256 63 47 57 82 25 4 0 0 8 5 0 0 0 0 0 0 0 0 0 1 0 0 0 0 0 0 0 0 0 0 0 0 0 0 1 0 1 0 0 0 0 0
10 80 78 60 14 0 0 0 1 3 0 0 0 0 0 0 0 0 0 0 0 0 0 0 0 0 0 0 0 0 0 0 0 1 1 1 2 1 0 0 0 0 0
62 109 88 54 0 0 0 1 0 0 0 0 0 0 0 0 0 0 0 0 0 0 0 0 0 0 0 0 0 2 0 0 0 0 1 0 0 1 0 0 0 0 0
120 104 37 0 0 0 0 0 0 0 0 1 0 0 0 0 0 0 0 0 0 0 0 1 1 0 0 2 2 1 0 0 0 0 0 0 0 1 0 0 0 0 0
142 84 1 0 0 0 0 0 0 0 0 0 0 0 0 0 0 0 0 0 0 0 0 1 0 1 1 2 1 0 1 0 0 0 0 0 0 0 0 0 0 0 0
178 64 0 0 0 0 0 0 0 0 0 0 0 0 0 0 0 0 0 0 0 0 0 1 2 1 2 2 0 0 0 0 0 0 0 0 0 0 0 0 0 0 0
116 3 0 0 0 0 0 0 0 0 1 0 0 0 0 0 0 0 0 1 1 0 0 0 0 2 3 4 2 1 2 0 0 1 0 0 0 0 0 0 0 0 0
34 2 0 0 0 0 0 0 0 0 0 0 0 0 0 0 0 0 0 0 0 0 0 0 0 1 0 3 6 5 1 0 0 0 0 0 0 0 0 0 0 0 0
54 3 0 0 0 0 0 0 0 0 0 0 0 0 0 0 0 0 0 0 0 0 0 1 0 0 0 0 2 4 1 0 0 0 0 0 0 0 0 0 0 0 0
7 2 0 0 8 0 0 0 0 1 1 2 0 1 1 0 0 0 0 0 4 0 0 0 0 1 1 0 3 2 1 0 1 0 0 0 0 0 0 0 0 0 0
41 27 30 29 14 0 0 0 0 0 1 2 2 0 1 0 0 0 0 4 8 0 0 0 0 0 0 0 1 1 2 0 0 0 0 0 0 0 0 0 0 0 0
56 39 35 34 7 0 0 0 0 1 0 0 0 0 0 0 0 1 0 0 0 0 0 0 0 0 0 0 0 0 0 0 0 0 0 0 0 0 2 3 2 1 0
79 91 53 25 5 0 0 0 0 0 0 1 0 0 1 0 0 0 0 3 3 4 1 0 0 0 0 0 0 0 0 0 0 0 0 2 2 13 30 16 9 6 2
88 52 42 58 63 32 0 0 0 0 0 0 0 0 0 0 1 3 4 4 4 2 1 1 1 0 0 0 0 0 0 0 0 0 0 0 0 0 0 0 0 0 0
1 32 58 72 54 34 10 0 0 0 1 0 0 0 1 3 5 6 3 1 0 0 0 0 0 0 0 0 0 0 0 0 0 0 0 0 0 0 0 0 0 0 0

GFSGL_con_mlcape_066.txt.gz
CAPE
0 0 0 0 0 0 13 101 110 16 69 214 436 852 1100 1012 823 800 827 631 592 382 212 206 121 2 0 0 0 0 0 0 0 0 1 1 3 0 4 3 5 6 0
0 0 0 0 0 0 99 15 0 26 248 392 580 1019 1079 943 739 823 683 652 460 376 261 149 49 0 0 0 0 0 0 0 0 0 0 1 2 5 5 1 2 0 0
19 0 0 0 0 11 0 0 4 178 350 589 774 1162 1102 851 714 776 660 624 475 334 140 21 0 0 0 0 0 0 0 0 1 0 0 0 1 0 0 0 1 0 1
338 0 0 0 3 36 34 75 158 394 513 711 1006 1142 1029 726 719 599 555 518 292 54 7 0 0 0 0 0 0 0 0 1 3 7 0 0 0 1 0 0 0 0 1
730 412 23 0 9 77 167 239 471 669 839 914 1011 1070 858 697 642 516 493 229 17 6 1 0 0 0 0 0 0 0 2 15 6 1 2 2 0 2 0 0 0 0 0
1027 917 751 578 486 462 509 703 895 976 859 919 1119 1016 766 716 466 514 240 0 0 10 12 0 0 0 0 0 0 0 0 9 8 7 2 0 4 0 0 0 0 0 0
537 1244 986 999 917 968 1029 1069 991 844 899 1148 1046 782 764 647 420 189 0 1 0 2 2 0 0 0 0 0 0 0 0 0 2 1 0 0 0 0 0 1 0 0 0
145 1315 1246 1253 1276 1218 1123 1078 1033 966 1057 865 742 697 524 238 100 0 0 2 1 0 0 0 0 0 0 0 0 2 4 0 0 0 0 0 0 0 0 0 0 0 0
38 662 1290 1226 1121 1131 1141 862 725 800 669 579 515 225 88 0 0 2 3 0 0 0 0 0 0 0 0 0 0 1 0 0 0 0 0 0 0 0 0 0 0 0 2
0 55 897 915 859 754 678 574 485 503 477 119 0 0 0 0 0 0 0 0 0 0 0 0 0 0 0 0 0 0 7 0 0 0 0 0 0 0 0 0 0 0 0
1 25 753 568 486 358 230 193 284 248 18 0 0 0 0 0 0 0 0 0 0 0 0 0 0 0 0 0 0 0 3 1 0 0 0 0 0 0 0 0 0 1 0
144 206 594 318 134 118 238 148 46 0 0 0 0 0 0 0 0 0 0 0 0 0 0 0 0 0 0 0 0 0 0 0 2 1 0 0 0 0 1 0 0 0 0
1 368 193 158 117 21 46 2 0 0 0 0 0 0 0 0 0 0 0 0 1 1 0 0 0 0 0 0 0 0 0 0 0 0 0 0 1 1 0 0 0 0 0
0 83 109 17 37 17 7 0 0 0 0 0 0 0 0 0 0 0 0 0 0 0 0 0 0 0 0 0 0 0 0 0 0 0 1 0 1 1 0 0 0 0 0
0 0 8 7 12 0 0 0 1 0 0 0 0 0 0 0 0 0 0 0 0 0 0 0 1 0 0 1 2 1 0 1 0 0 0 0 1 1 0 0 0 0 0
1 1 9 6 0 0 0 0 0 0 0 0 0 0 0 0 0 0 0 0 0 0 1 1 0 0 1 2 0 0 1 0 0 0 0 0 0 0 0 1 0 1 2
16 14 0 0 0 0 0 0 0 0 0 0 0 0 0 0 0 0 0 0 0 0 0 1 1 0 0 0 1 0 0 0 0 0 0 0 0 0 0 0 0 1 0
30 8 0 0 0 0 0 0 0 0 0 0 0 0 0 0 0 0 0 0 0 1 0 1 2 2 1 1 0 0 0 0 0 0 0 0 0 0 0 0 0 0 0
7 0 0 0 0 0 0 0 0 0 0 0 0 0 0 0 0 0 0 0 1 0 0 2 1 2 3 2 1 0 1 0 0 0 0 0 0 0 0 0 0 0 0
0 0 0 0 0 0 0 0 0 0 0 0 0 0 0 0 0 0 1 0 0 0 0 0 1 5 4 10 6 3 1 0 0 0 1 0 0 0 0 0 0 0 0
0 0 0 0 0 0 0 0 0 1 2 3 0 0 1 0 0 0 0 0 0 0 0 0 1 4 1 7 5 3 0 0 0 0 0 0 0 0 0 0 0 0 0
1 2 7 1 0 0 1 1 1 1 0 0 1 0 0 0 0 0 1 10 6 0 0 0 1 0 0 0 1 5 4 4 1 4 1 0 0 0 0 0 0 0 0
17 28 17 10 0 0 0 0 2 1 2 2 1 1 1 1 1 0 0 0 0 0 0 0 0 0 0 0 0 1 2 3 0 0 0 1 0 0 0 0 0 0 0
29 42 27 4 0 0 0 0 2 1 1 2 1 1 0 0 0 0 3 5 2 1 0 1 0 0 0 0 0 0 0 0 0 0 0 0 2 0 1 8 10 7 8
36 30 13 0 0 0 0 1 2 2 1 1 1 0 0 1 1 3 4 4 2 1 1 1 1 0 0 0 0 0 0 0 0 0 0 0 1 0 0 0 0 0 0
0 21 4 0 0 0 0 0 2 3 1 0 0 0 2 3 4 3 0 0 0 0 0 1 0 0 0 0 0 0 0 0 0 0 0 0 0 0 0 0 0 0 0

GFSGL_con_mlcape_069.txt.gz
CAPE
3 25 15 0 0 0 0 0 72 354 532 531 463 371 395 862 1651 1655 1569 1311 1049 567 436 381 572 427 405 260 141 110 68 20 23 7 1 4 5 5 3 25 2 27 15
0 0 72 2 0 0 0 0 156 345 553 534 572 451 716 1474 1642 1577 1434 1105 775 546 512 629 573 310 327 192 138 122 70 0 21 82 2 4 3 4 5 18 3 24 31
0 0 1 73 0 0 0 116 321 550 606 522 527 585 1112 1590 1621 1517 1338 1050 721 543 512 689 566 319 184 109 105 116 134 98 19 31 5 3 1 6 1 2 1 5 6
0 0 1 250 0 4 94 448 596 689 594 599 664 1071 1533 1696 1548 1376 1213 738 610 502 491 605 344 170 163 131 150 225 265 56 30 54 37 8 1 1 5 0 0 2 0
0 0 0 617 0 69 392 668 718 567 625 854 1212 1554 1743 1579 1410 1256 871 648 676 528 438 267 192 105 69 218 186 260 102 53 54 68 41 5 1 1 2 1 4 1 2
0 0 0 927 22 255 696 785 714 642 916 1292 1500 1644 1641 1417 921 746 722 617 612 415 219 164 101 0 0 0 0 0 80 81 29 56 19 39 3 2 1 7 2 2 1
0 0 2 1230 588 546 922 865 662 690 1070 1304 1606 1618 1631 1404 473 608 575 580 373 279 312 216 84 23 0 0 0 0 0 0 23 35 15 48 17 0 0 3 0 7 2
0 0 7 1141 1196 1149 1134 993 1047 1044 1245 1369 1530 1670 1591 848 379 399 369 251 233 209 229 240 167 88 30 0 0 0 5 4 2 7 1 47 8 0 6 2 4 4 2
2 3 33 852 1197 1133 1020 1294 1229 1155 1332 1286 1478 1147 815 339 165 170 31 181 109 85 106 115 182 75 0 0 1 1 1 2 0 0 0 8 0 0 12 1 0 0 4
1 28 30 420 1129 1287 1457 1185 1026 1141 1117 934 602 905 519 354 0 0 103 113 58 52 27 1 0 0 0 0 2 1 1 0 0 0 0 0 0 0 0 2 0 0 3
0 9 53 529 1041 1079 1042 953 875 670 478 503 368 102 72 10 0 0 2 84 55 5 0 0 0 0 0 0 0 3 0 0 0 0 0 1 3 2 2 5 21 22 8
2 41 330 837 742 735 608 536 362 264 245 160 2 0 0 0 0 0 0 48 3 0 0 2 0 0 0 0 0 0 0 0 2 3 2 1 2 2 2 3 2 16 18
63 86 516 619 407 333 260 99 96 40 28 0 0 0 0 0 0 0 0 0 0 1 0 1 0 0 0 0 0 0 0 3 3 1 2 0 2 5 3 2 12 13 4
7 37 438 295 203 126 63 54 112 20 12 0 0 0 0 0 0 0 0 0 0 0 0 0 0 0 0 0 0 0 8 6 4 2 2 4 3 2 1 3 5 4 3
2 167 157 118 108 32 41 108 122 85 32 13 1 0 0 0 0 0 0 1 2 0 0 0 0 0 0 1 3 3 6 2 3 2 3 2 2 3 2 1 1 25 18
6 69 38 2 2 3 0 0 0 0 0 0 0 0 0 0 0 0 0 0 0 0 1 0 0 0 0 1 1 1 4 2 3 3 3 2 1 1 1 2 2 15 4
28 0 2 2 2 3 0 0 0 0 0 0 0 0 0 0 0 0 0 0 0 1 1 1 1 1 1 2 1 5 4 3 2 2 2 2 1 1 1 3 2 2 3
44 0 3 7 7 22 13 3 0 0 0 0 0 0 0 0 0 0 0 0 0 1 1 1 1 1 2 2 1 7 3 2 1 1 1 5 8 0 1 2 5 4 7
5 17 63 62 33 17 4 3 4 2 1 0 0 0 0 0 0 0 0 1 1 1 1 1 1 1 2 14 10 2 1 1 1 1 4 4 2 2 4 1 0 0 1
2 1 49 8 2 2 2 1 1 2 1 2 0 0 0 0 0 1 4 3 3 1 1 1 2 3 4 6 1 1 4 1 0 1 0 1 0 0 1 0 1 1 0
3 0 0 1 0 2 3 1 2 4 3 2 0 0 0 0 1 2 3 1 0 1 0 1 2 12 5 41 20 17 8 4 3 2 0 0 0 0 0 3 1 1 1
3 7 73 46 2 1 2 2 3 3 1 0 0 0 0 1 6 6 3 3 5 5 2 1 2 7 44 26 9 8 4 3 2 1 0 0 0 0 0 0 0 0 0
110 115 20 0 1 0 1 5 4 2 0 2 1 2 2 4 5 0 0 0 0 0 0 0 0 0 0 0 4 11 9 6 5 5 5 3 1 1 2 1 4 0 1
164 102 4 1 2 2 3 4 2 1 3 3 3 2 2 1 1 1 4 5 2 3 2 1 1 0 0 0 0 0 0 0 5 5 4 1 4 2 13 7 1 6 8
205 100 12 0 0 1 2 2 2 3 2 2 1 1 1 4 4 8 4 4 2 0 0 1 5 0 0 0 0 0 0 0 0 1 1 1 0 0 1 0 0 0 0
189 92 1 1 1 2 2 3 3 2 1 2 2 1 2 4 5 5 6 2 6 5 1 0 3 3 2 1 1 0 0 0 0 0 0 0 0 0 0 0 0 0 0

GFSGL_con_mlcape_072.txt.gz
CAPE
0 0 0 0 0 58 139 98 209 620 704 631 1399 1890 1950 1658 1704 1933 2060 2308 2435 2333 1957 1477 1285 1304 1151 835 516 522 325 209 40 465 285 53 106 50 24 93 225 355 240
0 0 0 0 0 1 114 169 210 371 635 781 1218 1574 1465 1330 1898 2276 2390 2147 2272 2188 1368 1227 1100 1150 1134 802 593 413 276 159 91 225 272 3 12 177 102 27 32 149 296
0 0 0 0 0 0 120 369 218 331 546 828 1101 1365 1257 1309 1987 2187 2142 2126 2181 1947 1325 1164 1167 1133 1060 648 547 372 265 271 276 212 349 3 71 269 47 5 8 32 59
0 0 0 0 0 0 186 558 245 428 553 894 1222 1437 1310 1512 1893 1995 2074 2092 1950 1542 1277 1084 1181 1036 814 632 496 323 256 328 252 232 266 21 37 56 60 5 2 16 14
0 0 0 0 0 0 186 616 211 613 825 1279 1545 1410 1367 1662 1849 1962 1963 2090 1942 1404 1098 1070 1016 738 490 470 302 324 351 363 222 143 142 113 76 21 51 21 0 2 4
0 0 1 0 0 0 256 501 419 993 1483 1680 1595 1420 1713 1675 1546 1854 2048 2062 1425 1246 1014 863 660 284 145 106 84 64 376 329 287 166 166 143 71 35 92 29 31 6 6
0 0 0 0 1 0 328 357 721 1641 1996 1851 1741 1655 2096 1778 1509 1627 1613 1663 1440 1291 923 750 516 207 110 101 0 0 0 0 11 282 172 170 95 101 11 86 25 19 12
0 0 1 3 1 0 563 439 1389 2058 2171 2172 2121 2135 2269 1895 1146 1171 1058 1457 1257 992 823 613 471 322 296 358 249 82 81 41 0 22 100 92 88 192 12 31 7 10 13
0 0 0 19 0 0 707 1035 1944 2085 2249 2346 2270 2302 2254 1252 767 629 875 1148 687 581 451 547 513 398 266 57 216 118 181 60 0 0 1 0 9 2 5 12 1 2 5
0 0 0 0 13 1 1092 1703 1950 1845 2073 2274 2268 2271 2340 1082 181 597 723 329 428 328 463 473 80 305 0 0 79 77 27 8 2 0 0 0 0 0 0 19 0 0 1
0 0 1 0 4 470 1173 1287 1391 1741 1967 2052 2043 1814 1100 672 149 348 125 216 228 237 280 377 152 0 0 0 0 65 70 3 0 1 1 2 4 2 3 16 0 0 0
0 0 0 0 313 1027 1439 1527 1545 1415 1241 1128 769 769 456 261 72 1 45 125 240 318 288 201 88 0 0 0 0 0 0 0 3 2 1 1 1 1 2 8 92 68 16
2 16 12 187 809 886 1084 1031 1108 1019 781 620 736 343 227 123 2 0 0 71 26 318 213 8 0 0 0 0 0 0 0 2 3 1 2 1 2 1 1 1 12 2 2
3 0 196 556 638 509 593 716 754 719 731 705 374 119 52 43 1 1 0 0 0 0 0 0 0 0 1 1 0 0 2 5 2 23 3 1 4 4 2 4 14 6 5
0 12 35 453 407 263 176 266 415 481 381 230 148 110 158 217 57 5 0 0 3 1 0 1 1 0 0 1 2 4 23 17 16 13 18 8 5 4 17 30 17 20 18
1 9 188 84 36 31 25 2 0 16 15 27 54 118 96 25 0 0 0 0 0 0 0 1 1 1 1 0 5 30 21 13 18 20 14 14 4 3 4 2 1 25 25
6 12 16 39 60 24 17 24 3 0 0 0 0 0 0 0 0 0 0 0 0 0 19 3 0 1 1 6 5 13 21 11 16 19 5 3 2 2 0 19 27 30 34
0 6 16 35 58 105 44 13 19 30 4 0 0 0 0 0 0 0 0 0 0 3 7 3 0 3 2 26 11 29 25 11 11 4 5 3 3 2 4 2 22 1 0
6 19 33 88 98 159 150 187 183 115 27 0 0 0 0 0 0 0 0 4 3 6 3 3 2 3 2 4 17 29 20 12 11 4 8 10 6 1 1 3 10 2 3
15 44 16 143 161 182 205 161 119 32 0 1 2 1 1 2 1 2 2 3 4 2 1 3 1 1 30 31 20 7 10 0 2 6 4 3 0 0 6 1 3 0 2
8 31 47 123 169 159 129 117 52 20 11 7 3 0 0 2 6 6 2 5 4 1 1 1 9 49 32 27 2 3 0 18 22 15 20 16 7 2 4 6 1 3 10
74 86 103 117 104 74 102 115 67 20 10 1 3 0 0 14 21 23 7 2 4 7 4 1 6 16 39 24 5 17 26 27 15 15 12 6 2 5 7 5 6 9 12
97 63 88 79 110 3 52 87 58 28 4 2 1 0 11 16 6 2 1 3 1 0 0 0 0 0 38 42 34 32 26 27 13 5 7 2 6 18 11 0 4 4 12
192 125 115 35 32 8 1 2 0 1 1 3 1 1 2 0 4 3 4 4 5 3 2 0 0 0 0 0 0 0 1 1 3 2 7 7 5 0 0 1 2 3 1
144 101 67 1 2 2 4 4 4 4 3 2 1 0 1 4 6 8 6 2 2 1 2 2 0 0 0 0 0 0 0 0 7 1 2 0 0 0 0 0 0 0 0
196 27 0 1 1 4 3 4 2 2 1 1 1 4 4 6 8 5 7 4 2 3 8 10 6 8 3 3 1 0 0 0 0 0 0 0 0 0 0 0 0 0 0

GFSGL_con_mlcape_075.txt.gz
CAPE
0 0 0 0 0 0 3 43 223 574 654 564 526 1500 2389 3251 3445 3237 2775 2228 2010 2032 2313 2722 2634 2413 1613 1128 1135 940 359 262 224 465 514 775 557 258 314 172 347 405 357
0 0 0 0 0 0 4 0 60 278 619 871 935 731 1656 2492 2969 2871 2531 1554 2205 2544 2656 2437 2444 1951 1472 1393 1214 841 322 448 360 386 592 441 184 323 223 187 40 180 399
0 0 0 0 0 0 4 0 1 133 504 504 664 898 1460 2074 2735 2763 2305 1812 2451 2419 2526 2325 2093 1737 1750 1484 1088 716 413 515 475 307 610 475 146 426 195 165 179 106 225
0 0 0 0 0 0 0 5 0 25 585 474 758 862 1436 2202 2363 2405 2173 2354 2489 2371 2477 2094 1700 1554 1704 1346 957 760 721 543 263 293 288 409 192 268 104 70 3 37 33
0 0 0 0 0 0 0 0 3 7 893 537 647 999 1456 1920 2012 2191 2360 2455 2602 2430 2397 1862 1655 1551 1346 1041 730 691 586 409 489 220 253 392 236 117 187 81 38 11 6
0 0 0 0 0 0 0 0 3 47 961 658 722 1033 1552 2007 1654 2013 2500 2544 2646 2319 2112 1788 1427 1012 690 458 297 157 478 703 482 438 214 177 258 268 185 119 50 8 14
0 0 0 1 0 1 5 3 13 84 1004 930 1189 1507 1945 2476 1371 1650 2179 2786 2560 2296 1858 1629 1354 1017 634 530 161 74 49 76 139 546 541 319 120 300 134 117 136 7 56
2 6 3 0 0 8 29 42 69 179 1024 1114 1731 2438 2588 2589 1262 1598 1990 2609 2323 1906 1758 1442 1094 880 541 421 320 166 132 196 55 54 198 441 435 331 139 184 200 55 100
2 5 0 0 0 0 77 109 96 446 984 1346 2014 2241 2309 2014 1292 1642 1962 2170 1977 1790 1500 1280 1028 796 519 252 480 440 275 100 0 0 0 0 7 39 91 108 143 99 37
2 3 0 0 2 38 96 77 49 453 963 1735 2228 2090 2193 1989 1195 1587 1842 1701 1642 1428 1172 746 437 661 293 180 394 375 111 239 73 1 0 1 0 0 6 62 55 79 57
4 0 0 0 1 57 117 38 1 153 1212 1914 1975 2129 2523 1789 1282 1442 1323 1402 1222 975 709 775 500 88 59 40 7 374 247 129 7 23 6 5 11 5 4 10 25 2 0
10 7 7 4 5 45 41 1 0 169 1317 1724 1714 2069 2403 1420 1103 656 581 774 739 578 240 521 124 0 0 0 0 0 0 0 2 1 2 2 1 3 13 49 1 0 0
13 6 2 0 2 2 3 0 0 979 1306 1534 1907 1647 1203 1071 400 20 149 86 180 329 415 72 0 0 0 0 0 0 0 8 6 4 2 1 0 0 0 27 74 0 0
6 13 17 5 0 2 0 0 681 1084 1315 1448 1135 911 827 736 349 288 113 78 82 30 10 0 0 0 0 1 0 0 7 11 1 9 3 3 1 2 2 14 14 40 11
2 11 30 27 0 0 4 617 1016 983 1238 1423 1408 1052 894 707 503 322 327 276 205 134 1 0 1 3 3 2 3 3 5 8 29 20 43 5 5 1 19 24 9 31 10
5 10 4 5 17 82 259 71 23 340 839 951 939 989 702 387 63 26 10 8 1 0 0 2 3 3 4 3 3 25 16 4 7 1 0 1 9 1 39 20 13 9 13
23 0 1 108 118 195 126 129 150 0 0 5 7 3 20 6 0 0 0 0 0 0 9 2 3 2 4 6 30 50 27 27 9 9 9 12 19 11 3 11 11 8 30
0 0 0 104 91 71 87 151 187 136 65 0 0 0 0 0 0 0 0 0 0 0 16 2 3 2 2 3 34 35 15 21 39 20 19 17 5 2 0 7 31 22 32
0 0 48 167 171 95 127 193 182 144 13 0 0 0 0 0 0 0 0 1 3 15 11 4 1 4 2 10 46 15 11 9 9 6 8 5 2 1 2 4 10 7 3
1 0 135 166 209 194 157 208 157 50 40 8 1 0 0 0 0 0 0 3 5 19 10 1 2 1 0 43 27 25 17 8 7 6 15 12 13 6 1 0 17 12 14
1 2 105 78 191 191 178 196 115 124 62 2 4 1 0 0 2 2 11 3 10 7 9 3 2 3 3 41 7 8 28 4 9 15 19 20 17 6 0 6 0 1 6
4 43 125 175 189 209 209 146 135 51 5 4 6 0 0 12 5 3 3 15 15 5 3 3 20 4 41 42 24 18 10 23 27 17 9 12 12 1 0 0 0 0 0
59 76 130 172 180 124 159 122 16 1 3 5 8 13 26 27 10 1 0 2 2 0 0 5 0 46 58 40 36 31 28 25 13 24 20 16 11 17 22 25 9 1 3
101 142 154 171 172 150 164 64 3 0 5 14 18 4 0 0 2 3 4 3 1 0 0 0 0 0 33 31 27 8 5 16 19 19 24 18 17 20 18 3 0 0 1
128 94 88 97 87 61 32 0 1 6 9 1 2 0 0 2 4 4 5 4 2 1 1 1 0 0 0 0 0 0 0 0 0 0 0 0 0 0 0 0 0 0 1
217 166 94 27 0 0 0 1 1 2 1 0 0 0 3 8 9 6 4 4 7 5 4 5 4 4 2 1 0 0 0 0 0 0 0 0 0 0 0 0 0 0 0

GFSGL_con_mlcape_078.txt.gz
CAPE
1 2 0 0 0 0 3 34 103 230 212 696 629 249 12 330 2779 2533 2754 2589 2759 2784 2827 2288 1836 2037 2083 2124 1600 1273 983 704 387 352 626 659 510 280 263 212 292 330 192
0 0 0 0 0 0 0 0 4 23 60 183 360 816 560 91 823 2725 2460 3031 2817 3111 2551 2049 2099 2418 2182 2158 1491 1047 815 782 373 135 568 569 438 277 193 92 47 4 145
0 0 0 0 0 0 0 0 0 13 6 42 173 603 644 785 264 1853 2689 3587 3027 2676 2274 2395 2779 2685 2350 1825 1364 1153 881 590 582 325 401 406 309 193 381 278 156 39 35
0 0 0 0 0 0 0 0 0 0 0 10 12 223 713 720 1163 1300 2360 3250 2909 2305 2605 2886 2626 2485 2205 1874 1413 1071 740 524 319 390 460 424 288 303 242 38 11 0 6
0 0 0 0 0 0 0 0 0 0 0 0 4 22 793 461 1168 1449 2100 2931 2689 2418 2859 2821 2482 2279 2019 1756 1303 810 608 501 522 398 242 184 278 210 111 16 27 1 9
0 0 0 0 0 0 0 0 0 0 0 0 1 18 570 720 919 1666 2635 2966 2509 2610 2827 2760 2255 1796 1495 1146 803 664 704 640 496 493 256 180 174 176 183 90 32 1 9
15 2 0 0 0 0 0 0 0 0 4 1 4 31 683 793 1046 1127 2092 2681 2667 2750 2824 2475 1966 1503 959 596 209 97 247 397 356 315 241 217 149 161 161 71 77 31 0
14 8 4 0 0 0 0 0 0 0 14 12 6 93 707 1129 1198 829 1778 2322 2488 2461 2726 2292 1773 1225 962 680 321 270 181 152 112 103 217 234 341 202 175 76 57 68 31
12 17 4 0 0 0 0 0 0 0 0 12 7 129 780 1243 1071 1156 1572 2354 2044 2389 2454 2116 1715 1150 772 481 398 250 194 43 0 0 0 0 2 0 101 60 72 71 55
9 7 0 0 0 0 0 0 0 0 6 32 46 228 961 1270 884 855 2200 2099 1914 2396 2064 1755 1272 976 365 99 601 486 397 193 1 0 0 0 0 0 5 40 52 44 37
11 1 0 0 0 0 0 0 0 0 9 24 4 180 942 1344 910 861 1868 2068 2287 1920 1715 1207 804 588 297 98 414 481 387 159 74 0 0 0 3 0 11 38 38 27 58
0 0 0 0 0 0 0 0 0 58 93 17 0 76 962 1363 1124 801 1166 1750 1777 1570 1336 982 184 25 16 34 107 69 28 40 0 0 0 4 1 2 8 13 14 30 25
0 0 0 15 10 9 26 13 20 103 91 0 0 251 1076 1224 245 459 882 1341 1204 1108 801 323 0 0 0 0 0 0 0 0 0 1 0 1 0 1 7 15 46 6 0
15 10 5 0 0 26 19 10 21 38 9 1 0 619 1139 558 376 582 271 303 241 0 0 0 0 0 0 0 0 0 0 0 0 3 1 1 1 0 0 5 25 4 14
14 1 2 6 12 4 11 6 4 11 0 0 192 776 782 437 781 579 348 316 197 35 0 0 0 0 0 0 1 0 3 0 0 6 4 3 1 1 2 0 16 31 16
9 7 16 9 25 14 8 10 0 0 0 0 579 477 632 493 172 154 165 89 0 0 3 0 1 0 1 2 2 0 1 0 9 10 9 0 0 1 6 28 26 20 13
1 1 5 4 3 1 1 10 0 0 0 1 70 249 229 40 21 14 0 0 0 0 7 0 0 1 1 1 2 0 1 1 3 4 7 3 4 0 0 26 20 12 11
1 1 11 22 4 0 0 58 252 16 99 11 0 32 0 0 0 0 0 0 0 0 8 0 0 1 1 3 4 11 19 12 5 3 3 5 8 9 0 12 9 10 1
10 4 8 0 180 214 143 186 152 4 0 0 0 0 0 0 0 0 0 0 0 29 0 0 0 1 1 2 6 18 11 20 5 5 5 6 2 0 5 1 6 0 7
0 0 0 143 229 318 220 56 8 1 1 1 0 0 0 0 0 2 29 2 9 0 0 0 1 2 1 1 6 3 8 0 2 4 10 9 7 2 2 3 16 26 12
2 1 11 167 247 298 215 126 96 33 3 4 4 1 0 1 7 15 1 3 10 6 0 0 0 0 3 12 24 16 2 2 2 4 11 10 7 6 6 6 3 3 23
0 30 120 153 138 128 130 149 86 8 3 2 1 0 0 0 3 0 1 2 5 7 5 2 3 4 5 15 12 23 16 6 15 12 16 12 11 9 2 7 7 8 1
0 84 43 62 53 71 135 94 20 1 3 2 1 0 3 0 0 0 0 0 0 0 3 2 3 27 47 40 36 25 24 21 21 20 9 9 14 7 10 10 10 14 10
0 68 54 76 116 101 106 41 2 1 3 6 0 1 0 0 0 1 1 0 0 0 0 0 0 0 1 0 0 0 1 4 9 16 22 22 19 35 3 1 0 0 0
71 64 178 118 95 62 3 0 11 14 0 1 0 0 0 1 1 2 2 3 1 1 1 0 0 0 0 0 0 0 0 0 0 0 0 0 0 0 0 0 0 0 0
63 176 103 86 69 16 0 0 1 1 0 0 0 2 3 2 5 3 3 3 2 4 4 6 3 0 0 0 0 0 0 0 0 0 0 0 0 0 0 0 0 0 0

GFSGL_con_mlcape_081.txt.gz
CAPE
6 0 0 0 0 0 0 0 6 42 98 230 236 259 375 573 465 48 779 1682 1610 1566 1839 1934 1979 2237 2058 1516 1531 1639 1430 736 629 302 407 257 116 85 44 66 68 65 50
29 2 0 0 0 0 0 0 0 0 0 7 96 64 55 102 492 455 70 1410 2469 2150 2196 2072 2234 2362 2282 2087 1271 1653 1332 751 611 368 329 283 199 90 45 14 0 1 6
7 0 0 0 0 0 0 0 0 0 0 0 0 8 9 42 124 503 331 403 1420 2443 2531 2637 2526 2217 2242 1945 1436 1668 1009 794 483 211 221 275 201 166 40 9 3 0 0
0 0 0 0 0 0 0 0 0 0 0 0 0 0 2 9 3 135 604 462 790 2329 2626 2530 2282 2229 2115 1744 1582 1394 919 664 350 194 179 221 167 144 80 33 0 0 0
0 0 0 0 0 0 0 0 0 0 0 0 0 0 0 0 0 10 415 579 783 1229 2148 2616 2394 2338 2198 1781 1845 1146 835 529 322 184 183 148 107 126 111 7 0 0 0
0 0 0 0 0 0 0 0 0 0 0 0 0 0 0 0 0 0 8 357 925 1517 2272 2401 2371 2150 2088 2015 1901 1399 968 546 247 164 113 99 63 59 60 8 0 0 0
0 4 0 0 0 0 0 0 0 0 0 0 0 0 0 0 0 0 0 159 610 1277 2030 2013 2027 1932 1521 1766 1367 1029 613 424 278 181 242 119 36 22 65 35 1 0 0
0 0 0 0 0 0 0 0 0 0 0 0 0 0 0 0 0 0 0 88 239 1138 1838 1820 1823 945 1078 973 881 479 326 302 235 259 154 56 41 50 47 20 11 2 2
0 0 0 0 0 0 0 0 0 0 0 0 0 0 0 0 0 0 0 46 295 854 1328 1559 1197 882 755 810 654 402 126 5 0 17 9 5 8 5 15 3 1 3 7
0 0 0 0 0 0 0 0 0 0 0 0 0 0 0 0 0 0 0 114 458 922 1229 1141 783 1076 441 442 552 356 210 16 11 0 0 0 0 0 0 24 14 27 15
0 0 0 0 0 0 0 0 0 0 0 0 0 0 0 0 0 0 0 147 646 976 1194 844 893 687 407 448 360 184 99 6 0 0 0 0 0 0 0 5 12 32 20
0 0 0 0 0 0 0 0 0 0 0 0 1 0 0 0 0 0 0 54 643 1043 963 723 584 342 320 135 331 220 171 38 0 0 0 0 0 0 0 8 7 13 16
0 0 0 0 0 0 0 0 0 0 0 2 3 7 1 0 0 0 1 138 272 964 826 606 150 55 0 17 27 41 15 0 0 0 0 0 0 0 0 14 22 13 7
5 11 17 16 2 0 14 38 17 0 4 11 5 4 3 0 0 0 14 8 206 142 21 5 0 0 8 0 0 0 0 0 0 0 0 0 0 0 0 9 21 5 5
4 6 5 8 4 1 3 4 16 2 3 2 2 6 3 0 0 66 95 67 33 11 0 0 0 0 0 0 0 0 0 0 0 0 0 0 0 1 0 4 22 26 13
1 4 6 9 8 4 15 13 8 3 0 0 1 6 5 0 52 1 115 46 7 20 23 0 0 0 0 0 0 0 1 0 0 0 0 0 0 0 0 5 3 23 33
4 1 7 14 34 47 39 7 2 0 0 0 0 0 0 1 0 0 0 0 0 25 7 0 0 0 0 0 0 0 0 0 0 0 0 0 1 0 0 12 21 10 11
1 2 2 2 2 2 8 15 6 13 0 0 0 0 0 0 0 0 0 3 3 0 0 0 0 0 0 0 0 0 0 0 0 0 6 5 5 3 0 3 6 11 11
2 2 5 24 0 0 2 4 5 9 2 0 0 0 13 0 0 0 1 4 0 0 0 0 0 0 0 0 0 0 0 0 0 0 0 1 3 3 1 9 8 3 13
2 3 0 8 59 33 23 7 17 0 11 0 1 3 4 0 0 0 0 0 0 0 0 0 0 0 1 1 1 0 0 0 0 2 1 2 4 2 4 6 9 19 14
2 4 7 70 97 2 11 0 19 1 2 1 2 0 0 1 13 0 4 0 0 0 0 0 0 1 4 2 0 0 1 0 0 0 4 9 7 6 5 8 9 16 12
2 2 67 178 96 78 14 2 2 2 2 5 0 0 0 7 4 1 0 2 2 0 0 0 0 1 1 7 3 1 2 0 0 0 4 10 10 12 3 2 9 5 4
0 3 11 55 23 0 2 1 2 2 1 1 0 1 0 0 0 0 0 0 0 0 0 0 1 2 9 7 17 13 8 2 1 2 16 11 12 8 3 2 3 4 6
0 1 38 86 3 1 2 1 0 0 3 2 1 1 0 0 0 0 0 0 0 0 0 0 0 0 0 0 0 0 0 5 9 3 1 11 12 6 1 0 0 0 0
0 39 37 16 1 6 1 2 1 1 1 0 1 1 0 0 0 0 2 2 0 1 0 0 0 0 0 0 0 0 0 0 0 0 0 0 0 0 0 0 0 1 1
36 64 49 8 0 0 1 1 1 1 1 3 4 4 3 1 4 5 4 5 3 3 3 2 0 0 0 0 0 0 0 0 0 0 0 0 0 0 0 0 0 0 0

GFSGL_con_mlcape_084.txt.gz
CAPE
0 6 0 0 0 0 0 0 0 9 76 26 14 17 101 105 76 80 238 598 477 278 880 740 712 729 771 1367 1475 1386 1148 685 859 428 254 158 169 178 64 34 68 87 29
8 0 0 0 0 0 0 0 0 0 0 0 0 0 3 1 0 3 0 58 415 849 573 776 784 1253 1202 1431 1623 1336 1392 849 710 575 334 129 110 19 7 41 57 60 20
8 14 10 0 0 0 0 0 0 0 0 0 0 0 0 0 0 22 45 54 145 332 1080 1113 1198 1650 1673 1951 2083 1593 1389 908 499 573 412 91 33 25 11 2 0 0 0
36 17 7 0 0 0 0 0 0 0 0 0 0 0 0 0 0 0 1 0 0 100 413 1182 1575 1788 1883 2056 1878 1748 1262 682 635 522 267 166 83 75 53 45 19 0 0
0 8 0 0 0 0 0 0 0 0 0 0 0 0 0 0 0 0 0 0 0 9 147 440 1071 1831 1986 2094 1865 1656 1131 676 607 250 169 100 103 120 101 11 2 0 0
0 0 0 0 0 0 0 0 0 0 0 0 0 0 0 0 0 0 0 0 0 0 0 55 846 1381 1660 1608 1882 1395 1107 932 782 258 143 148 125 120 59 31 6 0 1
0 0 0 0 0 0 0 0 0 0 0 0 0 0 0 0 0 0 0 0 0 0 0 0 280 1448 1600 1701 1267 1030 1030 819 736 477 222 130 89 89 54 33 9 0 7
0 0 0 0 0 0 0 0 0 0 0 0 0 0 0 0 0 0 0 0 0 0 0 0 41 800 1511 1503 753 591 761 631 380 191 158 115 69 8 16 32 39 0 0
0 0 0 0 0 0 0 0 0 0 0 0 0 0 0 0 0 0 0 0 0 0 0 0 32 881 985 626 576 418 513 332 0 14 55 43 6 0 0 15 41 16 17
0 0 0 0 0 0 0 0 0 0 0 0 0 0 0 0 0 0 0 0 0 0 0 0 81 598 271 196 437 526 478 179 74 16 1 0 0 0 0 14 0 26 26
0 0 0 0 0 0 0 0 0 0 0 0 0 0 0 0 0 0 0 0 0 0 3 1 349 232 109 55 216 269 283 0 0 0 0 0 0 0 0 0 1 49 38
0 0 0 0 0 0 0 0 0 0 0 0 0 0 0 0 0 0 0 0 0 0 0 0 403 75 124 0 94 141 42 0 0 0 0 0 0 0 0 0 14 25 12
0 0 0 1 0 0 0 0 0 0 0 0 0 0 0 0 0 0 0 0 0 0 0 0 228 8 0 0 45 10 0 0 0 0 0 0 0 0 0 8 10 10 11
1 0 0 0 0 0 0 0 0 0 0 0 0 0 0 0 4 5 1 0 0 0 0 0 0 0 14 11 0 0 0 0 0 0 0 0 0 0 0 5 10 6 11
0 0 0 2 5 8 10 8 7 8 5 0 0 7 11 0 0 0 0 0 0 0 1 2 5 7 21 0 0 0 0 0 0 0 0 0 0 1 1 1 7 13 12
3 3 3 4 7 17 21 25 3 0 3 10 14 19 10 0 0 0 0 0 0 1 3 39 42 32 32 0 0 0 0 0 0 0 0 0 0 1 2 1 11 18 20
3 3 4 3 6 12 24 25 27 8 0 0 0 0 0 0 0 0 0 0 0 0 105 38 17 34 2 0 0 0 0 0 0 0 0 0 0 0 0 5 6 1 9
3 3 1 2 2 3 7 17 5 13 9 0 0 0 0 0 0 0 0 0 0 0 12 12 1 1 1 0 0 0 0 0 0 0 0 1 2 0 0 2 5 20 7
3 2 2 4 3 2 2 5 1 0 0 0 0 0 0 0 0 0 0 42 2 0 3 1 1 0 0 0 0 0 0 0 0 0 6 5 8 2 1 0 2 1 3
3 2 4 5 1 2 1 1 1 0 0 0 2 0 0 2 0 0 1 9 2 2 2 0 0 0 0 0 0 0 0 0 0 2 4 0 1 0 1 2 10 5 8
4 4 1 26 5 1 1 3 1 2 5 4 0 1 0 4 19 4 4 0 1 1 0 0 0 0 0 0 0 0 0 0 0 4 3 3 1 0 4 7 7 16 14
4 5 1 27 20 31 22 18 3 19 5 2 1 0 3 73 58 3 1 0 0 0 0 0 0 0 0 0 0 0 0 0 0 0 6 12 7 3 4 5 5 5 9
8 1 5 2 4 6 22 1 5 14 1 2 1 1 21 3 2 1 0 0 0 0 0 0 2 0 4 5 10 10 0 0 0 0 1 10 9 4 0 3 5 4 2
1 0 3 3 2 7 19 8 11 1 2 3 3 1 1 1 0 0 0 0 0 0 0 0 0 5 4 1 0 2 0 0 0 0 2 6 2 0 0 0 0 0 0
0 23 4 3 3 3 2 2 2 1 4 2 2 0 0 0 0 0 0 0 0 0 0 0 0 0 0 0 0 0 0 0 0 0 0 0 0 0 0 0 0 0 0
12 2 2 2 2 1 2 2 2 2 4 1 1 1 1 0 1 2 3 3 3 3 2 0 0 0 0 0 0 0 0 0 0 0 0 0 0 0 0 0 0 0 0

GFSGL_con_mlcape_087.txt.gz
CAPE
0 3 35 12 7 5 2 0 0 24 25 52 16 1 3 122 121 105 86 70 93 125 315 290 59 306 509 441 271 396 411 451 502 519 292 267 298 266 219 207 138 34 30
0 2 23 56 45 0 31 7 0 0 0 0 0 0 0 0 0 0 2 37 90 75 143 287 431 268 229 351 352 585 555 420 551 430 390 317 232 157 137 129 34 0 20
0 0 0 46 36 0 16 0 0 0 0 0 0 0 0 0 0 0 0 0 44 20 11 40 247 769 455 276 736 464 615 619 402 318 412 172 107 51 30 0 1 0 0
0 0 0 6 9 2 1 0 0 0 0 0 0 0 0 0 0 0 0 0 0 0 8 52 94 240 736 1057 720 238 848 1034 439 349 278 273 133 29 3 11 4 0 0
0 0 3 13 5 5 0 0 0 0 0 0 0 0 0 0 0 0 0 0 0 0 0 1 8 1 11 210 998 1335 1376 1212 389 464 263 259 241 177 108 0 14 0 0
0 0 0 0 0 0 0 0 0 0 0 0 0 0 0 0 0 0 0 0 0 0 0 0 0 0 0 0 166 702 1554 1318 773 506 284 257 259 177 38 33 0 0 0
0 0 0 0 0 0 0 0 0 0 0 0 0 0 0 0 0 0 0 0 0 0 0 0 0 0 0 0 148 624 798 1245 1117 538 415 271 158 83 57 5 0 0 0
0 0 0 0 0 0 0 0 0 0 0 0 0 0 0 0 0 0 0 0 0 0 0 0 0 0 0 0 9 479 704 713 577 315 329 309 136 58 17 8 1 0 0
0 0 0 0 0 0 0 0 0 0 0 0 0 0 0 0 0 0 0 0 0 0 0 0 0 0 0 0 30 360 461 242 3 38 97 53 7 0 0 0 0 0 0
0 0 0 0 0 0 0 0 0 0 0 0 0 0 0 0 0 0 0 0 0 0 0 0 0 0 0 0 36 422 350 168 49 73 43 1 0 0 0 0 0 0 0
0 0 0 0 0 0 0 0 0 0 0 0 0 0 0 0 0 0 0 0 0 0 0 0 0 0 0 0 6 304 273 44 27 62 7 0 0 0 0 0 0 0 0
0 0 0 0 0 0 0 0 0 0 0 0 0 0 0 0 0 0 0 0 0 0 0 0 0 0 0 0 0 97 22 23 19 23 0 0 0 0 0 0 0 0 0
0 0 0 0 0 0 0 0 0 0 0 0 0 0 0 0 0 0 0 0 0 0 0 0 0 0 0 0 0 0 0 22 7 0 0 0 0 0 0 0 0 0 0
0 0 0 0 0 0 0 0 0 0 0 0 0 0 0 0 0 0 0 0 0 0 0 0 0 0 0 2 0 0 0 2 1 0 0 0 0 0 0 1 1 0 2
2 2 1 1 0 0 1 1 0 0 0 0 0 0 0 0 0 0 0 0 0 1 0 0 0 0 0 0 0 0 2 0 0 0 0 0 0 0 2 1 1 0 2
1 1 2 3 3 3 3 3 0 0 0 0 0 0 0 0 0 0 0 0 1 0 1 1 0 1 2 0 0 1 1 0 0 0 0 0 1 1 1 1 0 0 3
2 3 5 5 7 11 14 14 14 6 0 1 1 0 0 0 0 0 0 0 0 0 2 4 3 2 2 17 5 3 1 0 0 0 0 0 0 0 0 0 1 5 11
4 2 4 5 5 5 8 8 7 10 13 0 0 0 0 0 0 0 0 0 0 0 5 9 13 26 4 30 15 2 1 0 0 0 0 0 0 0 0 0 0 0 4
3 3 3 3 3 2 7 18 13 6 5 23 0 0 0 0 0 0 0 0 2 4 42 1 5 0 0 0 2 1 0 0 0 0 0 0 0 0 0 2 0 4 1
2 2 0 2 4 3 3 3 12 10 1 3 1 0 0 0 0 0 0 0 4 50 1 2 1 1 2 2 1 0 0 0 0 0 0 1 2 0 1 0 0 0 2
4 5 5 4 4 1 1 3 3 4 4 0 1 0 0 0 0 0 1 2 2 1 0 0 0 1 0 0 0 0 0 0 0 0 0 0 1 0 0 2 13 7 10
7 7 4 7 0 1 1 0 2 4 4 2 2 0 0 2 0 0 3 1 1 1 1 1 0 0 0 0 0 0 0 0 0 0 0 0 1 1 4 10 14 17 16
7 4 7 32 3 6 0 0 0 0 6 3 0 0 2 13 14 3 1 0 0 0 0 0 0 0 0 0 0 0 0 0 0 0 4 9 7 7 8 8 7 5 10
4 0 5 16 22 26 14 11 5 4 9 2 1 1 1 2 0 1 1 1 0 0 0 0 0 0 0 0 3 5 0 0 0 2 16 16 7 1 3 1 0 3 0
1 16 8 6 2 1 1 2 2 3 1 1 0 0 0 1 1 0 0 0 0 0 0 0 0 0 0 0 0 0 0 0 0 1 4 2 0 0 0 0 0 0 0
2 2 2 1 1 2 1 2 4 4 3 4 4 3 1 0 0 0 0 0 0 0 0 0 0 0 0 0 0 0 0 0 0 0 0 0 0 0 0 0 0 0 0

GFSGL_con_mlcape_093.txt.gz
CAPE
102 186 197 194 172 181 249 315 396 451 471 712 920 1043 1163 1270 1221 1414 1487 1430 1354 1222 1052 970 852 769 505 556 750 842 641 354 204 208 286 318 173 145 231 270 179 253 440
27 3 9 2 21 271 374 412 585 285 458 789 1036 816 458 591 728 669 597 439 481 447 438 537 424 336 330 470 533 496 616 504 161 27 0 41 55 37 4 170 187 206 313
0 0 2 0 0 34 240 293 518 599 582 1000 946 726 437 294 166 34 0 0 0 15 12 0 0 5 121 248 368 402 650 673 520 34 0 29 11 42 45 68 102 146 197
0 0 0 0 0 0 21 79 46 607 720 741 791 669 363 63 0 0 0 0 0 0 0 0 0 0 0 0 14 114 144 237 440 449 116 41 0 98 127 100 175 66 213
0 0 0 68 5 5 21 90 488 551 716 644 575 547 231 0 0 0 0 0 0 0 0 0 0 0 0 0 0 0 0 8 128 300 297 24 0 79 79 125 181 526 225
0 0 0 3 1 15 55 116 340 626 649 659 554 343 67 0 0 0 0 0 0 0 0 0 0 0 0 0 0 0 0 11 43 229 409 185 8 0 37 149 287 338 375
0 0 0 0 0 1 27 60 222 427 642 572 463 209 47 0 0 0 0 0 0 0 0 0 0 0 0 0 0 0 0 0 0 5 37 239 530 403 280 220 341 464 470
0 0 0 0 0 13 3 0 17 184 327 439 379 158 60 21 0 0 0 0 0 0 0 0 0 0 0 0 0 0 0 0 0 38 1 24 302 751 771 649 497 339 229
0 0 0 0 0 0 0 2 0 0 0 5 43 56 16 27 0 0 0 0 0 0 0 0 0 0 0 0 0 0 0 0 7 19 0 10 78 225 520 182 170 235 390
0 0 0 0 0 0 0 0 0 0 0 0 0 0 0 0 0 0 0 0 0 0 0 0 0 0 0 0 0 0 0 0 9 4 0 0 0 0 0 125 182 352 509
0 0 0 0 0 0 0 0 0 0 0 0 0 0 0 0 0 0 0 0 0 0 0 0 0 0 0 0 0 0 0 0 0 0 0 3 1 1 1 16 258 398 402
4 2 0 2 1 0 0 0 0 0 0 0 0 0 0 0 0 0 0 0 0 0 0 0 0 0 0 0 0 0 0 0 0 0 3 2 1 1 2 33 113 232 231
10 13 6 5 2 1 0 0 0 0 0 0 0 0 0 0 0 0 0 0 0 0 0 0 0 0 0 0 0 0 0 0 0 8 7 3 11 15 24 19 43 36 70
6 11 6 4 5 4 3 3 1 0 0 0 0 0 0 0 0 0 0 0 0 0 0 0 0 0 0 0 0 0 0 0 2 7 3 5 2 4 7 2 1 2 5
4 3 4 5 3 2 3 4 4 0 0 0 0 0 0 0 0 0 0 0 0 0 0 0 0 0 0 0 0 0 0 0 11 2 2 1 7 4 1 1 2 8 15
2 3 3 4 3 2 3 3 0 0 0 0 0 0 0 0 0 0 0 0 0 0 0 0 0 0 0 0 0 0 0 2 3 2 2 3 3 7 3 5 15 9 24
3 3 5 5 6 5 9 14 11 5 0 0 0 0 0 0 0 0 0 0 0 0 0 0 0 0 0 0 1 0 2 3 1 12 2 10 7 4 4 14 16 28 55
3 3 4 4 5 7 11 12 9 7 6 2 0 0 0 0 0 0 0 0 0 0 6 0 0 0 0 0 3 0 4 9 2 2 3 4 3 3 6 3 6 25 7
3 4 4 4 6 5 6 6 6 7 7 5 7 0 0 0 0 0 0 3 11 14 0 3 1 2 4 3 11 15 4 5 2 5 8 14 3 2 1 3 0 7 4
2 2 2 3 3 4 5 5 6 8 7 5 5 6 0 0 0 0 0 0 13 24 12 0 7 10 15 0 9 16 6 2 3 2 5 5 5 4 2 3 12 4 28
2 3 2 4 4 3 5 7 8 9 5 8 7 7 0 0 1 1 0 0 10 7 15 11 19 16 3 1 15 2 7 2 17 34 15 8 4 12 8 16 12 30 49
5 6 5 6 4 3 3 3 3 11 7 6 7 5 0 0 5 9 10 12 12 5 6 8 5 2 5 18 4 6 10 24 65 37 6 7 7 9 4 20 19 15 17
6 7 5 1 4 3 2 3 5 10 5 9 11 2 0 0 13 12 12 9 4 3 1 1 1 16 10 3 26 24 46 112 50 4 3 1 0 9 18 36 41 28 44
1 0 3 0 7 11 5 7 3 2 2 1 5 1 2 3 6 3 0 0 0 0 0 11 12 0 5 39 43 60 104 70 9 2 1 0 5 10 41 45 15 6 0
2 2 2 3 7 7 25 3 5 9 5 2 12 1 6 5 2 1 0 1 5 15 6 3 2 5 8 6 38 73 0 0 28 0 0 1 28 29 3 2 2 1 1
5 4 3 1 1 1 2 1 0 7 14 9 8 4 1 0 0 0 0 0 0 0 2 2 4 2 7 45 11 0 0 0 0 0 0 0 1 3 3 3 0 0 0

GFSGL_con_mlcape_096.txt.gz
CAPE
30 237 428 505 517 552 634 508 452 504 371 306 295 314 405 566 827 1158 1349 1576 1714 1962 1805 1399 1263 998 836 715 345 486 455 314 91 138 335 548 399 377 187 356 214 242 471
50 44 78 310 543 576 653 735 755 694 550 397 482 548 585 610 813 957 902 782 1153 1404 1635 1555 1312 1079 1119 1133 1057 928 770 657 564 483 316 320 81 82 156 34 28 210 444
22 93 16 93 399 536 820 1041 983 807 695 433 458 486 456 410 496 646 597 636 825 857 970 934 942 763 742 591 476 435 547 586 618 705 379 323 160 115 27 15 3 194 293
0 7 0 1 35 418 490 627 473 441 378 725 735 436 260 187 253 290 176 104 131 172 269 129 38 10 12 42 92 89 89 204 187 344 397 430 449 344 122 0 0 272 303
0 0 0 0 0 122 39 7 11 0 10 6 471 961 377 129 157 44 0 0 0 0 0 0 0 0 0 0 0 0 0 0 0 0 19 147 310 290 57 10 21 107 435
0 0 0 0 0 58 188 321 182 23 124 163 734 945 659 229 0 0 0 0 0 0 0 0 0 0 0 0 0 0 0 0 0 0 0 19 254 315 189 48 34 23 86
0 0 0 0 0 13 204 236 475 553 570 460 728 1017 849 656 0 0 0 87 72 38 9 0 0 0 0 0 0 0 0 0 0 0 0 0 25 184 289 187 28 2 45
0 0 0 0 0 0 34 304 355 598 881 1108 1043 1045 1066 969 125 0 0 12 199 193 130 71 8 0 0 0 0 0 0 0 0 0 0 4 26 68 338 633 714 589 319
2 0 0 0 0 0 1 77 465 454 687 943 1047 1208 1214 1125 319 4 0 0 4 187 165 109 37 0 0 0 0 0 0 0 0 0 0 0 16 4 15 227 537 619 391
10 3 2 0 2 0 0 1 163 481 457 475 702 954 1097 1143 419 11 0 0 0 12 119 105 0 0 0 0 0 0 0 0 0 0 1 4 2 34 0 28 374 396 404
11 4 2 2 3 2 2 1 5 120 363 333 290 379 561 677 800 62 0 3 2 1 7 0 1 0 0 0 0 0 0 0 0 0 0 0 0 63 64 0 247 580 601
2 8 14 1 2 2 2 10 9 11 38 36 203 254 315 342 110 4 0 0 0 2 0 0 0 0 0 0 0 0 0 0 0 0 0 0 2 82 2 14 355 606 597
14 9 17 7 0 0 1 15 18 19 20 6 1 47 69 76 145 0 0 0 0 0 0 0 0 0 0 0 0 0 0 0 0 0 0 0 96 22 22 118 228 446 314
5 5 2 2 0 15 5 0 1 10 17 16 9 5 23 6 1 0 0 0 0 0 0 0 0 0 0 0 0 0 0 0 0 0 2 81 55 78 101 102 132 175 146
6 8 4 3 4 3 0 1 0 0 6 20 13 9 18 20 9 0 0 0 0 0 0 0 0 0 0 0 0 0 0 0 0 5 33 57 52 72 65 56 120 122 125
7 4 6 4 7 8 6 6 0 0 0 0 0 1 17 6 1 0 0 0 0 0 0 0 0 0 0 0 0 0 0 0 4 20 37 3 35 50 42 57 75 127 81
5 7 3 3 6 7 8 6 5 1 0 0 0 0 0 0 0 0 0 0 0 0 0 0 0 0 0 0 0 0 0 0 7 49 39 3 29 70 71 115 129 105 104
4 2 4 5 5 7 10 12 12 8 8 0 0 0 0 0 0 0 0 0 0 0 0 0 0 0 0 0 0 0 1 8 31 40 29 28 42 40 56 118 97 82 94
2 2 3 3 3 3 4 4 5 11 12 9 8 0 0 0 0 0 0 1 0 0 0 0 0 0 0 0 0 0 1 10 21 13 26 31 21 24 75 48 44 37 35
1 1 2 2 2 3 4 7 4 4 4 4 8 8 0 0 0 0 0 0 6 6 4 5 0 0 0 0 0 3 17 26 18 12 22 6 33 7 0 3 28 14 27
2 3 1 2 2 2 3 3 4 6 3 4 3 7 2 0 1 2 4 5 7 6 12 3 0 0 2 4 14 9 95 7 40 29 15 38 50 10 7 6 18 13 23
5 3 4 6 4 3 3 4 5 4 7 7 6 3 0 3 1 3 1 3 2 2 6 10 19 22 3 6 11 21 19 24 50 70 52 121 63 4 10 13 25 31 40
5 3 3 3 3 3 2 2 3 5 7 7 4 6 0 2 5 3 3 3 3 3 5 19 5 0 20 22 37 16 13 70 84 96 102 71 25 24 22 18 22 26 31
1 0 0 2 4 4 2 2 1 1 4 2 7 0 1 0 3 2 4 2 5 10 6 14 9 14 14 16 34 34 115 111 64 97 66 30 14 9 13 24 15 0 0
1 2 21 36 2 1 2 7 9 7 7 9 5 11 5 2 6 3 7 13 12 11 10 12 12 0 0 24 28 208 23 21 125 54 42 30 20 24 15 1 1 1 0
5 4 3 3 1 2 4 3 1 0 1 24 12 2 1 0 10 11 9 13 17 13 3 0 6 35 80 162 134 6 3 0 7 4 29 36 3 2 1 1 0 0 0

GFSGL_con_mlcape_099.txt.gz
CAPE
20 15 9 151 410 536 788 1207 1581 2075 2253 1975 1971 2111 2294 2389 2457 2296 2275 2059 1977 2125 2194 1889 1770 1963 1638 1485 1292 913 747 458 289 336 171 124 185 574 529 309 309 359 273
0 1 87 85 230 217 386 888 1172 981 1003 904 1079 1141 1200 1187 1338 1372 1419 1223 1274 1608 1817 1851 1905 1629 1595 1631 1586 1237 954 797 727 676 495 398 506 611 985 516 790 457 29
0 0 6 141 185 224 89 158 492 743 585 375 375 365 383 411 593 888 924 864 773 875 979 1206 1427 1557 1521 1544 1437 1234 1396 1190 943 819 616 593 458 522 275 285 393 139 0
0 0 0 1 155 154 9 0 0 268 718 681 519 483 481 511 536 620 540 522 550 624 792 1067 1046 1212 1172 1053 927 843 814 619 406 391 322 240 274 351 307 340 276 66 0
0 0 0 0 0 105 0 0 0 0 0 58 301 749 392 266 226 282 307 320 374 427 405 457 202 46 0 33 22 2 0 0 0 0 0 1 33 192 133 208 188 3 26
0 0 0 0 0 0 28 0 0 2 24 0 9 64 43 212 114 186 227 132 98 127 107 4 2 0 0 0 0 0 0 0 0 0 0 0 0 39 110 295 261 7 8
12 7 4 0 0 13 0 11 0 0 12 13 0 34 69 577 159 26 0 14 77 27 45 55 2 0 0 0 0 0 0 0 0 0 0 0 0 23 96 154 290 282 15
18 18 17 13 4 2 19 18 98 105 1 2 18 3 93 16 0 0 0 252 304 189 227 251 186 39 5 0 0 0 0 0 0 0 0 8 72 68 101 201 248 275 237
7 23 15 37 16 11 4 23 70 330 397 399 642 558 470 557 148 2 0 181 611 506 322 388 443 431 258 0 0 0 0 0 0 0 0 0 0 0 0 1 17 73 117
5 15 19 25 15 13 11 11 29 141 301 543 718 862 891 799 233 12 0 0 221 332 507 596 248 380 240 8 0 0 0 0 0 0 0 0 0 0 0 0 30 52 87
23 17 8 16 7 5 5 0 24 26 111 440 595 710 828 878 720 62 0 37 16 54 42 264 321 130 40 0 0 0 0 0 0 0 0 0 0 0 0 66 189 115 181
14 7 6 7 0 1 15 0 0 2 6 236 476 545 612 865 838 203 1 23 288 310 149 113 153 119 15 0 0 0 0 0 0 0 0 0 0 0 5 133 143 107 238
22 11 0 21 8 7 2 5 0 1 0 24 287 438 516 548 699 389 135 1 55 192 436 219 29 0 0 0 0 0 0 0 0 0 0 0 0 14 26 127 61 74 441
2 6 0 11 15 21 17 3 0 0 8 5 137 250 426 485 560 359 70 0 0 0 0 41 50 0 0 0 0 0 0 0 0 0 0 0 7 16 157 71 372 508 326
2 15 19 12 6 7 9 8 0 0 0 7 50 210 248 278 342 455 361 207 31 0 0 1 39 2 0 0 0 0 0 0 0 0 0 1 46 110 161 265 402 281 78
0 0 2 0 6 4 3 5 0 0 0 0 0 0 0 0 3 28 51 99 13 0 0 0 0 0 0 0 0 0 0 0 0 0 0 65 39 95 164 190 189 79 71
5 6 4 4 2 5 3 7 8 2 0 0 0 0 0 0 0 0 0 0 0 0 0 0 0 0 0 0 0 0 0 0 0 0 9 105 45 62 105 109 101 77 105
9 2 4 5 11 6 4 3 6 8 7 0 0 0 0 0 0 0 0 0 0 0 0 0 0 0 0 0 0 0 0 0 0 0 73 74 78 92 118 87 102 99 172
2 2 3 3 3 2 3 7 10 6 2 1 0 0 0 0 0 0 0 0 0 0 0 0 0 0 0 0 0 0 0 0 0 16 132 37 67 116 106 43 55 117 144
2 2 2 3 2 2 2 2 3 5 12 11 5 0 0 0 0 0 0 0 0 0 0 0 0 0 0 0 0 0 0 0 13 76 9 59 82 65 41 26 120 126 105
2 2 2 2 1 1 1 3 3 3 3 3 4 6 0 0 0 0 0 0 0 0 0 1 2 0 0 0 0 0 0 7 146 30 51 81 11 95 72 88 113 129 56
5 5 3 3 2 2 2 2 2 5 6 3 4 1 0 1 0 0 0 0 0 0 0 1 2 0 0 0 0 0 8 17 114 64 92 81 90 70 78 97 117 118 26
7 5 4 3 3 3 2 3 2 4 6 3 3 3 1 5 5 1 3 6 3 2 5 10 4 5 8 7 10 0 8 8 114 90 115 115 43 70 73 133 87 64 44
0 0 3 17 1 3 2 3 3 4 4 4 8 11 0 0 1 2 0 1 2 5 5 6 8 7 12 17 11 28 27 82 57 126 117 165 55 53 98 88 54 66 1
1 2 16 15 11 0 2 5 5 5 8 2 2 2 1 0 1 1 6 2 3 1 1 3 1 0 9 0 32 14 9 2 74 124 136 134 41 73 40 8 0 0 0
5 5 5 2 3 16 5 3 2 3 3 0 0 0 5 8 1 1 0 1 6 2 4 3 6 3 3 2 0 8 4 5 47 17 48 60 37 7 0 0 0 0 0

GFSGL_con_mlcape_102.txt.gz
CAPE
0 3 1 0 0 17 118 116 280 346 1008 1322 1483 1967 1993 1761 1646 1428 1300 1203 590 23 665 1202 2318 2412 2321 2142 1971 1645 1435 1099 835 917 698 587 470 343 319 673 857 509 369
4 9 7 0 12 26 31 49 13 1 2 3 45 1116 1788 1767 1217 335 0 671 519 247 609 1188 1952 2059 2041 1999 1841 1396 1197 1011 841 638 612 572 744 774 687 492 700 780 705
0 0 0 0 3 0 14 96 82 0 0 0 0 0 0 1368 1332 575 131 217 0 866 1510 1796 1634 1573 1472 1687 1744 1336 817 923 704 411 394 445 763 723 331 239 425 311 485
0 0 0 0 0 0 0 0 97 11 0 0 0 0 2 383 1311 1322 1141 1313 1111 1061 1412 1441 1329 1364 1359 1421 1638 1179 857 637 490 327 417 540 432 382 301 162 122 224 184
7 0 0 0 0 0 0 10 6 11 0 0 0 0 0 0 651 977 1130 1135 996 736 1105 836 1067 1204 1318 1166 921 523 177 62 20 0 0 0 0 47 107 211 87 88 121
18 5 0 1 0 0 0 0 30 0 0 0 0 0 0 0 0 106 43 685 751 662 792 740 189 9 0 1 0 0 0 0 0 0 0 0 0 0 0 5 67 80 70
9 7 9 7 12 8 1 0 1 24 0 0 0 0 0 9 0 0 0 348 408 371 393 204 0 2 0 0 0 0 0 0 0 0 0 0 0 0 0 0 0 0 16
5 8 15 19 0 1 0 3 9 31 29 0 0 0 0 14 0 0 0 0 311 210 190 80 70 15 0 0 0 0 0 0 0 0 0 0 0 0 0 0 1 0 5
0 11 13 0 3 11 0 1 12 25 5 21 14 19 5 30 14 0 0 0 2 232 184 474 202 10 0 0 10 0 0 0 0 0 0 0 0 0 0 0 0 0 0
33 28 24 19 12 3 0 0 2 13 16 43 64 93 70 105 46 20 0 0 0 177 422 558 412 417 245 2 2 1 0 0 0 0 0 0 0 0 0 0 0 0 2
2 15 9 10 16 4 1 0 0 0 0 0 13 150 210 410 156 6 0 0 0 3 656 745 682 224 296 73 64 120 53 16 0 0 0 0 0 0 0 0 0 0 0
4 1 6 22 4 20 12 0 0 0 0 0 0 5 157 204 241 1 1 0 0 0 432 616 548 405 71 21 0 6 0 0 0 0 0 0 0 0 0 12 166 224 201
2 3 1 12 11 3 5 10 0 0 0 0 0 1 27 294 347 127 1 0 0 0 155 16 53 192 88 8 0 4 0 0 0 0 0 0 0 0 78 0 0 111 33
0 4 10 11 16 7 12 8 16 21 0 0 0 0 0 185 255 117 0 0 0 0 0 14 28 0 0 7 0 0 0 0 0 0 0 0 0 0 3 0 81 64 392
1 5 7 4 3 4 0 0 0 7 13 4 3 7 2 117 0 0 108 82 31 0 10 170 123 20 0 0 0 0 0 0 0 0 0 0 5 23 17 19 164 171 265
3 3 7 5 14 22 9 2 0 0 0 1 0 0 0 0 0 0 0 8 217 106 59 85 148 193 172 103 55 3 0 0 0 0 0 0 0 10 6 87 182 183 103
2 3 6 5 5 7 7 2 6 0 0 0 0 0 0 0 0 0 0 0 0 0 0 6 85 121 105 8 0 0 0 0 0 0 0 11 76 29 16 61 111 66 21
1 1 2 6 5 4 4 6 4 4 4 5 0 0 0 0 0 0 0 0 0 0 2 14 4 21 16 5 0 0 0 0 0 0 0 17 70 37 29 86 127 31 44
4 2 2 2 3 3 1 4 8 4 6 5 1 0 0 0 0 0 0 0 0 7 94 72 82 43 4 0 0 0 0 0 0 0 56 108 46 11 13 83 91 47 4
3 2 2 2 2 3 2 2 2 4 10 6 1 0 0 0 0 0 0 0 0 0 3 0 0 0 0 0 0 0 0 0 0 0 29 47 2 0 62 60 33 6 0
5 5 2 2 1 1 1 1 2 3 3 9 2 0 0 0 0 0 0 0 0 0 0 0 0 0 0 0 0 0 0 0 0 59 66 43 21 29 22 33 29 2 22
4 4 4 2 2 2 1 1 2 2 4 3 0 0 0 0 0 0 0 0 0 0 0 0 0 0 0 0 0 0 0 0 26 47 25 31 32 98 103 53 25 37 13
1 2 3 2 3 2 3 1 1 3 6 6 4 0 1 0 4 0 1 0 1 0 0 0 0 0 0 0 9 15 0 0 30 41 7 30 70 65 17 19 62 1 0
3 1 20 0 0 1 1 1 1 2 2 6 1 5 0 0 13 0 1 0 0 0 0 0 0 0 0 1 0 0 0 0 2 89 79 69 119 91 35 59 19 0 0
6 4 2 2 0 2 2 3 3 3 2 4 1 3 7 1 1 0 0 2 0 0 0 0 0 0 0 0 0 0 0 0 24 54 75 75 36 0 25 0 0 0 0
8 7 6 4 2 2 0 0 0 0 0 1 2 4 0 1 0 0 0 0 0 0 2 1 0 0 0 0 0 0 0 0 0 0 47 53 47 12 0 0 0 0 0

GFSGL_con_mlcape_105.txt.gz
CAPE
0 0 0 0 0 0 0 0 0 0 0 0 0 0 0 0 0 0 0 0 0 294 872 309 94 60 0 26 416 710 953 1135 1070 913 698 572 621 476 631 523 512 509 606
0 0 0 0 0 0 0 0 0 0 0 0 0 0 0 0 0 0 0 0 60 175 72 1 1 22 0 1 0 553 1148 1280 1051 635 461 316 503 392 435 384 433 388 670
0 0 0 0 0 0 0 0 0 0 0 0 0 0 0 0 0 0 0 0 0 26 14 0 0 0 75 83 193 593 1074 1196 932 664 453 76 34 1 0 158 274 237 182
2 0 0 0 0 0 0 0 0 0 0 0 0 0 0 0 0 0 0 0 0 16 96 73 7 3 185 463 684 1168 1194 965 721 508 152 10 0 0 0 122 271 189 229
0 0 0 0 0 0 0 0 0 0 0 0 0 0 0 0 0 0 0 0 0 26 0 1 0 0 322 659 881 1321 863 560 354 264 111 42 4 0 0 0 0 12 35
0 0 0 0 0 0 0 0 0 0 0 0 0 0 0 0 0 0 0 0 2 25 89 155 561 432 589 808 833 464 227 53 0 0 0 0 0 0 0 0 0 0 0
0 0 0 0 0 0 1 2 0 0 0 0 0 0 0 1 0 0 0 1 0 0 40 20 89 120 126 32 0 0 0 0 0 0 0 0 0 0 0 0 0 0 0
0 0 0 0 0 0 0 0 0 0 0 0 0 11 12 9 1 0 0 0 0 23 39 57 15 0 0 0 0 0 0 0 0 0 0 0 0 0 0 0 0 0 0
0 0 0 3 4 3 1 0 0 0 0 1 0 13 51 11 2 12 0 0 1 86 62 2 3 0 0 0 0 0 0 0 0 0 0 0 0 0 0 0 0 0 0
0 0 0 0 0 2 2 5 7 0 0 0 0 0 0 15 0 0 0 0 0 103 76 33 0 1 0 0 0 0 0 0 0 0 0 0 0 0 0 0 0 0 0
0 1 2 6 12 15 6 6 15 10 0 0 0 0 0 0 9 4 0 0 0 8 85 186 103 6 0 0 0 0 0 0 0 0 0 0 0 0 0 0 0 0 0
0 0 0 0 3 5 4 15 20 19 2 0 0 0 0 0 1 4 5 0 1 0 38 107 137 31 31 8 0 0 0 0 0 0 0 0 0 0 0 0 60 1 6
2 1 0 1 1 3 15 15 26 17 0 0 0 0 0 0 0 1 27 2 0 0 0 59 74 2 61 54 33 0 0 0 0 0 0 0 0 0 0 0 0 0 2
3 2 2 0 1 0 5 10 24 22 0 0 0 0 0 0 0 0 0 0 0 0 0 0 0 0 0 0 0 0 0 0 0 0 0 0 0 0 0 0 0 1 96
3 2 2 4 3 2 1 8 0 3 3 0 0 2 0 0 0 0 0 0 0 0 0 0 0 0 0 0 0 0 0 0 0 0 0 0 0 0 0 0 0 107 171
3 3 1 2 3 3 3 1 0 0 1 0 0 0 0 0 0 0 0 0 0 0 0 0 0 0 0 0 0 0 0 0 0 0 0 0 0 0 0 0 0 213 158
3 3 4 2 2 3 3 3 7 1 0 0 0 0 0 0 0 0 0 0 0 0 0 0 0 0 0 0 0 0 0 0 0 0 0 0 0 5 0 0 17 125 85
2 3 3 2 1 1 6 8 4 4 6 1 0 0 0 0 0 0 0 0 0 0 0 0 4 13 10 20 16 0 0 0 0 0 0 0 11 0 0 0 26 125 69
5 5 3 3 1 1 3 5 5 2 0 1 0 0 0 0 0 0 0 0 0 0 0 0 0 0 0 10 0 0 0 0 0 0 0 11 32 0 0 0 72 86 43
6 5 2 3 3 1 2 3 2 1 7 3 1 0 0 0 0 0 0 0 0 0 0 3 0 0 0 0 0 0 0 0 0 0 0 0 0 5 0 15 70 93 36
7 6 2 2 4 2 1 2 2 2 2 1 4 2 0 0 0 0 0 0 0 0 0 0 7 0 0 0 0 0 0 0 0 0 1 5 7 2 20 53 75 65 27
2 1 1 2 2 3 2 1 3 2 3 1 0 1 0 1 2 0 0 0 0 0 0 0 1 0 0 0 0 0 0 0 0 2 10 10 7 12 16 55 4 4 1
4 1 1 1 2 1 2 1 2 3 4 3 0 2 3 12 1 0 0 0 0 0 0 0 0 0 0 0 0 0 0 0 0 4 0 4 18 12 31 47 21 13 11
5 4 2 0 2 2 2 1 1 1 3 1 0 0 0 0 1 0 0 0 0 0 0 0 0 0 0 0 0 0 0 0 0 0 22 50 64 73 68 49 10 2 0
7 5 4 2 1 1 1 1 2 0 0 0 4 2 0 0 0 1 0 0 0 0 0 0 0 0 0 0 0 0 0 0 0 14 45 37 49 45 25 33 13 0 0
7 8 8 6 3 2 1 0 0 0 0 0 1 0 0 0 0 1 1 4 1 0 0 0 0 0 0 0 0 0 0 0 0 2 11 24 12 30 2 2 0 1 0

GFSGL_con_mlcape_108.txt.gz
CAPE
0 0 0 0 0 0 0 0 0 0 0 0 0 0 0 0 0 0 0 0 28 38 23 33 61 67 63 20 1 4 48 2 49 78 148 315 379 300 232 140 111 325 383
0 0 0 0 0 0 0 0 0 0 0 0 0 0 0 0 0 0 0 0 0 0 0 0 78 106 11 0 0 0 0 0 0 121 157 335 378 309 357 303 260 202 330
0 0 0 0 0 0 0 0 0 0 0 0 0 0 0 0 0 0 0 0 0 0 4 158 137 78 2 1 0 0 0 2 1 94 228 242 212 89 15 0 0 0 121
0 0 0 0 0 0 0 0 0 0 0 0 0 0 0 0 0 0 0 0 0 0 0 0 0 0 7 25 0 1 4 10 96 187 238 159 50 1 0 0 0 0 33
0 0 0 0 0 0 0 0 0 0 0 0 0 0 0 0 0 0 0 0 0 0 0 0 0 17 44 30 3 9 0 15 93 225 174 71 49 0 0 0 0 0 0
0 0 0 0 0 0 0 0 0 0 0 0 0 0 0 0 0 0 0 0 0 0 0 0 0 29 127 4 132 193 326 282 185 143 53 82 11 0 0 0 0 0 0
0 0 0 0 0 0 0 0 0 0 0 0 0 0 0 0 0 0 4 1 0 0 0 0 0 22 126 91 70 134 189 167 129 31 41 0 0 0 0 0 0 0 0
0 0 0 0 0 0 0 0 0 0 0 0 0 0 0 0 0 0 8 1 0 0 0 0 14 54 82 74 46 127 55 2 0 0 0 0 0 0 0 0 0 0 0
0 0 0 0 0 0 0 0 0 0 0 0 0 0 0 0 0 0 10 0 0 0 0 25 35 44 54 10 0 0 0 0 0 0 0 0 0 0 0 0 0 0 0
0 0 0 0 0 0 0 0 1 1 5 9 6 4 8 0 0 0 0 3 0 0 0 31 22 12 0 0 0 0 0 0 0 0 0 0 0 0 0 0 0 0 0
0 0 0 0 1 2 1 1 0 0 3 10 8 5 3 0 0 0 4 0 0 0 0 17 0 0 0 0 0 0 0 0 0 0 0 0 0 0 0 0 0 0 0
0 0 0 0 1 1 0 4 1 0 1 3 3 0 1 0 0 0 10 0 0 0 0 51 31 0 0 0 0 0 0 0 0 0 0 0 0 0 0 0 0 8 0
1 1 1 1 1 0 2 2 0 5 10 4 0 0 0 0 0 0 0 0 0 0 0 1 51 4 19 15 29 0 0 0 0 0 0 0 0 0 0 0 0 0 2
1 1 1 1 2 0 2 2 3 0 2 6 0 0 0 0 0 1 31 0 0 1 0 0 19 95 76 0 0 0 0 15 8 0 0 0 0 0 0 0 0 5 28
1 2 1 2 2 1 2 3 3 3 9 12 7 0 0 0 0 0 0 0 0 0 0 0 0 10 43 16 0 0 0 0 0 0 0 0 0 0 0 0 2 0 212
3 3 2 3 4 2 3 2 1 0 0 0 0 6 4 4 0 0 0 0 0 0 0 0 0 2 4 9 2 0 0 0 0 0 0 0 0 0 0 0 0 34 249
3 3 3 3 3 3 2 3 3 2 0 0 0 0 1 0 0 0 0 0 0 0 0 0 0 0 3 0 0 0 0 0 0 0 0 0 0 0 0 0 3 55 203
3 5 5 4 4 3 1 1 4 4 2 0 0 0 0 0 0 0 0 0 0 0 1 0 0 0 0 0 0 0 0 0 0 0 0 0 0 0 0 0 0 11 104
6 7 6 4 3 2 2 1 3 3 3 2 1 0 0 0 0 0 0 0 0 0 0 0 0 0 0 0 0 0 0 0 0 0 0 0 0 0 0 2 6 3 38
8 7 5 4 3 3 2 1 2 4 3 1 0 2 0 0 0 0 0 0 0 0 0 0 0 0 0 0 0 0 0 0 0 0 0 0 0 0 0 9 12 0 12
6 4 1 0 2 2 2 0 2 3 1 1 2 0 0 0 0 0 0 0 0 0 0 0 0 0 0 0 0 0 0 0 0 0 0 0 0 0 11 25 18 64 89
3 2 0 2 1 2 1 1 1 2 1 1 0 0 0 0 0 0 0 0 0 0 0 0 0 0 0 0 0 0 0 0 0 0 0 0 0 7 26 14 8 53 23
5 2 0 1 1 1 1 2 1 1 1 0 0 0 0 0 0 0 0 0 0 0 0 0 0 0 0 0 0 0 0 0 0 0 0 0 0 8 9 16 41 46 33
6 5 3 0 1 1 1 1 1 0 0 0 0 0 0 3 1 0 0 0 0 0 0 0 0 0 0 0 0 0 0 0 0 0 0 0 1 0 20 41 47 5 1
7 7 5 3 3 0 0 0 1 0 0 0 0 0 0 0 2 0 0 0 0 0 0 0 0 0 0 0 0 0 0 0 0 0 0 8 4 0 14 33 4 1 1
7 6 7 6 5 3 2 1 0 0 0 0 0 0 0 0 0 1 0 0 0 0 0 0 0 0 0 0 0 0 0 0 0 0 0 0 0 1 0 1 0 0 0

GFSGL_con_mlcape_111.txt.gz
CAPE
0 0 0 0 0 0 0 0 0 0 0 0 0 0 0 0 0 0 0 0 0 0 0 0 0 0 0 0 0 2 33 20 26 18 6 3 24 57 153 139 175 131 43
0 0 0 0 0 0 0 0 0 0 0 0 0 0 0 0 0 0 0 0 0 0 0 0 0 0 0 15 39 3 12 0 8 17 7 7 0 20 89 128 61 31 39
0 0 0 0 0 0 0 0 0 0 0 0 0 0 0 0 0 0 0 0 0 0 0 0 0 0 43 0 7 0 0 0 0 0 0 0 0 12 107 52 34 0 0
0 0 0 0 0 0 0 0 0 0 0 0 0 0 0 0 0 0 0 0 0 0 0 0 0 0 0 0 1 3 10 0 0 0 0 3 23 26 17 7 0 0 0
0 0 0 0 0 0 0 0 0 0 0 0 0 0 0 0 0 0 0 0 0 0 0 0 0 0 0 0 4 18 86 3 2 1 2 10 0 4 15 0 0 0 0
0 0 0 0 0 0 0 0 0 0 0 0 0 0 0 0 0 0 0 0 0 0 0 0 0 0 0 0 0 0 0 0 1 4 2 45 42 28 0 0 0 0 0
0 0 0 0 0 0 0 0 0 0 0 0 0 0 0 0 0 0 0 0 0 0 0 0 1 2 3 0 0 0 0 1 0 38 65 30 11 9 0 0 0 0 0
0 0 0 0 0 0 0 0 0 0 0 0 0 0 0 0 0 0 0 0 0 0 0 0 2 0 0 1 0 1 3 110 21 76 44 1 0 0 0 0 0 0 0
0 0 0 0 0 0 0 0 0 0 0 2 0 0 0 0 0 0 0 0 0 0 0 1 1 8 1 4 4 5 54 185 3 0 0 0 0 0 0 0 0 0 0
0 0 0 0 0 0 0 0 0 1 0 0 2 0 0 0 0 0 0 7 0 0 3 0 12 0 0 14 47 47 25 0 0 0 0 0 0 0 0 0 0 0 0
0 0 0 0 0 1 0 0 0 1 2 2 0 0 4 0 0 0 6 1 0 4 0 1 25 9 0 0 0 0 0 0 0 0 0 0 0 0 0 0 0 0 0
0 0 0 0 0 1 1 2 1 1 3 0 0 0 0 0 0 0 2 0 6 0 0 3 15 0 6 0 0 0 0 0 0 0 0 0 0 0 0 0 0 0 0
0 0 1 1 1 0 1 1 2 1 1 1 4 9 3 0 1 0 0 0 2 0 0 3 2 0 0 0 0 0 0 0 0 0 0 0 0 0 0 0 0 0 0
2 2 1 1 1 1 1 1 2 2 2 2 2 9 3 0 0 0 0 2 5 0 0 0 0 0 0 0 0 0 0 0 0 0 0 0 0 0 0 0 0 0 0
2 2 2 2 3 2 1 2 1 1 3 4 7 3 0 0 0 0 0 2 0 0 0 1 0 0 0 0 0 0 0 0 0 0 0 0 0 0 0 0 0 0 1
3 4 3 3 3 3 3 2 0 0 1 0 0 0 0 0 0 0 0 0 0 0 0 0 0 0 6 19 6 0 0 0 0 0 0 0 0 0 0 0 0 0 66
4 4 4 4 4 4 3 2 2 1 0 0 0 0 0 0 0 0 0 0 0 1 0 0 0 0 9 46 32 13 9 0 0 0 0 0 0 0 0 0 0 0 110
4 5 4 5 5 4 3 2 2 1 2 1 0 0 0 0 0 0 0 0 0 0 2 0 0 0 0 11 19 6 0 0 0 0 0 0 0 0 0 0 0 0 61
6 7 5 6 5 3 2 2 2 1 2 4 0 0 0 0 0 0 0 0 0 0 1 0 0 0 0 3 0 0 0 0 0 0 0 0 0 0 0 0 0 0 0
7 6 4 3 3 2 2 2 1 1 3 1 1 1 0 0 0 0 0 0 0 0 0 0 0 0 0 0 0 0 0 0 0 0 0 0 0 0 0 0 0 0 0
5 2 0 3 1 1 2 1 0 2 3 0 4 0 0 0 0 0 0 0 0 0 0 0 0 0 0 0 0 0 0 0 0 0 0 0 0 0 0 0 0 0 0
3 3 2 2 1 2 1 0 0 2 1 0 1 0 0 0 0 0 0 0 0 0 0 0 0 0 0 0 0 0 0 0 0 0 0 0 0 0 0 0 0 0 0
4 4 2 1 1 1 1 0 2 2 1 0 0 0 0 0 0 0 0 0 0 0 0 0 0 0 0 0 0 0 0 0 0 0 0 0 0 0 1 7 0 0 8
4 5 5 2 2 1 1 1 1 1 0 0 0 0 0 0 0 0 0 0 0 0 0 0 0 0 0 0 0 0 0 0 0 0 0 0 0 0 16 0 0 30 38
5 5 6 5 4 2 1 0 0 0 0 0 0 0 0 0 0 0 0 0 0 0 0 0 0 0 0 0 0 0 0 0 0 0 0 0 0 0 0 0 0 0 2
3 3 5 6 6 5 3 1 0 0 0 0 0 0 0 0 0 0 0 0 0 0 0 0 0 0 0 0 0 0 0 0 0 0 0 0 0 0 0 0 0 2 2

GFSGL_con_mlcape_114.txt.gz
CAPE
0 0 0 0 0 0 0 0 0 0 0 0 0 0 0 0 0 0 0 0 0 0 0 0 0 0 0 0 0 1 2 6 11 0 1 0 0 0 0 0 36 75 126
0 0 0 0 0 0 0 0 0 0 0 0 0 0 0 0 0 0 0 0 0 0 0 0 0 0 0 0 3 2 21 48 42 15 0 0 0 0 0 0 2 28 75
0 0 0 0 0 0 0 0 0 0 0 0 0 0 0 0 0 0 0 0 0 0 0 0 0 0 0 0 0 18 5 36 56 60 27 3 8 3 0 0 0 5 19
0 0 0 0 0 0 0 0 0 0 0 0 0 0 0 0 0 0 0 0 0 0 0 0 0 0 0 0 0 0 0 0 5 3 2 0 0 0 0 0 0 0 26
0 0 0 0 0 0 0 0 0 0 0 0 0 0 0 0 0 0 0 0 0 0 0 0 0 0 0 0 0 0 0 0 1 2 1 0 3 0 0 0 0 2 6
0 0 0 0 0 0 0 0 0 0 0 0 0 0 0 0 0 0 0 0 0 0 0 0 0 0 0 0 0 0 0 8 8 8 12 6 1 4 2 0 1 26 6
0 0 0 0 0 0 0 0 0 0 0 0 0 0 0 0 0 0 0 0 1 0 0 0 0 0 0 0 0 0 0 0 0 1 10 3 9 1 0 0 25 7 0
0 0 0 0 0 0 0 0 0 0 0 0 0 0 0 0 0 0 0 0 0 0 0 0 0 0 0 2 2 3 2 1 1 0 1 6 14 8 4 5 10 0 0
0 0 0 0 0 0 0 0 0 0 0 0 0 0 0 0 0 0 0 0 0 0 0 0 0 2 0 8 5 9 4 3 4 0 0 2 5 3 0 0 0 0 0
0 0 0 0 0 0 0 0 0 0 0 0 0 0 0 0 0 0 0 0 0 0 0 0 0 0 6 0 0 1 2 2 2 0 5 4 0 0 0 0 0 0 0
0 0 0 0 0 0 0 0 0 0 0 0 0 0 0 0 0 0 0 0 1 1 12 2 9 9 5 0 0 1 5 2 0 1 0 0 0 0 0 0 0 0 0
0 0 0 0 0 1 2 2 1 1 1 1 1 2 0 0 0 0 0 0 0 6 5 4 1 0 0 0 0 0 0 1 5 1 0 0 0 0 0 0 0 0 0
0 1 0 1 2 2 2 1 1 1 2 2 2 2 1 2 0 0 0 0 0 0 0 0 0 0 0 0 0 0 0 14 3 0 0 0 0 0 0 0 0 0 0
2 2 2 2 2 2 1 1 1 2 2 3 2 2 1 0 5 1 0 0 0 0 0 0 0 1 0 0 0 0 0 0 0 0 0 0 0 0 0 0 0 0 0
1 2 2 3 3 3 2 2 2 1 2 2 3 5 3 2 0 0 0 0 0 5 2 0 0 0 0 0 0 0 0 7 14 0 0 0 0 0 0 0 0 0 0
3 3 4 4 4 3 3 4 1 0 0 0 0 0 0 0 0 0 0 0 0 4 0 0 2 1 0 0 0 8 24 19 4 0 0 0 0 0 0 0 0 0 0
3 4 4 5 6 6 5 4 3 1 0 0 0 0 0 0 0 0 0 0 0 0 0 0 7 16 0 0 0 28 12 3 0 0 0 0 0 0 0 0 0 0 0
4 6 5 6 5 4 4 3 1 1 1 1 0 0 0 0 0 0 0 0 0 0 1 0 2 5 9 5 6 36 11 0 0 0 0 0 0 0 0 0 0 0 0
5 6 5 5 3 3 3 2 1 1 1 1 2 0 0 0 0 0 0 0 0 0 0 1 0 3 11 34 11 28 14 0 0 0 0 0 0 0 0 0 0 0 0
5 5 3 1 1 3 1 1 1 0 1 1 0 0 0 0 0 0 0 0 0 0 0 1 0 1 30 12 0 0 0 0 0 0 0 0 0 0 0 0 0 0 0
4 4 2 3 2 2 1 1 1 0 1 1 1 1 0 0 0 0 0 0 0 0 0 0 0 0 3 0 0 0 0 0 0 0 0 0 0 0 0 0 0 0 0
3 3 3 2 1 1 1 1 1 1 1 0 0 0 0 0 0 0 0 0 0 0 0 0 0 0 0 0 0 0 0 0 0 0 0 0 0 0 0 0 0 10 3
3 4 4 1 1 1 1 1 0 0 1 0 0 0 0 0 0 0 0 0 0 0 0 0 0 0 0 0 0 0 0 0 0 0 0 0 0 0 0 0 12 17 12
3 3 6 5 3 1 3 0 0 0 1 0 0 0 0 0 0 0 0 0 0 0 0 0 0 0 0 0 0 0 0 0 0 0 0 0 0 0 0 0 1 0 5
4 6 6 7 5 4 0 1 0 0 0 0 0 0 0 0 0 0 0 0 0 0 0 0 0 0 0 0 0 0 0 0 0 0 0 0 0 0 0 0 2 0 0
4 4 4 6 7 7 5 2 0 0 0 0 0 0 0 0 0 0 0 0 0 0 0 0 0 0 0 0 0 0 0 0 0 0 0 0 0 0 0 0 0 0 1

GFSGL_con_mlcape_117.txt.gz
CAPE
0 0 0 0 0 0 0 0 0 0 0 4 5 0 0 0 0 0 0 0 0 0 0 0 0 0 0 0 0 0 0 11 9 8 7 10 48 89 114 153 149 224 277
0 0 0 0 0 0 0 0 0 0 0 0 0 0 0 0 0 0 0 0 0 0 0 0 0 0 0 0 0 0 0 0 10 1 5 9 44 146 155 180 94 23 166
0 0 0 0 0 0 0 0 0 0 0 0 0 0 0 0 0 0 0 0 0 0 0 0 0 0 0 0 0 0 0 2 9 9 13 52 73 143 299 222 74 23 41
0 0 0 0 0 0 0 0 0 0 0 0 0 0 0 0 0 0 0 0 0 0 0 0 0 0 0 0 0 0 0 1 9 8 5 39 81 121 109 102 55 30 6
0 0 0 0 0 0 0 0 0 0 0 0 0 0 0 0 0 0 0 0 0 0 3 0 8 11 0 0 0 0 0 0 6 12 26 18 59 76 45 17 20 31 25
0 0 0 0 0 0 0 0 0 0 0 0 0 0 0 0 0 0 0 0 0 0 19 18 21 19 5 0 0 0 0 0 3 14 27 16 10 11 41 11 58 29 41
0 0 0 0 0 0 0 0 0 0 0 0 0 0 0 0 0 0 0 0 0 1 0 34 29 22 25 14 6 0 0 0 0 0 3 20 25 6 23 4 19 43 56
0 0 0 0 0 0 0 0 0 0 0 0 0 0 0 0 0 0 0 0 0 2 17 15 34 40 17 10 13 12 0 0 1 0 0 0 11 16 19 9 13 17 0
0 0 0 0 0 0 0 0 0 0 0 0 0 0 0 0 0 0 0 0 3 11 26 34 6 3 1 0 7 14 1 2 0 0 10 5 0 0 0 0 1 0 0
0 0 0 0 0 0 0 0 0 0 0 0 0 0 0 0 0 0 0 3 7 10 10 3 0 0 0 0 0 4 1 4 0 4 0 0 0 2 0 0 0 0 0
0 0 0 0 0 0 0 0 0 1 1 1 1 0 0 0 0 0 0 3 5 5 5 1 5 2 1 2 0 24 8 0 0 6 8 10 9 7 0 0 0 0 0
0 0 0 0 0 1 1 2 2 2 2 2 2 0 0 0 0 0 0 0 0 0 1 5 13 22 3 0 0 0 0 0 3 3 5 11 5 0 1 0 0 0 1
0 0 1 1 1 2 2 3 2 2 3 2 2 2 0 0 0 0 0 0 0 0 1 2 11 0 0 0 0 0 0 1 3 7 7 2 0 0 0 0 0 0 0
2 2 2 3 3 2 2 2 3 3 3 2 3 3 3 2 0 0 11 9 0 0 0 1 0 0 0 0 0 1 2 1 4 5 35 3 0 0 0 0 1 0 1
2 3 3 3 3 4 2 3 2 1 2 2 3 3 3 2 1 0 0 0 15 42 12 21 16 0 2 32 53 32 0 0 0 0 0 0 0 0 0 2 23 20 55
4 4 4 5 4 4 4 4 1 1 2 1 0 0 3 0 0 0 0 0 0 0 8 19 0 1 29 102 89 94 48 45 32 43 14 2 0 0 0 0 26 108 125
4 4 4 5 6 6 5 4 2 1 2 1 0 0 0 0 0 0 0 0 0 1 2 11 0 5 57 71 113 46 7 39 32 14 0 0 0 0 0 8 110 153 136
2 4 5 5 5 4 3 3 2 1 1 1 1 0 0 0 0 0 0 0 0 2 5 1 1 13 72 73 81 52 60 83 117 117 87 22 18 5 3 82 133 127 171
4 5 4 5 3 2 1 2 1 1 0 1 0 0 0 0 0 0 0 0 0 1 0 0 0 42 70 52 104 138 126 175 161 123 70 75 35 20 57 131 86 0 79
4 3 2 2 1 2 1 0 0 0 1 0 1 2 0 0 0 0 0 0 0 1 1 0 0 55 86 87 95 112 104 131 145 126 94 25 2 0 3 83 95 43 52
3 3 2 2 2 1 2 1 1 1 0 1 1 0 0 5 6 1 0 0 0 0 0 0 0 71 76 109 114 125 151 129 103 50 0 0 0 1 0 2 90 124 176
3 3 3 2 1 1 1 2 1 1 4 0 1 0 0 2 3 0 0 0 0 0 0 0 0 40 79 99 135 147 119 76 1 0 0 0 67 97 107 177 196 163 165
4 3 3 4 1 0 3 3 2 1 1 0 0 1 0 1 9 0 0 0 0 0 0 0 0 6 32 53 64 73 58 1 0 17 23 0 3 7 9 4 2 20 81
3 4 7 6 3 2 2 5 6 1 0 0 0 0 1 27 28 0 0 0 0 0 0 0 0 0 16 16 1 0 0 0 0 0 0 0 0 0 0 0 2 0 0
4 4 5 7 8 7 4 4 3 3 3 1 1 0 0 6 18 1 0 0 0 0 0 0 0 0 2 0 0 0 0 0 0 0 0 0 0 0 0 0 0 0 0
4 4 5 5 7 7 7 7 6 5 2 1 2 1 0 7 10 0 0 0 0 0 0 0 0 0 0 0 0 0 0 0 0 0 0 0 0 0 0 0 1 0 0

GFSGL_con_mlcape_120.txt.gz
CAPE
0 0 0 0 0 0 0 1 16 60 104 92 99 70 59 43 37 19 6 0 0 0 0 0 0 0 0 0 0 0 0 0 0 0 1 5 20 9 99 250 253 330 309
0 0 0 0 0 0 0 0 0 1 9 6 1 9 31 61 71 72 54 21 0 0 0 0 0 0 8 5 0 0 0 0 1 16 0 0 4 4 5 98 204 391 304
0 0 0 0 0 0 0 0 0 0 0 0 0 0 0 3 15 36 65 62 48 35 11 13 3 1 1 0 0 0 0 0 0 3 8 5 4 0 12 68 128 277 387
0 0 0 0 0 0 0 0 0 0 0 0 0 0 0 0 0 0 9 23 71 51 70 39 15 13 12 11 0 5 11 10 0 0 1 2 4 0 10 87 85 128 261
0 0 0 0 0 0 0 0 0 0 0 0 0 0 0 0 0 0 0 0 0 3 25 13 18 24 10 5 6 19 32 33 8 0 4 5 2 16 18 90 49 80 88
0 0 0 0 0 0 0 0 0 0 0 0 0 0 0 0 0 0 0 0 0 0 0 9 35 48 41 11 0 0 0 16 12 0 6 9 8 34 24 0 38 29 58
0 0 0 0 0 0 0 0 0 0 0 0 0 0 0 0 0 0 0 0 0 0 0 0 1 3 42 51 16 1 1 0 0 0 0 4 11 1 13 40 32 40 44
0 0 0 0 0 0 0 0 0 0 0 0 0 0 1 0 0 0 0 0 1 2 5 3 7 8 9 8 25 32 26 24 12 14 21 16 15 4 0 18 34 26 28
0 0 0 0 0 0 0 0 0 0 1 1 1 1 2 2 0 0 0 0 0 0 0 3 7 14 10 3 27 30 32 18 13 8 0 1 0 0 3 19 26 15 7
0 0 0 0 0 0 0 1 0 1 2 1 0 0 1 0 0 0 0 0 3 0 1 8 4 2 24 4 3 18 17 5 2 19 11 2 0 0 0 20 11 6 6
0 0 0 0 0 0 0 1 0 0 0 1 1 1 1 0 0 0 0 0 1 4 5 4 2 0 0 0 0 0 0 3 13 9 4 9 20 32 26 8 11 11 4
0 0 0 0 0 0 1 1 3 3 2 2 3 2 1 0 0 0 0 0 1 4 4 3 6 0 0 0 0 3 4 5 36 28 24 10 4 25 28 33 47 8 0
0 0 0 1 1 1 2 2 2 2 2 2 3 3 1 0 0 0 0 0 0 0 3 6 2 0 0 0 0 0 0 0 2 5 3 4 12 36 37 31 2 3 1
0 1 1 2 2 2 2 1 3 3 3 3 4 4 3 4 5 8 1 1 0 1 4 2 0 0 0 0 0 0 1 1 2 3 2 4 10 10 36 0 0 0 1
1 2 2 2 3 3 2 2 2 2 2 3 2 3 3 2 4 1 0 0 1 2 0 10 21 12 22 0 1 2 13 1 23 3 4 6 24 4 0 0 0 1 4
3 2 2 3 3 4 4 3 0 0 0 0 0 0 2 1 0 0 0 0 0 0 1 6 6 31 0 24 4 23 25 0 2 10 27 21 1 0 0 0 6 21 45
2 3 3 4 5 4 3 4 2 1 0 0 0 0 0 0 0 0 0 0 0 0 0 2 9 2 4 12 5 31 33 23 39 30 20 28 31 40 36 68 91 111 126
2 3 2 3 4 5 4 2 3 2 1 0 1 0 0 0 0 0 0 0 0 1 9 4 18 9 42 21 41 27 85 114 132 109 77 124 141 79 95 119 133 137 240
2 2 3 3 4 2 2 2 2 0 1 2 0 0 0 0 0 0 0 0 10 1 2 4 6 34 34 67 35 74 137 155 203 173 167 137 64 43 68 95 122 115 188
3 3 2 2 2 4 2 3 2 1 1 1 0 4 0 1 0 1 0 17 1 0 4 7 1 43 38 18 38 93 95 171 293 206 166 117 94 82 98 101 72 9 56
3 3 1 2 1 4 1 3 2 2 1 1 1 1 0 0 9 0 16 15 0 0 3 5 0 29 71 110 153 149 145 281 239 183 123 101 73 31 41 64 25 25 51
2 3 4 4 3 3 3 3 9 9 0 0 2 7 0 7 22 23 10 0 0 0 4 0 0 43 123 23 154 225 208 214 142 73 40 20 28 0 2 12 44 57 91
4 4 5 5 2 1 3 11 7 4 0 0 0 0 2 25 32 14 6 0 0 0 0 0 0 126 196 209 193 151 151 120 112 122 116 72 29 54 59 23 3 9 27
4 4 7 6 5 5 4 2 2 1 1 3 6 28 14 5 9 0 0 0 0 0 0 0 11 126 210 199 128 125 65 79 100 75 30 14 4 0 1 0 1 6 28
3 5 5 8 7 7 6 6 5 5 4 3 3 14 11 6 2 0 0 0 0 0 0 1 40 102 156 117 41 15 0 0 0 0 0 0 0 0 0 0 2 6 12
2 3 4 5 5 5 6 8 9 7 6 5 4 2 1 2 1 1 1 0 0 3 17 34 65 108 70 22 16 0 0 0 0 0 0 0 0 0 0 0 3 4 10

GFSGL_con_mlcape_123.txt.gz
CAPE
0 0 0 0 0 7 20 31 30 67 152 187 196 142 118 240 321 263 217 128 71 73 0 0 16 19 0 0 0 0 0 0 0 0 0 1 0 4 0 53 68 120 135
0 0 0 0 0 0 6 9 20 44 78 95 92 82 90 98 248 345 218 237 182 125 90 80 35 41 50 39 0 0 0 3 0 0 0 0 0 37 65 63 84 85 126
0 0 0 0 0 0 0 0 0 0 0 0 0 0 11 36 98 175 277 272 200 172 125 147 83 63 48 59 84 66 55 56 51 32 30 14 0 0 1 11 0 128 210
0 0 0 0 0 0 0 0 0 0 0 0 0 0 0 0 0 1 19 67 130 178 116 139 165 110 98 96 64 45 45 42 34 14 26 37 21 1 9 50 23 62 93
0 0 0 0 0 0 0 0 0 0 0 0 0 0 0 0 0 0 0 0 0 3 9 62 98 109 95 46 51 57 21 49 29 39 38 33 19 12 32 5 30 56 67
0 0 0 0 0 0 0 0 0 0 0 0 0 0 0 0 0 0 0 0 0 0 0 0 0 0 0 3 17 10 20 34 27 17 42 50 41 3 9 9 1 3 37
0 0 0 0 0 0 0 0 0 0 0 0 0 0 0 0 0 0 0 0 0 0 0 0 1 0 0 0 0 10 27 17 14 29 26 18 17 8 1 3 1 21 21
0 0 0 0 0 0 0 0 0 0 0 0 0 1 3 4 0 0 0 0 0 0 1 3 5 5 6 4 3 6 10 18 15 3 4 10 8 7 14 10 14 3 1
0 0 0 0 0 0 0 0 0 2 1 0 0 0 0 0 0 0 0 0 0 0 1 5 2 0 0 0 0 6 6 8 5 8 9 8 1 5 5 12 1 0 0
0 0 0 0 0 0 1 0 0 0 0 0 0 0 0 0 0 0 0 1 0 0 0 0 0 0 0 2 8 20 23 4 4 3 8 1 0 0 0 0 0 0 0
0 0 0 0 1 0 0 0 0 0 0 0 0 0 1 1 1 0 0 0 1 2 2 0 0 0 0 0 0 6 25 14 10 1 0 0 0 2 3 7 0 0 1
0 0 0 0 1 0 0 1 3 3 3 3 3 3 1 0 0 0 0 0 0 2 2 3 1 0 0 0 0 0 0 0 0 4 10 6 5 5 3 3 14 4 0
0 0 0 0 1 2 2 2 3 2 2 3 3 3 2 0 0 0 0 0 0 0 2 1 0 0 0 0 0 0 0 10 16 19 20 9 13 7 13 30 34 52 36
0 1 1 1 1 1 1 1 2 2 3 3 3 3 3 4 2 0 1 4 0 0 0 2 2 0 0 1 1 2 3 6 5 0 0 2 9 6 4 0 79 79 54
2 1 2 1 2 2 2 2 3 1 1 3 2 3 2 3 3 2 0 1 0 0 0 3 0 0 11 7 2 6 0 1 2 2 2 1 1 2 2 25 96 57 5
2 2 2 2 3 2 3 2 0 0 0 0 0 0 1 1 0 0 0 0 0 0 0 3 1 6 1 18 1 3 1 2 5 15 1 2 4 3 13 44 25 14 0
2 2 2 1 1 2 3 5 3 1 1 0 0 0 0 0 0 0 0 0 0 0 4 8 8 0 2 0 3 3 2 10 5 2 2 2 13 13 6 4 3 17 24
1 2 2 2 3 4 4 3 3 4 4 2 1 0 0 0 0 0 0 0 0 0 2 3 0 11 7 19 1 0 6 2 8 49 34 61 69 2 6 17 35 0 1
3 2 2 3 3 2 2 2 1 2 1 1 0 0 0 0 0 0 0 0 0 0 13 0 10 9 30 7 4 11 17 4 47 112 150 163 118 56 74 117 44 0 137
1 1 2 3 2 2 10 1 0 0 1 2 1 1 1 2 8 19 2 1 10 1 0 9 11 7 19 4 18 58 124 224 206 214 228 222 204 175 179 251 229 203 264
1 1 2 3 4 3 5 4 7 4 0 1 3 7 0 0 2 16 21 3 0 0 0 0 6 1 7 0 51 27 114 227 280 238 259 250 202 233 257 132 89 179 232
1 2 4 1 4 1 0 1 7 0 0 1 0 2 0 4 17 23 10 9 0 0 0 1 0 0 9 58 59 30 228 238 247 217 177 159 104 106 139 134 319 242 249
2 3 5 1 1 0 0 1 1 1 1 1 4 5 0 8 15 2 3 0 0 0 0 0 0 2 120 49 31 32 188 234 221 184 168 130 128 113 93 90 78 201 284
2 2 5 6 5 3 2 1 1 1 0 1 0 0 2 5 4 11 0 0 0 0 0 0 14 67 3 147 137 129 290 282 295 158 85 16 8 8 4 18 33 64 269
1 2 4 5 5 5 6 5 5 3 1 0 2 1 3 4 1 3 2 0 0 0 0 1 36 130 252 140 97 23 0 0 0 0 1 0 0 0 0 16 26 23 70
2 1 2 3 4 4 4 6 7 6 7 4 2 3 4 3 2 1 0 1 0 6 15 40 156 243 215 34 0 0 0 0 0 0 3 4 1 1 0 0 1 3 18

GFSGL_con_mlcape_126.txt.gz
CAPE
0 0 0 4 0 0 17 25 54 42 90 198 267 241 242 393 425 376 302 190 118 139 122 12 15 52 66 22 0 0 0 0 0 0 0 0 0 0 0 0 0 0 25
0 0 0 0 0 0 0 0 0 3 46 90 131 171 180 192 199 323 269 294 277 263 211 177 148 141 92 76 79 47 17 19 0 0 0 0 0 18 0 0 0 0 0
0 0 0 0 0 0 0 0 0 0 0 0 0 0 1 3 13 60 111 178 231 235 245 244 187 203 128 140 209 122 128 93 103 60 50 81 56 0 0 0 5 8 5
0 0 0 0 0 0 0 0 0 0 0 0 0 0 0 0 0 0 7 12 13 25 128 142 153 139 154 191 162 107 108 95 77 41 24 47 48 0 4 10 4 6 0
0 0 0 0 0 0 0 0 0 0 0 0 0 0 0 0 0 0 0 0 0 0 0 0 4 73 100 104 131 67 68 66 50 65 46 35 48 53 1 0 6 0 0
0 0 0 0 0 0 0 0 0 0 0 0 0 0 0 0 0 0 0 0 0 0 0 0 0 0 0 0 0 0 0 26 50 55 41 36 42 52 39 1 2 0 0
0 0 0 0 0 0 0 0 0 0 0 0 0 0 0 0 0 0 0 0 0 0 0 0 0 0 0 0 0 0 0 0 0 6 58 35 33 23 35 24 16 7 0
0 0 0 0 0 0 0 0 0 0 0 0 0 1 0 0 0 0 0 0 0 0 0 0 0 0 1 3 3 7 6 8 4 14 8 3 10 24 18 5 20 6 0
0 0 0 0 0 0 0 0 0 0 0 0 0 0 0 0 0 0 0 0 0 0 0 0 0 0 0 0 0 0 0 0 0 0 0 20 8 1 4 9 12 1 0
0 0 0 0 0 0 0 0 0 0 0 0 0 0 0 0 0 0 0 0 1 2 0 0 0 0 0 0 0 0 2 1 8 17 34 8 0 0 0 0 3 0 2
0 0 0 0 0 0 0 0 0 0 0 0 1 1 1 1 1 0 0 1 2 2 2 1 0 0 0 0 0 0 1 3 5 16 18 8 10 0 0 1 4 0 0
0 0 0 0 0 0 0 0 1 2 3 2 2 2 1 0 0 0 0 0 0 0 1 0 0 0 0 0 0 0 0 0 0 0 1 8 17 15 1 0 3 8 6
0 0 0 0 0 0 1 1 2 1 1 2 2 2 1 0 1 0 0 0 0 0 0 1 0 0 0 0 0 0 0 0 0 0 5 2 0 0 3 12 18 11 12
0 0 1 2 1 1 0 1 2 2 2 3 2 2 2 3 3 3 3 2 1 0 0 0 0 0 0 0 0 0 0 0 0 0 0 0 1 5 8 4 1 1 7
2 2 1 1 1 1 2 2 3 2 3 3 2 2 3 2 2 1 0 0 0 0 0 0 0 0 0 1 0 1 1 0 0 0 0 0 0 7 17 12 5 5 13
2 2 2 3 2 3 3 2 2 1 0 0 0 0 0 0 0 0 0 0 0 0 0 1 1 1 1 0 1 0 0 0 2 1 1 1 1 0 0 15 6 0 43
2 2 2 2 3 4 2 3 0 0 0 0 0 0 0 0 0 0 0 0 0 0 2 1 3 0 4 6 0 0 2 4 2 2 2 2 2 3 1 0 0 1 70
1 2 3 3 4 3 2 2 2 1 1 1 0 0 0 0 0 0 0 0 0 0 0 0 0 1 1 0 1 1 0 0 27 2 2 2 3 2 2 2 6 11 18
2 2 2 3 3 2 1 0 0 0 0 1 0 0 0 0 0 0 0 0 0 0 0 0 1 3 3 7 0 0 0 0 2 28 3 10 9 4 10 27 14 11 11
2 1 2 2 0 2 1 3 3 1 1 1 1 3 4 0 0 6 0 0 1 0 0 2 1 8 11 28 0 13 0 6 10 15 56 24 25 30 3 2 2 17 40
1 1 1 1 1 0 1 1 2 1 2 0 0 0 0 0 1 2 2 3 0 0 0 1 1 1 12 6 11 47 0 22 89 3 56 2 0 0 54 24 0 0 76
1 2 2 1 0 0 0 0 1 2 1 1 1 2 0 5 10 7 4 0 0 0 0 0 0 0 6 0 0 0 17 255 215 42 35 80 83 110 166 127 111 110 47
1 3 4 3 3 1 1 0 1 1 0 2 1 2 3 3 2 1 3 3 1 0 0 0 0 0 33 0 0 0 1 145 265 88 102 58 26 44 134 107 131 184 56
1 2 4 4 4 4 4 3 1 1 0 0 1 3 5 5 4 3 2 1 0 0 0 0 0 12 2 0 22 35 0 1 20 3 11 1 5 12 22 182 101 75 4
1 2 3 4 4 4 3 3 4 5 4 3 3 5 5 6 6 4 4 1 0 2 0 4 40 4 1 1 0 0 0 0 0 0 1 4 0 0 0 11 46 126 19
1 2 2 2 2 3 3 3 4 4 5 7 6 6 6 6 6 4 3 1 0 0 0 16 20 1 0 0 0 0 0 0 0 0 0 0 0 0 0 0 0 44 24

GFSGL_con_mlcape_129.txt.gz
CAPE
0 0 0 0 0 0 0 0 0 0 0 0 0 6 106 304 378 306 218 152 121 96 85 58 27 14 1 3 7 0 0 0 0 0 0 0 0 0 0 0 0 0 0
0 0 0 0 0 0 0 0 0 0 0 0 0 0 0 8 10 44 136 312 319 264 218 249 173 156 87 83 75 46 13 0 0 0 0 0 0 0 0 0 0 0 0
0 0 0 0 0 0 0 0 0 0 0 0 0 0 0 0 0 0 0 0 0 13 50 80 80 60 60 92 69 100 98 65 56 42 17 0 0 0 0 0 0 0 0
0 0 0 0 0 0 0 0 0 0 0 0 0 0 0 0 0 0 0 0 0 0 0 0 0 0 48 108 118 130 114 75 33 19 6 0 0 0 0 0 0 0 0
0 0 0 0 0 0 0 0 0 0 0 0 0 0 0 0 0 0 0 0 0 0 0 0 0 0 0 0 0 0 0 15 29 33 9 0 0 0 0 0 0 0 0
0 0 0 0 0 0 0 0 0 0 0 0 0 0 0 0 0 0 0 0 0 0 0 0 0 0 0 0 0 0 0 0 0 0 0 12 15 11 15 24 12 0 0
0 0 0 0 0 0 0 0 0 0 0 0 0 0 0 0 0 0 0 0 0 0 0 0 0 0 0 0 0 0 0 0 0 0 1 0 1 11 25 46 36 11 4
0 0 0 0 0 0 0 0 0 0 0 0 0 0 0 0 0 0 0 0 0 0 0 0 0 0 0 0 0 0 0 1 0 0 0 1 3 8 22 32 32 18 1
0 0 0 0 0 0 0 0 0 0 0 0 0 0 0 0 0 0 0 0 0 0 0 0 0 0 0 0 0 0 0 0 0 0 0 0 0 0 3 35 19 21 6
0 0 0 0 0 0 0 0 0 0 0 0 0 0 0 0 0 0 0 0 2 1 1 0 0 0 0 0 0 0 2 1 0 0 4 11 2 0 0 0 12 7 3
0 0 0 0 0 0 0 0 0 0 0 0 0 0 1 1 0 0 0 0 0 1 2 1 0 0 0 0 0 0 1 0 0 2 7 1 0 0 0 0 0 7 2
0 0 0 0 0 0 0 1 1 1 2 2 1 1 0 0 0 0 0 0 0 0 0 0 0 0 0 0 0 0 0 0 0 0 0 0 0 0 0 0 0 9 5
0 0 0 0 0 0 1 1 2 2 3 2 4 2 2 0 0 0 0 0 0 1 0 0 0 0 0 0 0 0 0 0 0 0 0 0 0 0 1 16 19 21 22
0 0 0 0 0 0 1 2 4 3 3 1 2 2 2 1 1 1 1 1 1 0 1 0 0 0 0 0 0 0 0 0 0 0 0 0 0 0 0 0 2 4 6
0 1 0 1 2 2 2 3 3 2 3 2 1 3 2 1 0 0 0 0 0 0 0 0 0 0 0 0 2 2 1 1 0 0 0 0 0 0 0 0 4 0 1
2 2 2 3 3 3 4 1 2 2 1 0 0 0 0 0 0 0 0 0 0 0 0 3 2 0 0 1 1 1 0 1 0 0 1 0 0 0 0 9 16 18 0
0 1 1 3 3 3 2 1 0 0 0 0 0 0 0 0 0 0 0 0 0 0 1 0 0 0 1 2 2 2 2 1 0 1 1 2 1 2 0 0 0 19 7
1 1 2 3 3 2 1 0 1 1 0 0 0 0 0 0 0 0 0 0 0 0 0 0 0 0 0 1 2 6 2 1 4 0 2 3 2 2 2 1 0 1 0
1 2 3 1 0 1 0 0 0 1 2 0 0 0 0 0 0 0 0 0 0 0 0 0 0 1 2 3 1 0 1 8 5 2 1 1 1 1 1 0 0 0 2
1 2 2 1 0 0 1 1 1 2 0 0 2 3 1 0 0 0 1 0 0 0 0 0 0 0 2 2 3 7 0 0 6 17 2 0 3 2 0 0 0 0 14
2 2 1 1 1 0 0 0 1 0 1 1 2 1 0 3 4 2 2 0 4 3 0 0 0 2 2 0 1 2 0 1 0 30 2 0 0 0 0 3 1 11 35
1 3 2 3 2 1 0 1 1 0 0 2 3 3 2 3 3 3 3 2 2 2 0 0 2 2 0 0 0 7 6 9 7 0 0 0 1 0 0 0 3 15 7
1 2 3 3 3 2 1 1 1 1 2 2 4 5 5 5 4 3 4 5 1 1 0 0 0 0 0 0 0 0 0 2 6 13 27 12 5 0 0 0 8 17 5
1 1 3 3 3 3 3 4 4 3 3 4 5 6 6 5 5 5 5 2 1 0 0 0 0 0 0 0 0 0 0 0 1 10 12 7 6 40 37 36 25 16 0
1 1 2 2 2 3 3 3 4 4 4 4 5 6 5 5 6 7 4 2 0 1 4 3 3 0 0 0 0 0 0 0 0 0 0 0 1 7 72 41 4 0 0
0 0 0 0 1 1 2 2 2 3 4 4 4 4 4 6 6 6 3 2 1 1 1 0 0 0 0 0 0 0 0 0 0 0 0 0 0 0 0 0 0 0 0

GFSGL_con_mlcape_132.txt.gz
CAPE
0 0 0 0 0 0 0 0 0 0 0 0 0 0 0 0 5 51 135 140 128 120 118 75 55 38 27 25 23 10 5 0 0 0 0 0 0 0 0 0 0 0 0
0 0 0 0 0 0 0 0 0 0 0 0 0 0 0 0 0 0 0 0 0 1 5 29 76 126 88 94 105 81 46 31 30 5 0 0 0 7 0 0 0 0 0
0 0 0 0 0 0 0 0 0 0 0 0 0 0 0 0 0 0 0 0 0 0 0 0 0 0 0 21 45 42 56 45 5 14 17 5 5 13 19 0 0 0 0
0 0 0 0 0 0 0 0 0 0 0 0 0 0 0 0 0 0 0 0 0 0 0 0 0 0 0 0 0 0 0 0 9 21 0 2 1 0 0 0 0 0 0
0 0 0 0 0 0 0 0 0 0 0 0 0 0 0 0 0 0 0 0 0 0 0 0 0 0 0 0 0 0 0 0 0 0 0 0 0 2 7 7 0 0 0
0 0 0 0 0 0 0 0 0 0 0 0 0 0 0 0 0 0 0 0 0 0 0 0 0 0 0 0 0 0 0 0 0 0 0 0 0 4 11 22 20 16 0
0 0 0 0 0 0 0 0 0 0 0 0 0 0 0 0 0 0 0 0 0 0 0 0 0 0 0 0 0 0 0 0 0 0 0 0 0 0 1 10 5 9 19
0 0 0 0 0 0 0 0 0 0 0 0 0 0 0 0 0 0 0 0 0 0 0 0 0 0 0 0 0 0 0 0 0 0 1 0 0 1 7 25 44 29 2
0 0 0 0 0 0 0 0 0 0 0 0 0 0 0 0 0 0 0 0 0 0 0 0 0 0 0 0 0 0 0 0 0 0 0 0 0 0 0 0 0 5 12
0 0 0 0 0 0 0 0 0 0 0 0 0 0 0 0 0 0 0 1 1 1 0 0 0 0 0 0 0 0 2 0 0 0 0 0 0 0 0 0 0 0 6
0 0 0 0 0 0 0 0 0 0 0 1 1 0 0 0 0 0 0 0 0 1 0 0 0 0 0 0 0 0 0 0 0 0 0 0 1 7 1 0 0 3 9
0 0 0 0 0 0 0 0 1 2 3 3 2 1 2 1 0 0 0 0 0 0 1 0 0 0 0 0 0 0 0 0 0 1 1 0 0 0 0 0 0 0 0
0 0 0 0 0 0 2 1 2 2 2 0 1 1 0 1 1 0 0 0 0 0 1 0 0 0 0 0 0 0 0 0 0 0 0 0 0 0 0 0 0 0 1
0 0 0 0 1 1 2 2 2 1 1 1 2 2 2 2 1 1 0 0 0 1 1 0 1 0 0 0 0 0 0 0 1 1 0 0 0 0 0 0 0 0 18
0 0 0 2 3 1 1 1 1 0 2 1 2 2 2 0 1 1 1 1 1 1 0 0 0 1 0 0 0 0 0 1 2 1 2 1 0 0 0 0 0 0 0
1 2 3 2 1 2 1 0 1 2 0 0 0 0 0 0 0 0 0 0 0 0 0 1 0 0 0 0 1 2 3 2 2 2 2 1 1 1 0 0 0 0 0
3 2 2 2 2 1 1 1 0 0 0 0 0 0 0 0 0 0 0 0 0 0 0 0 0 0 0 1 5 3 2 0 2 3 2 1 2 1 0 0 0 1 5
1 1 2 3 2 2 1 0 0 1 1 0 0 0 0 0 0 0 0 0 0 0 0 0 0 2 4 3 2 3 1 2 3 3 3 1 2 2 2 0 0 0 20
2 2 3 2 0 1 0 0 1 2 1 1 1 1 1 0 0 0 0 0 0 0 0 0 1 2 2 1 1 2 0 1 14 1 2 2 2 2 2 0 0 0 0
2 2 2 2 2 0 0 0 2 1 0 1 3 3 3 2 2 2 1 2 2 2 2 1 2 2 0 2 12 10 0 2 28 0 1 2 2 1 1 0 0 0 0
2 2 2 2 2 1 0 0 1 3 1 3 5 3 2 3 5 3 3 3 5 4 3 3 2 0 1 3 0 0 1 0 4 1 1 1 0 0 0 0 0 0 0
3 3 2 3 2 2 0 1 1 0 3 5 4 4 4 4 5 5 6 6 5 4 2 1 1 2 1 0 0 0 0 0 0 0 1 0 0 0 0 0 3 3 7
0 2 2 2 2 2 2 2 3 3 3 4 7 7 5 6 6 6 6 5 3 3 4 2 0 0 0 0 0 0 0 0 0 1 7 0 0 2 4 25 11 7 1
1 1 1 2 2 2 3 3 3 3 4 5 5 7 7 6 7 6 5 3 2 3 2 1 0 0 0 0 0 0 0 0 0 0 2 7 0 0 0 4 12 7 0
1 0 1 1 2 2 2 2 2 2 4 4 6 6 6 6 7 6 5 4 3 3 3 1 2 0 0 0 0 0 0 0 0 0 0 1 10 3 0 1 0 0 0
1 1 1 1 2 1 1 2 2 2 3 3 3 4 4 6 5 6 4 3 4 5 3 3 2 1 0 0 0 0 0 0 0 0 0 0 0 6 0 0 0 0 0